[[{"header":{"parameterUnit":"m.s-1","parameterCategory":1,"la1":30.6,"la2":29.2853,"lo1":-89.7004,"lo2":-87.6739,"dy":0.0162,"dx":0.0183,"nx":112,"ny":82,"refTime":"2024-02-22T06:00:00:Z","depth":0,"parameterNumber":2,"parameterNumberName":"U-component_of_WINDS"},"data":[0.0,0.0,0.0,0.0,0.0,0.0,0.0,0.0,0.0,0.0,0.0,0.0,0.0,0.0,0.0,0.0,0.0,0.0,0.0,0.0,0.0,0.0,0.0,0.0,0.0,0.0,0.0,0.0,0.0,0.0,0.0,0.0,0.0,0.0,0.0,0.0,0.0,0.0,0.0,0.0,0.0,0.0,0.0,0.0,0.0,0.0,0.0,0.0,0.0,0.0,0.0,0.0,0.0,0.0,0.0,0.0,0.0,0.0,0.0,0.0,0.0,0.0,0.0,0.0,0.0,0.0,0.0,0.0,0.0,0.0,0.0,0.0,0.0,0.0,0.0,0.0,0.0,0.0,0.0,0.0,0.0,0.0,0.0,0.0,0.0,0.0,0.0,0.0,0.0,0.0,0.0,-3.4996,-4.0234,-4.3268,-4.2732,-4.2976,-4.1641,-3.7971,0.0,0.0,0.0,0.0,0.0,0.0,0.0,0.0,0.0,0.0,0.0,0.0,0.0,0.0,0.0,0.0,0.0,0.0,0.0,0.0,0.0,0.0,0.0,0.0,0.0,0.0,0.0,0.0,0.0,0.0,0.0,0.0,0.0,0.0,0.0,0.0,0.0,0.0,0.0,0.0,0.0,0.0,0.0,0.0,0.0,0.0,0.0,0.0,0.0,0.0,0.0,0.0,0.0,0.0,0.0,0.0,0.0,0.0,0.0,0.0,0.0,0.0,0.0,0.0,0.0,0.0,0.0,0.0,0.0,0.0,0.0,0.0,0.0,0.0,0.0,0.0,0.0,0.0,0.0,0.0,0.0,0.0,0.0,0.0,0.0,0.0,0.0,0.0,0.0,0.0,0.0,0.0,0.0,0.0,0.0,0.0,0.0,0.0,0.0,0.0,0.0,0.0,0.0,0.0,-3.2834,-3.9354,-4.2136,-4.3268,-4.2732,-4.1538,-3.995,-3.8002,0.0,0.0,0.0,0.0,0.0,0.0,0.0,0.0,0.0,0.0,0.0,0.0,0.0,0.0,0.0,0.0,0.0,0.0,0.0,0.0,0.0,0.0,0.0,0.0,0.0,0.0,0.0,0.0,0.0,0.0,0.0,0.0,0.0,0.0,0.0,0.0,0.0,0.0,0.0,0.0,0.0,0.0,0.0,0.0,0.0,0.0,0.0,0.0,0.0,0.0,0.0,0.0,0.0,0.0,0.0,0.0,0.0,0.0,0.0,0.0,0.0,0.0,0.0,0.0,0.0,0.0,0.0,0.0,0.0,0.0,0.0,0.0,0.0,0.0,0.0,0.0,0.0,0.0,0.0,0.0,0.0,0.0,0.0,0.0,0.0,0.0,0.0,0.0,0.0,0.0,0.0,0.0,0.0,0.0,0.0,0.0,0.0,0.0,0.0,0.0,0.0,0.0,0.0,-3.2367,-3.5766,-4.1164,-4.28,-4.3374,-4.316,-4.1648,-4.021,-3.8958,-3.6623,0.0,0.0,0.0,0.0,0.0,0.0,0.0,0.0,0.0,0.0,0.0,0.0,0.0,0.0,0.0,0.0,0.0,0.0,0.0,0.0,0.0,0.0,0.0,0.0,0.0,0.0,0.0,0.0,0.0,0.0,0.0,0.0,0.0,0.0,0.0,0.0,0.0,0.0,0.0,0.0,0.0,0.0,0.0,0.0,0.0,0.0,0.0,0.0,0.0,0.0,0.0,0.0,0.0,0.0,0.0,0.0,0.0,0.0,0.0,0.0,0.0,0.0,0.0,0.0,0.0,0.0,0.0,0.0,0.0,0.0,0.0,0.0,0.0,0.0,0.0,0.0,0.0,0.0,0.0,0.0,0.0,0.0,0.0,0.0,0.0,0.0,0.0,0.0,0.0,0.0,0.0,0.0,0.0,0.0,0.0,0.0,0.0,0.0,0.0,0.0,0.0,0.0,-3.6074,-3.866,-4.2189,-4.313,-4.3441,-4.3204,-4.1936,-4.0598,-3.9318,-3.6205,0.0,0.0,0.0,0.0,0.0,0.0,0.0,0.0,0.0,0.0,0.0,0.0,0.0,0.0,0.0,0.0,0.0,0.0,0.0,0.0,0.0,0.0,0.0,0.0,0.0,0.0,0.0,0.0,0.0,0.0,0.0,0.0,0.0,0.0,0.0,0.0,0.0,0.0,0.0,0.0,0.0,0.0,0.0,0.0,0.0,0.0,0.0,0.0,0.0,0.0,0.0,0.0,0.0,0.0,0.0,0.0,0.0,0.0,0.0,0.0,0.0,0.0,0.0,0.0,0.0,0.0,0.0,0.0,0.0,0.0,0.0,0.0,0.0,0.0,0.0,0.0,0.0,0.0,0.0,0.0,0.0,0.0,0.0,0.0,0.0,0.0,0.0,0.0,0.0,0.0,0.0,0.0,0.0,0.0,0.0,0.0,0.0,0.0,0.0,0.0,0.0,0.0,-3.7592,-4.0357,-4.3105,-4.3478,-4.3204,-4.2433,-4.1654,-4.0256,-3.8062,-3.6345,0.0,0.0,0.0,0.0,0.0,0.0,0.0,0.0,0.0,0.0,0.0,0.0,0.0,0.0,0.0,0.0,0.0,0.0,0.0,0.0,0.0,0.0,0.0,0.0,0.0,0.0,0.0,0.0,0.0,0.0,0.0,0.0,0.0,0.0,0.0,0.0,0.0,0.0,0.0,0.0,0.0,0.0,0.0,0.0,0.0,0.0,0.0,0.0,0.0,0.0,0.0,0.0,0.0,0.0,0.0,0.0,0.0,0.0,0.0,0.0,0.0,0.0,0.0,0.0,0.0,0.0,0.0,0.0,0.0,0.0,0.0,0.0,0.0,0.0,0.0,0.0,0.0,0.0,0.0,0.0,0.0,0.0,0.0,0.0,0.0,0.0,0.0,0.0,0.0,0.0,0.0,0.0,0.0,0.0,0.0,0.0,0.0,0.0,0.0,0.0,0.0,0.0,-3.7653,-4.0393,0.0,-4.3515,-4.3167,-4.2359,-4.1144,-3.9672,-3.7905,0.0,0.0,0.0,0.0,0.0,0.0,0.0,0.0,0.0,0.0,0.0,0.0,0.0,0.0,0.0,0.0,0.0,0.0,0.0,0.0,0.0,0.0,0.0,0.0,0.0,0.0,0.0,0.0,0.0,0.0,0.0,0.0,0.0,0.0,0.0,0.0,0.0,0.0,0.0,0.0,0.0,0.0,0.0,0.0,0.0,0.0,0.0,0.0,0.0,0.0,0.0,0.0,0.0,0.0,0.0,0.0,0.0,0.0,0.0,0.0,0.0,0.0,0.0,0.0,0.0,0.0,0.0,0.0,0.0,0.0,0.0,0.0,0.0,0.0,0.0,0.0,0.0,0.0,0.0,0.0,0.0,0.0,0.0,0.0,0.0,0.0,0.0,0.0,0.0,0.0,0.0,0.0,0.0,0.0,0.0,0.0,0.0,0.0,0.0,0.0,0.0,0.0,-3.5293,-3.7865,-4.0268,0.0,-4.313,-4.258,-4.1258,-4.0189,-3.8825,-3.7155,0.0,0.0,0.0,0.0,0.0,0.0,0.0,0.0,0.0,0.0,0.0,0.0,0.0,0.0,0.0,0.0,0.0,0.0,0.0,0.0,0.0,0.0,0.0,0.0,0.0,0.0,0.0,0.0,0.0,0.0,0.0,0.0,0.0,0.0,0.0,0.0,0.0,0.0,0.0,0.0,0.0,0.0,0.0,0.0,0.0,0.0,0.0,0.0,0.0,0.0,0.0,0.0,0.0,0.0,0.0,0.0,0.0,0.0,0.0,0.0,0.0,0.0,0.0,0.0,0.0,0.0,0.0,0.0,0.0,0.0,0.0,0.0,0.0,0.0,0.0,0.0,0.0,0.0,0.0,0.0,0.0,0.0,0.0,0.0,0.0,0.0,0.0,0.0,0.0,0.0,0.0,0.0,0.0,0.0,0.0,0.0,0.0,0.0,0.0,0.0,0.0,0.0,-3.6136,-3.8352,-4.0197,-4.2112,-4.2286,-4.1295,-3.8909,-3.8728,-3.7829,0.0,0.0,0.0,0.0,0.0,0.0,0.0,0.0,0.0,0.0,0.0,0.0,0.0,0.0,0.0,0.0,0.0,0.0,0.0,0.0,0.0,0.0,0.0,0.0,0.0,0.0,0.0,0.0,0.0,0.0,0.0,0.0,0.0,0.0,0.0,0.0,0.0,0.0,0.0,0.0,0.0,0.0,0.0,0.0,0.0,0.0,0.0,0.0,0.0,0.0,0.0,0.0,0.0,0.0,0.0,0.0,0.0,0.0,0.0,0.0,0.0,0.0,0.0,0.0,0.0,0.0,0.0,0.0,0.0,0.0,0.0,0.0,0.0,0.0,0.0,0.0,0.0,0.0,0.0,0.0,0.0,0.0,0.0,0.0,0.0,0.0,0.0,0.0,0.0,0.0,0.0,0.0,0.0,0.0,0.0,0.0,0.0,0.0,0.0,0.0,0.0,0.0,0.0,-3.5486,-3.7514,-3.9388,-4.125,-4.1462,-4.0708,-3.8872,-3.8205,-3.7454,-3.6382,0.0,0.0,0.0,0.0,0.0,0.0,0.0,0.0,0.0,0.0,0.0,0.0,0.0,0.0,0.0,0.0,0.0,0.0,0.0,0.0,0.0,0.0,0.0,0.0,0.0,0.0,0.0,0.0,0.0,0.0,0.0,0.0,0.0,0.0,0.0,0.0,0.0,0.0,0.0,0.0,0.0,0.0,0.0,0.0,0.0,0.0,0.0,0.0,0.0,0.0,0.0,0.0,0.0,0.0,0.0,0.0,0.0,0.0,0.0,0.0,0.0,0.0,0.0,0.0,0.0,0.0,0.0,0.0,0.0,0.0,0.0,0.0,0.0,0.0,0.0,0.0,0.0,0.0,0.0,0.0,0.0,0.0,0.0,0.0,0.0,0.0,0.0,0.0,0.0,0.0,0.0,0.0,0.0,0.0,0.0,0.0,0.0,0.0,0.0,0.0,0.0,0.0,-3.5731,-3.7399,-3.8914,-4.0441,-4.0634,-3.9827,-3.7918,-3.7294,-3.6638,-3.5686,0.0,0.0,0.0,0.0,0.0,0.0,0.0,0.0,0.0,0.0,0.0,0.0,0.0,0.0,0.0,0.0,0.0,0.0,0.0,0.0,0.0,0.0,0.0,0.0,0.0,0.0,0.0,0.0,0.0,0.0,0.0,0.0,0.0,0.0,0.0,0.0,0.0,0.0,0.0,0.0,0.0,0.0,0.0,0.0,0.0,0.0,0.0,0.0,0.0,0.0,0.0,0.0,0.0,0.0,0.0,0.0,0.0,0.0,0.0,0.0,0.0,0.0,0.0,0.0,0.0,0.0,0.0,0.0,0.0,0.0,0.0,0.0,0.0,0.0,0.0,0.0,0.0,0.0,0.0,0.0,0.0,0.0,0.0,0.0,0.0,0.0,0.0,0.0,0.0,0.0,0.0,0.0,0.0,0.0,0.0,0.0,0.0,0.0,0.0,0.0,0.0,0.0,-3.6351,-3.7598,-3.8615,-3.9648,-3.979,-3.8836,-3.6486,-3.6303,-3.5676,-3.4201,0.0,0.0,0.0,0.0,0.0,0.0,0.0,0.0,0.0,0.0,0.0,0.0,0.0,0.0,0.0,0.0,0.0,0.0,0.0,0.0,0.0,0.0,0.0,0.0,0.0,0.0,0.0,0.0,0.0,0.0,0.0,0.0,0.0,0.0,0.0,0.0,0.0,0.0,0.0,0.0,0.0,0.0,0.0,0.0,0.0,0.0,0.0,0.0,0.0,0.0,0.0,0.0,0.0,0.0,0.0,0.0,0.0,0.0,0.0,0.0,-2.8281,0.0,0.0,0.0,0.0,0.0,0.0,0.0,0.0,0.0,0.0,0.0,0.0,0.0,0.0,0.0,0.0,0.0,0.0,0.0,0.0,0.0,0.0,0.0,0.0,0.0,0.0,0.0,0.0,0.0,0.0,0.0,0.0,0.0,0.0,0.0,0.0,0.0,0.0,0.0,0.0,0.0,-3.5747,-3.6795,-3.7766,-3.8839,-3.8946,-3.8248,-3.645,-3.6303,-3.5933,-3.5088,0.0,0.0,0.0,0.0,0.0,0.0,0.0,0.0,0.0,0.0,0.0,0.0,0.0,0.0,0.0,0.0,0.0,0.0,0.0,0.0,0.0,0.0,0.0,0.0,0.0,0.0,0.0,0.0,0.0,0.0,0.0,0.0,0.0,0.0,0.0,0.0,0.0,0.0,0.0,0.0,0.0,0.0,0.0,0.0,0.0,0.0,0.0,0.0,0.0,0.0,0.0,0.0,0.0,0.0,0.0,0.0,0.0,0.0,0.0,0.0,0.0,-3.0472,0.0,0.0,0.0,0.0,0.0,0.0,0.0,0.0,0.0,0.0,0.0,0.0,0.0,0.0,0.0,0.0,0.0,0.0,0.0,0.0,0.0,0.0,0.0,0.0,0.0,0.0,0.0,0.0,0.0,0.0,0.0,0.0,0.0,0.0,0.0,0.0,0.0,0.0,0.0,0.0,-3.669,-3.7055,-3.7504,-3.8581,-3.8358,-3.7624,-3.6413,-3.5936,-3.5523,-3.5165,-3.5984,0.0,0.0,0.0,0.0,0.0,0.0,0.0,0.0,0.0,0.0,0.0,0.0,0.0,0.0,0.0,0.0,0.0,0.0,0.0,0.0,0.0,0.0,0.0,0.0,0.0,0.0,0.0,0.0,0.0,0.0,0.0,0.0,0.0,0.0,0.0,0.0,0.0,0.0,0.0,0.0,0.0,0.0,0.0,0.0,0.0,0.0,0.0,0.0,0.0,0.0,0.0,0.0,0.0,0.0,0.0,-3.9593,-3.9637,-3.9621,-3.9495,-3.7765,-3.6571,-3.5593,0.0,0.0,0.0,0.0,0.0,0.0,0.0,0.0,0.0,0.0,0.0,0.0,0.0,0.0,0.0,0.0,0.0,0.0,0.0,0.0,0.0,0.0,0.0,0.0,0.0,-3.9267,-3.8973,0.0,0.0,0.0,0.0,0.0,0.0,0.0,0.0,0.0,0.0,0.0,0.0,-3.8066,-3.7762,-3.7679,-3.8671,-3.8015,-3.7162,-3.6376,-3.5481,-3.5004,-3.5004,-3.636,-3.7389,0.0,0.0,0.0,0.0,0.0,0.0,0.0,0.0,0.0,0.0,0.0,0.0,0.0,0.0,0.0,0.0,0.0,0.0,0.0,0.0,0.0,0.0,0.0,0.0,0.0,0.0,0.0,0.0,0.0,0.0,0.0,0.0,-2.8358,-2.8855,0.0,0.0,0.0,0.0,0.0,0.0,0.0,0.0,0.0,0.0,0.0,0.0,0.0,0.0,-4.0295,-4.1467,-4.2726,-4.4008,-4.4424,-4.4361,-4.3884,-4.4165,-4.4169,-4.381,-4.2415,0.0,-3.8925,-3.573,0.0,0.0,0.0,0.0,0.0,0.0,0.0,0.0,0.0,0.0,0.0,0.0,0.0,0.0,0.0,0.0,0.0,0.0,0.0,0.0,0.0,0.0,-4.0519,-4.0614,-4.0797,-4.0761,0.0,-3.7917,-3.591,-3.5231,0.0,0.0,0.0,0.0,0.0,0.0,0.0,0.0,-3.8651,-3.8348,-3.8362,-3.8979,-3.8102,-3.7162,-3.6376,-3.5481,-3.5004,-3.5004,-3.5238,-3.6317,-3.8499,-3.8817,0.0,0.0,0.0,0.0,0.0,0.0,0.0,0.0,0.0,0.0,0.0,0.0,0.0,0.0,0.0,0.0,0.0,0.0,0.0,0.0,0.0,0.0,0.0,0.0,0.0,0.0,0.0,0.0,0.0,-2.8772,-3.1625,-3.1627,-3.2637,-3.2524,0.0,0.0,0.0,0.0,0.0,0.0,0.0,0.0,0.0,-3.8464,-4.0341,-4.2239,-4.4225,-4.5068,-4.6268,-4.7664,-4.7886,-4.8012,-4.8122,-4.8007,-4.7887,-4.7712,-4.6881,-4.564,-4.396,-4.0031,-3.8034,-3.7154,0.0,0.0,0.0,0.0,0.0,-3.2895,-3.3314,0.0,0.0,0.0,0.0,0.0,0.0,0.0,0.0,0.0,0.0,0.0,0.0,0.0,0.0,-4.1772,-4.2139,-4.2323,-4.1882,-4.0751,-3.9438,0.0,-3.8155,-3.7907,-3.6844,0.0,0.0,0.0,0.0,0.0,-3.9433,-3.878,-3.8524,-3.9045,-3.813,-3.7345,-3.7015,-3.5738,-3.5271,-3.5917,-3.5943,-3.6703,-3.8398,-3.9217,-3.9486,0.0,0.0,0.0,0.0,0.0,0.0,0.0,0.0,0.0,0.0,0.0,0.0,0.0,0.0,0.0,0.0,0.0,0.0,0.0,0.0,0.0,0.0,0.0,0.0,0.0,0.0,0.0,0.0,-3.1212,-3.4266,-3.3844,-3.5528,-3.5856,0.0,0.0,0.0,0.0,0.0,0.0,-3.7519,-3.8676,-4.0434,-4.3012,-4.4268,-4.5718,-4.7438,-4.785,-4.8783,-5.0198,-5.0198,-5.0478,-5.0927,-5.0786,-5.0569,-5.0256,-4.9973,-4.9145,-4.7723,-4.3726,-4.0976,-3.9177,-3.8441,-3.7566,0.0,-3.5832,-3.6325,-3.7366,-3.7673,-3.923,-4.1001,-4.032,0.0,-4.1045,-3.8591,0.0,0.0,0.0,0.0,-3.8075,-3.9746,0.0,-4.2426,-4.256,-4.3057,-4.3314,-4.2727,-4.2664,-4.2267,0.0,-4.0738,-4.0667,-3.9482,0.0,0.0,0.0,0.0,-3.9253,-4.0089,-3.9371,-3.8912,-3.9302,-3.8383,-3.7715,-3.7616,-3.6357,-3.5956,-3.6862,-3.698,-3.7443,-3.8449,-3.9461,-3.9754,-3.9262,0.0,0.0,0.0,0.0,0.0,0.0,0.0,0.0,0.0,0.0,0.0,0.0,0.0,0.0,0.0,0.0,0.0,0.0,0.0,0.0,0.0,0.0,0.0,0.0,0.0,0.0,0.0,0.0,0.0,-3.399,-3.86,0.0,0.0,0.0,0.0,-3.7021,-3.8259,-3.9846,-4.1799,-4.3999,-4.6026,-4.7865,-4.882,-4.9721,-5.0565,-5.0582,-5.1059,-5.1887,-5.1887,-5.1686,-5.1303,-5.2119,-5.1857,-5.0749,-5.0726,-5.004,-4.8721,-4.6153,-4.4802,-4.403,-4.0899,-4.0113,-4.059,-3.982,-3.9564,-3.9747,-4.0581,-4.0965,-4.1352,-4.2817,-4.4293,-4.5006,-4.2282,-4.1321,0.0,0.0,-3.9864,-3.9735,-4.1751,-4.2296,-4.2506,-4.324,-4.3478,-4.3515,-4.3441,-4.3684,-4.3361,0.0,-4.0688,-4.0151,-3.9502,0.0,-4.0702,-3.9325,-4.0567,-4.1346,-4.0577,-4.0183,-4.0014,-4.0042,-3.9045,-3.8223,-3.7901,-3.7373,-3.719,-3.7456,-3.7715,-3.8199,-3.9032,-3.9131,-3.9131,-3.9093,-3.9117,0.0,0.0,0.0,0.0,0.0,0.0,0.0,0.0,0.0,0.0,0.0,0.0,0.0,0.0,0.0,0.0,0.0,0.0,0.0,0.0,0.0,0.0,0.0,0.0,0.0,0.0,0.0,0.0,-3.8521,-4.1868,0.0,0.0,-3.9792,-4.0068,-4.1109,-4.2699,-4.4565,-4.6856,-4.7716,-4.8925,-5.0618,-5.0986,-5.1536,-5.2344,-5.2344,-5.2491,-5.2784,-5.2784,-5.241,-5.1743,-5.1769,-5.1391,-5.0734,-5.0734,-5.047,-4.9994,-4.8845,-4.7248,-4.5369,-4.4177,-4.3903,-4.4123,-4.383,-4.3389,-4.2986,-4.3297,-4.3094,-4.2777,-4.3573,-4.3833,-4.3877,-4.3894,-4.3482,-4.3077,-4.3415,-4.2748,-4.213,-4.3177,-4.3254,-4.313,-4.3441,-4.3515,-4.3546,-4.3791,-4.3927,-4.3879,-4.345,-4.2752,-4.2158,-4.1958,-4.2052,-4.1952,-4.1371,-4.1583,-4.1508,-4.0631,-4.0278,-4.012,-4.012,-3.9543,-3.9131,-3.9012,-3.8377,-3.8082,-3.8328,-3.8461,-3.876,-3.9214,-3.9547,-4.0246,-4.1268,-4.1104,-4.1304,0.0,0.0,0.0,0.0,0.0,0.0,0.0,0.0,0.0,0.0,0.0,0.0,0.0,0.0,0.0,0.0,0.0,0.0,0.0,0.0,0.0,0.0,0.0,0.0,0.0,0.0,-4.1704,-4.2063,-4.5078,-4.628,-4.4217,-4.3798,-4.4135,-4.5352,-4.6764,-4.8379,-5.0308,-5.0675,-5.1279,-5.238,-5.2417,-5.2674,-5.3167,-5.2931,-5.2821,-5.2821,-5.2821,-5.2426,-5.176,-5.2029,-5.1786,-5.1149,-5.1149,-5.0922,-5.0466,-4.9911,-4.8527,-4.6709,-4.6837,-4.6653,-4.6305,-4.6468,-4.5917,-4.5076,-4.4764,-4.4158,-4.3546,-4.3896,-4.3729,-4.3632,-4.4741,-4.4685,-4.432,-4.4802,-4.4273,-4.3601,-4.3779,-4.366,-4.3515,-4.3515,-4.3515,-4.3597,-4.3943,-4.4102,-4.4304,-4.4676,-4.4056,-4.3426,-4.3365,-4.2987,-4.2746,-4.2931,-4.2479,-4.2099,-4.2099,-4.1226,-4.0721,-4.1027,-4.0337,-3.9882,-3.9775,-3.9623,-3.9409,-3.9095,-3.9461,-3.9661,-3.9588,-4.0157,-4.1005,-4.2072,-4.2571,-4.2913,-4.3049,0.0,0.0,0.0,0.0,0.0,0.0,0.0,0.0,0.0,0.0,0.0,0.0,0.0,0.0,0.0,0.0,0.0,0.0,0.0,0.0,0.0,0.0,0.0,-3.51,-4.0428,-4.4229,-4.4341,-4.8204,-5.0109,-4.8135,-4.8684,-4.9281,-4.9649,-5.0435,-5.1242,-5.1977,-5.2784,-5.3203,-5.3203,-5.3203,-5.3203,-5.3203,-5.2417,-5.205,-5.205,-5.205,-5.1797,-5.1395,-5.2977,-5.3058,-5.1941,-5.1926,-5.1271,-5.0142,-4.9288,-4.8713,-4.8381,-4.8727,-4.8176,-4.7169,-4.7576,-4.6954,-4.581,-4.5039,-4.4195,-4.3583,-4.3949,-4.4313,-4.4676,-4.4988,-4.5115,-4.5011,-4.4688,-4.429,-4.3943,-4.358,-4.3515,-4.3515,-4.3515,-4.3515,-4.3614,-4.3958,-4.4318,-4.4726,-4.5033,-4.4429,-4.3803,-4.3596,-4.3229,-4.3187,-4.3829,-4.324,0.0,-4.494,-4.3053,-4.197,-4.2842,-4.1481,-4.0427,-4.0177,-4.11,-4.1112,-3.9724,-4.0669,-4.0919,-4.0129,-4.0852,-4.1279,-4.1355,-4.3328,-4.3717,-4.246,0.0,0.0,0.0,0.0,0.0,0.0,0.0,0.0,0.0,0.0,0.0,0.0,0.0,0.0,0.0,0.0,0.0,0.0,0.0,0.0,0.0,0.0,-4.0015,-4.0251,-4.4229,-4.7635,-4.9222,-5.1265,-5.2209,-5.135,-5.1731,-5.1845,-5.1373,-5.2637,-5.3261,-5.2894,-5.3078,-5.3203,-5.3203,-5.3203,-5.3203,-5.3203,-5.3004,-5.2858,-5.2858,-5.2858,-5.25,-5.1794,-5.1684,-5.125,-5.0596,-5.0358,-5.0211,-5.011,-4.9621,-4.9322,-4.917,-4.8678,-4.8273,-4.7976,-4.8089,-4.7574,-4.6636,-4.5847,-4.5039,-4.4464,-4.5088,-4.4995,-4.4676,-4.4988,-4.5115,-4.4966,-4.4346,-4.4073,-4.3943,-4.358,-4.3515,-4.3515,-4.3515,-4.3677,-4.3974,-4.4346,-4.4701,-4.5044,-4.54,-4.5256,-4.5093,-4.5017,-4.4919,-4.4725,-4.4258,0.0,0.0,-4.3691,-4.2556,-4.2262,-4.3561,-4.2347,-4.1626,-4.202,-4.189,-4.1327,0.0,-4.053,-4.0603,-4.0389,-4.0603,-4.1323,-4.2589,-4.4296,-4.4717,0.0,0.0,0.0,0.0,0.0,0.0,0.0,0.0,0.0,0.0,0.0,0.0,0.0,0.0,0.0,0.0,0.0,0.0,0.0,0.0,0.0,0.0,-4.0618,-4.4305,-4.5663,-4.8151,-5.0583,-5.2686,-5.3566,-5.3853,-5.344,-5.3423,-5.3179,-5.2548,-5.3371,-5.3702,-5.3203,-5.3203,-5.3203,-5.3203,-5.3203,-5.3203,-5.3203,-5.2858,-5.2711,-5.2711,-5.2711,-5.2454,-5.1977,-5.1867,-5.1293,0.0,-5.0206,-4.9802,-4.9325,-4.9119,-4.904,0.0,0.0,0.0,0.0,0.0,-4.7572,-4.6581,-4.6471,-4.5663,-4.4812,-4.5579,-4.5264,-4.4676,-4.4988,-4.4988,-4.4788,-4.4175,-4.3912,-4.3758,-4.3529,-4.3515,-4.3549,-4.366,-4.3849,-4.4146,-4.4676,-4.4954,-4.5201,-4.5541,0.0,0.0,-4.5594,-4.5559,-4.5428,-4.5208,-4.4911,-4.4806,0.0,-4.3729,-4.3251,-4.4461,-4.323,-4.2505,-4.2878,-4.2548,0.0,0.0,0.0,-4.1715,-4.2061,-4.2099,0.0,0.0,0.0,-4.5553,0.0,0.0,0.0,0.0,-4.3585,-4.3816,0.0,0.0,0.0,0.0,0.0,0.0,0.0,0.0,0.0,0.0,0.0,0.0,0.0,0.0,0.0,0.0,-4.33,-4.7554,-5.0698,-5.1758,-5.2908,-5.4822,-5.5015,-5.4876,-5.4516,-5.4143,-5.3696,-5.3209,-5.3277,-5.3298,-5.3203,0.0,0.0,0.0,0.0,-5.3203,-5.3203,-5.2491,-5.2123,-5.2123,-5.2123,-5.2123,-5.216,-5.2711,-5.216,-5.0802,-5.0692,-4.9774,-4.8306,-4.8416,-4.8379,-4.8344,-4.8674,-4.8622,-4.8306,-4.8306,-4.7388,0.0,0.0,0.0,0.0,-4.5633,-4.5235,-4.4612,-4.4896,-4.4788,-4.4441,-4.4043,-4.3726,-4.3515,-4.3515,-4.3515,-4.358,-4.3927,-4.4028,-4.4261,-4.4954,-4.5137,-4.5243,-4.555,-4.5594,-4.5594,-4.5594,-4.5485,-4.5601,-4.6211,-4.5747,0.0,-4.7373,-4.5581,-4.4566,-4.5457,0.0,0.0,-4.3329,-4.3227,-4.312,-4.3085,-4.3043,-4.3372,-4.414,-4.4255,-4.4603,-4.5236,-4.6079,-4.6137,-4.5419,-4.6187,-4.6234,-4.5594,-4.555,-4.5973,0.0,0.0,0.0,0.0,0.0,0.0,0.0,0.0,0.0,0.0,0.0,0.0,0.0,0.0,0.0,-4.3975,-4.7498,-5.063,-5.2883,-5.3329,-5.3743,-5.4525,-5.4609,-5.4579,-5.45,-5.4391,-5.3992,-5.3261,-5.3812,-5.3885,-5.3203,-5.3203,0.0,-5.3203,-5.3203,-5.3203,-5.3203,-5.3078,-5.2968,-5.2968,0.0,0.0,-5.2931,-5.1793,-5.1096,-5.0765,-5.0105,-4.926,-4.8343,-4.904,-4.893,-4.8306,-4.8364,-4.8382,-4.8306,-4.8306,-4.8122,-4.7865,-4.8012,-4.7021,-4.5753,-4.6153,-4.5282,-4.4117,-4.4204,-4.4161,0.0,-4.3693,-4.3529,-4.3515,-4.3515,-4.3515,-4.358,-4.3927,-4.4247,-4.4624,-4.5,-4.5293,-4.5532,-4.5586,-4.5594,-4.5594,-4.5594,-4.5577,-4.5598,-4.5754,-4.5647,-4.5647,-4.5993,-4.5012,-4.4813,-4.6212,-4.4996,-4.4303,-4.4815,-4.4382,-4.3769,-4.3124,-4.3077,-4.3145,-4.3338,-4.3962,-4.4376,-4.4512,-4.5358,-4.5704,-4.5568,-4.5713,-4.5731,-4.5594,-4.5586,-4.5701,0.0,0.0,0.0,0.0,0.0,0.0,0.0,0.0,0.0,0.0,0.0,-3.6039,-3.7979,0.0,-4.5096,-4.68,-5.0175,-5.2794,-5.341,-5.3663,-5.4066,-5.4716,-5.442,-5.4238,-5.4468,-5.4072,-5.3628,-5.3203,-5.3592,-5.3628,-5.3203,-5.3203,-5.3203,-5.3203,-5.3203,-5.3203,-5.3203,-5.3203,-5.3203,-5.3203,-5.3203,-5.3203,-5.3188,-5.194,-5.1389,-5.1353,-5.0545,-4.9738,-4.893,-4.893,-4.8673,-4.8306,-4.8306,-4.803,-4.7736,-4.8159,-4.803,-4.7736,-4.8159,-4.7241,-4.5992,-4.652,-4.5477,-4.4102,-4.4705,-4.4483,-4.4017,-4.4059,-4.3791,-4.3515,-4.3515,-4.3515,-4.3647,-4.4161,-4.4441,-4.4751,-4.5243,-4.5466,-4.5594,-4.5594,-4.5594,-4.5594,-4.5594,-4.5594,-4.5594,-4.5594,-4.5594,-4.5594,-4.5594,-4.521,-4.5252,-4.6014,-4.5426,-4.5098,-4.5429,-4.5157,-4.4586,-4.3739,-4.4124,-4.4355,-4.4355,-4.4739,-4.494,-4.494,-4.5364,-4.5594,-4.5594,-4.5594,-4.5594,-4.5594,-4.5594,-4.5594,0.0,0.0,0.0,0.0,0.0,0.0,0.0,0.0,-3.4576,-3.7346,-3.8647,-3.9865,-4.1833,-4.5802,-4.8786,-4.8862,-5.1967,-5.4106,-5.3314,-5.3546,-5.4083,-5.4737,-5.4217,-5.3941,-5.4322,-5.3643,-5.3203,-5.3203,-5.3203,-5.3203,-5.3203,-5.3203,-5.3203,-5.3203,-5.3203,-5.3203,-5.3203,-5.3203,-5.3203,-5.3203,-5.3203,-5.3203,-5.3167,-5.238,-5.1977,-5.194,-5.1169,-5.0435,-4.9794,-4.8893,-4.8453,-4.8306,-4.8306,-4.7883,-4.7406,-4.8086,-4.7902,-4.7406,-4.7883,-4.7131,-4.5973,-4.6396,-4.5462,-4.4309,-4.5109,-4.4789,-4.4167,-4.4392,-4.4011,-4.3515,-4.3515,-4.3529,-4.3775,-4.4452,-4.4663,-4.4872,-4.5457,-4.5594,-4.5594,-4.5594,-4.5594,-4.5594,-4.5594,-4.5594,-4.5594,-4.5594,-4.5594,-4.5594,-4.5594,-4.5594,-4.5594,-4.5594,-4.5594,-4.5594,-4.5594,-4.5594,-4.5287,-4.4586,-4.521,-4.5594,-4.5594,-4.5594,-4.5594,-4.5594,-4.5594,-4.5594,-4.5594,-4.5594,-4.5594,-4.5594,-4.5594,-4.5594,-3.0313,-2.9218,-2.946,-2.9393,-3.0969,-3.3774,0.0,0.0,-4.1055,-4.5022,-4.6488,-4.7351,-4.8358,-5.0211,-5.1552,-5.1552,-5.3151,-5.4106,-5.3314,-5.3546,-5.3832,-5.3941,-5.3851,-5.3814,-5.3869,-5.3464,-5.3203,-5.3203,-5.3203,-5.3203,-5.3203,-5.3203,-5.3203,-5.3203,-5.3203,-5.3203,-5.3203,-5.3203,-5.3203,-5.3203,-5.3203,-5.3203,-5.3167,-5.238,-5.1977,-5.194,-5.1169,-5.0765,-5.0618,-4.9794,-4.9003,-4.8306,-4.8306,-4.8269,-4.8196,-4.8269,-4.8233,-4.8067,-4.7443,-4.6636,-4.5791,-4.5145,-4.4814,-4.4503,-4.3928,-4.4169,-4.4468,-4.3808,-4.3588,-4.3515,-4.3515,-4.3726,-4.4043,-4.4519,-4.4837,-4.5159,-4.5532,-4.5594,-4.5594,-4.5594,-4.5594,-4.5594,-4.5594,-4.5594,-4.5594,-4.5594,-4.5594,-4.5594,-4.5594,-4.5594,-4.5594,-4.5594,-4.5594,-4.5594,-4.5594,-4.5594,-4.5556,-4.5479,-4.5556,-4.5594,-4.5594,-4.5594,-4.5594,-4.5594,-4.5594,-4.5594,-4.5594,-4.5594,-4.5594,-4.5594,-4.5594,-4.5594,-3.6467,-3.4083,-3.2767,0.0,-3.712,-3.8584,-4.2703,-4.4089,-4.526,-4.7957,-4.9187,-4.9994,-5.0859,-5.2307,-5.3225,0.0,-5.4032,-5.4656,-5.3408,-5.3339,-5.3111,-5.2171,-5.206,-5.2509,-5.3684,-5.3424,-5.3203,-5.3203,-5.3203,-5.3203,-5.3203,-5.3203,-5.3203,-5.3203,-5.3203,-5.3203,-5.3203,-5.3203,-5.3203,-5.3203,-5.3203,-5.3203,-5.3167,-5.238,-5.1977,-5.1977,-5.1646,-5.1499,-5.1389,-5.0068,-4.9334,-4.8967,-4.8489,-4.8306,-4.8306,-4.8306,-4.8306,-4.8269,-4.7939,-4.7259,-4.6581,-4.6481,-4.5987,-4.546,-4.5833,-4.536,-4.4745,-4.4856,-4.4195,-4.3625,-4.4085,-4.4075,-4.4199,-4.5108,-4.519,-4.5191,-4.5541,-4.5594,-4.5594,-4.5594,-4.5594,-4.5594,-4.5594,-4.5594,-4.5594,-4.5594,-4.5594,-4.5594,-4.5594,-4.5594,-4.5594,-4.5594,-4.5594,-4.5594,-4.5594,-4.5594,-4.5594,-4.5594,-4.5594,-4.5594,-4.5594,-4.5594,-4.5594,-4.5594,-4.5594,-4.5594,-4.5594,-4.5594,-4.5594,-4.5594,-4.5594,-4.5855,-3.8571,0.0,0.0,-4.0653,-4.2006,-4.2958,-4.6177,-4.7388,-4.8269,-4.9848,-5.0508,-5.1096,-5.2123,-5.3298,-5.3885,-5.3277,-5.4363,-5.4766,-5.3387,-5.2909,-5.2213,-5.0969,-5.05,-5.0895,-5.2493,-5.279,-5.2858,-5.2858,-5.3298,-5.3555,-5.3555,-5.3555,-5.3555,-5.3555,-5.3314,-5.3203,-5.3203,-5.3203,-5.3203,-5.3203,-5.3203,-5.3203,-5.3167,-5.2601,-5.2344,-5.2344,-5.2344,-5.2087,-5.1573,-5.0362,-4.9591,-4.9114,-4.8526,-4.8306,-4.8306,-4.8306,-4.8306,-4.8269,-4.803,-4.759,-4.7095,-4.7179,-4.6778,-4.6342,-4.7011,-4.6318,-4.5425,-4.581,-4.5039,-4.4303,-4.5031,-4.4913,-4.4939,-4.6021,-4.5858,-4.5573,-4.6156,-4.5941,-4.5671,-4.5893,-4.5748,-4.5594,-4.5594,-4.5594,-4.5594,-4.5594,-4.5594,-4.5594,-4.5594,-4.5594,-4.5594,-4.5594,-4.5594,-4.5594,-4.5594,-4.5594,-4.5594,-4.5594,-4.5594,-4.5594,-4.5594,-4.5594,-4.5594,-4.5594,-4.5825,-4.597,-4.597,-4.6163,-4.6278,-4.6278,-4.6278,-4.6624,0.0,0.0,-3.6322,-3.9955,-4.3302,-4.6397,-4.8913,-4.95,-4.9978,-5.1573,-5.1316,-5.1279,-5.2873,-5.3203,-5.3203,-5.3203,-5.3922,-5.4142,-5.3314,-5.2213,-5.1268,-5.0862,-4.9768,-4.9224,0.0,-5.1116,-5.205,-5.205,-5.3482,-5.4363,-5.4363,-5.4363,-5.4363,-5.4363,-5.3628,-5.3203,-5.3203,-5.3203,-5.3203,-5.3203,-5.3203,-5.3203,-5.3203,-5.3167,-5.3188,-5.3188,-5.3188,-5.227,-5.0839,-5.0765,-4.9811,-4.8343,-4.8306,-4.8306,-4.8306,-4.8306,-4.8306,-4.8196,-4.7406,-4.7113,-4.6966,-4.6195,-4.6471,-4.6929,-4.6195,-4.6471,-4.6856,-4.6104,-4.5847,-4.5918,-4.6322,-4.6366,-4.6517,-4.7338,-4.6908,-4.6582,-4.7761,-4.674,-4.5864,-4.6701,-4.6163,-4.5594,-4.5594,-4.5594,-4.5594,-4.5594,-4.5594,-4.5594,-4.5594,-4.5594,-4.5594,-4.5594,-4.5594,-4.5594,-4.5594,-4.5594,-4.5594,-4.5594,-4.5594,-4.5594,-4.5594,-4.5594,-4.5594,-4.5594,-4.6432,-4.6846,-4.6846,-4.7625,-4.8009,-4.8009,-4.8009,-4.8048,-3.6355,0.0,-4.1304,-4.4272,-4.7094,-4.937,-5.0215,-5.0802,-5.1042,-5.0528,-4.9139,-4.8032,-4.8145,-4.7189,-4.7113,-4.9387,-5.0476,-5.1584,-5.2983,-5.2856,-5.1738,-4.9427,-4.8789,0.0,0.0,0.0,0.0,-5.194,-5.3482,-5.4399,-5.4399,-5.4913,-5.495,-5.4436,-5.4142,-5.3739,-5.3203,-5.3739,-5.3995,-5.3995,-5.3995,-5.3739,-5.3203,-5.3203,-5.3203,-5.3203,-5.3203,-5.2601,-5.1536,-5.1022,-5.0141,-4.9114,-4.8526,-4.8306,-4.8306,-4.8306,-4.8306,-4.8269,-4.7993,-4.7883,-4.7903,-4.7882,-4.7868,-4.7885,-4.7882,-4.7535,-4.7039,-4.6746,-4.6484,-4.6442,-4.7111,-4.7034,-4.7057,-4.8135,-4.7735,-4.7269,-4.7953,-4.724,-4.6547,-4.6846,-4.6201,-4.5594,-4.5594,-4.5594,-4.5594,-4.5594,-4.5594,-4.5594,-4.5594,-4.5594,-4.5594,-4.5594,-4.5594,-4.5594,-4.5594,-4.5594,-4.5594,-4.5594,-4.6124,-4.6201,-4.5633,-4.6163,-4.6201,-4.5594,-4.6471,-4.6885,-4.6885,-4.7702,-4.8086,-4.8086,-4.8086,-4.8394,-3.8948,-4.1864,-4.4766,-4.7698,-4.9627,-5.0875,-5.1169,-5.0949,-5.0248,-4.8773,-4.6844,-4.5125,-4.4285,-4.3248,-4.343,-4.6295,-4.7507,-4.9069,-5.1956,-5.1589,-5.0562,-4.9334,-4.8397,0.0,0.0,0.0,0.0,-5.1743,-5.381,-5.5043,-5.5043,-5.5389,-5.55,-5.528,-5.4436,-5.3995,-5.4069,-5.4289,-5.4546,-5.484,-5.4546,-5.4142,-5.3628,-5.3335,-5.3203,-5.3203,-5.3203,-5.2747,-5.194,-5.1426,-5.0729,-4.9921,-4.9114,-4.8746,-4.871,-4.8416,-4.8306,-4.8306,-4.8306,-4.8306,-4.8382,-4.8761,-4.864,-4.8401,-4.8779,-4.8252,-4.7516,-4.7516,-4.7457,-4.7495,-4.8,-4.8002,-4.8088,-4.8884,-4.8478,-4.8125,-4.8705,-4.802,-4.7432,-4.774,-4.7086,-4.6471,-4.6471,-4.624,-4.597,-4.5633,-4.5594,-4.5594,-4.5594,-4.5594,-4.5594,-4.5594,-4.5594,-4.5594,-4.5594,-4.5594,-4.5748,-4.6047,-4.6586,-4.6778,-4.6509,-4.7048,-4.7086,-4.6509,-4.7355,-4.7778,-4.7817,-4.8625,-4.9048,-4.9048,-4.9048,-4.9317,-4.0953,-4.4108,-4.672,-5.0065,-5.0875,-5.1059,-5.172,-4.9958,-4.7824,-4.6537,-4.447,-4.2523,0.0,0.0,-4.205,-4.3999,-4.5076,-4.6888,-5.0378,-4.8874,-4.825,0.0,0.0,0.0,0.0,0.0,0.0,-5.1486,0.0,-5.612,-5.6231,-5.5818,-5.5978,-5.6785,-5.4546,-5.4069,-5.5574,-5.4876,-5.4913,-5.5669,-5.484,-5.4436,-5.4363,-5.3592,-5.3203,-5.3203,-5.3203,-5.2747,-5.1977,-5.1977,-5.1499,-5.0655,-4.9904,-4.9537,-4.9334,-4.86,-4.8306,-4.8306,-4.8306,-4.8306,-4.8382,-4.8761,-4.864,-4.8364,-4.8813,-4.864,-4.8306,-4.8363,-4.864,-4.8911,-4.8911,-4.9234,-4.9518,-4.9518,-4.9174,-4.9108,-4.9945,-4.9099,-4.8394,-4.924,-4.8702,-4.8086,-4.8086,-4.7432,-4.6624,-4.5787,-4.5633,-4.5594,-4.5594,-4.5594,-4.5594,-4.5594,-4.5594,-4.5594,-4.5594,-4.5594,-4.597,-4.6846,-4.6923,-4.7308,-4.8086,-4.8125,-4.8163,-4.8086,-4.8971,-4.9394,-4.9394,-5.0289,-5.0712,-5.0712,-5.0712,-5.0712,-4.4931,-4.8065,-5.0558,-5.1463,-5.1683,-5.1426,-5.0455,-4.819,-4.5677,-4.3524,-3.9986,-3.7019,0.0,0.0,0.0,-4.0996,-4.3962,0.0,-5.1132,-5.1683,0.0,-5.0875,0.0,-5.0692,-5.0508,-5.1507,0.0,0.0,-5.4246,-5.5365,-5.658,-5.5992,-5.5978,-5.6785,-5.5611,-5.517,-5.5596,-5.5978,-5.6308,-5.6492,-5.5684,-5.4987,-5.4363,-5.3592,-5.3203,-5.3203,-5.3203,-5.2747,-5.1977,-5.1977,-5.1189,-4.9904,-4.9684,-4.9187,-4.86,-4.8379,-4.8306,-4.8306,-4.8306,-4.8306,-4.8382,-4.8761,-4.864,-4.8421,-4.9123,-4.8864,-4.8421,-4.9048,-4.9265,-4.9341,-4.9341,-4.9645,-4.9949,-4.9949,-4.986,-4.9904,-5.0445,-4.9769,-4.9125,-4.9356,-4.8702,-4.8086,-4.8086,-4.7432,-4.6808,-4.6586,-4.6009,-4.5594,-4.5594,-4.5594,-4.5594,-4.5594,-4.5594,-4.5594,-4.5594,-4.5594,-4.597,-4.6846,-4.7471,-4.7894,-4.8086,-4.8702,-4.8779,-4.8125,-4.8971,-4.9394,-4.9394,-5.0289,-5.0712,-5.0712,-5.0712,-5.0712,-4.8028,-5.0582,-5.2527,-5.2527,-5.172,-5.0378,-4.8224,-4.5588,-4.2505,-3.8959,-3.6124,0.0,0.0,0.0,0.0,0.0,0.0,0.0,-5.0325,-5.1279,-5.1793,0.0,-5.2454,0.0,-5.2894,-5.3514,-5.4101,0.0,-5.465,-5.52,-5.6472,-5.5926,-5.5978,-5.6785,-5.5684,-5.5244,-5.5596,-5.6418,-5.6969,-5.7336,-5.6528,-5.5721,-5.4913,-5.4106,-5.3555,-5.3203,0.0,-5.2931,-5.2491,-5.216,-5.1483,-5.0602,-4.9867,-4.9317,-4.882,-4.8453,-4.8306,-4.8306,-4.8306,-4.8306,-4.8382,-4.8761,-4.8899,-4.8937,-4.9362,-4.921,-4.8956,-4.9377,-4.9489,-4.9489,-4.9489,-4.9924,-5.0252,-4.9924,-5.0123,-5.0369,-5.044,-5.02,-4.9971,-4.9971,-4.9586,-4.9125,-4.874,-4.8317,-4.774,-4.7,-4.6471,-4.6163,-4.6163,-4.5825,-4.5594,-4.5594,-4.5594,-4.5748,-4.6124,-4.6163,-4.6701,-4.7932,-4.8432,-4.8856,-4.924,-4.9702,-4.974,-4.924,-4.9702,-4.9971,-4.9971,-5.0818,-5.1241,-5.1241,-5.1625,-5.1779,-5.0468,-5.2307,-5.3482,-5.3408,-5.1536,-4.8981,-4.5945,-4.2778,-3.9148,-3.4357,0.0,-3.2067,-3.0396,-3.2235,-3.5006,-3.8015,0.0,-4.4675,-4.9057,-4.9664,-5.0839,-5.4032,-5.3885,-5.4106,-5.5611,-5.5757,-5.5684,-5.5633,-5.5172,-5.53,-5.6209,-5.576,-5.5794,-5.6638,-5.528,-5.495,-5.5757,-5.6455,-5.7189,-5.7997,-5.7079,-5.6271,-5.5596,-5.4656,-5.3849,-5.3203,0.0,0.0,-5.313,-5.2454,-5.2087,-5.1867,-5.0455,-4.9794,-4.95,-4.8746,-4.8416,-4.8306,-4.8306,-4.8306,-4.8382,-4.8692,-4.9178,-4.96,-4.9599,-4.9694,-4.9806,-4.9755,-4.9726,-4.9726,-4.9613,-5.0147,-5.0504,-4.9779,-5.0159,-5.0604,-5.0241,-5.0462,-5.0712,-5.0712,-5.0712,-5.0481,-4.9702,-4.9471,-4.8894,-4.7471,-4.7115,-4.7038,-4.7038,-4.6201,-4.5633,-4.5748,-4.5671,-4.5932,-4.6817,-4.6885,-4.7625,-4.9279,-4.9394,-4.9779,-5.0673,-5.0712,-5.0712,-5.0712,-5.0712,-5.075,-5.0856,-5.1548,-5.1962,-5.2077,-5.2856,-5.3203,-5.247,-5.3959,-5.5023,-5.4363,-5.238,-4.9511,-4.5287,-4.1325,0.0,0.0,0.0,-2.9766,-2.9633,-3.1168,-3.3821,-3.7911,0.0,0.0,0.0,0.0,-5.1536,0.0,0.0,0.0,0.0,0.0,0.0,0.0,0.0,0.0,-5.6625,-5.5361,-5.4987,-5.5757,-5.5537,-5.5794,-5.6602,-5.6748,-5.7189,-5.796,-5.6492,-5.5721,-5.5559,-5.4069,-5.3335,-5.3203,0.0,0.0,-5.3167,-5.3078,-5.2601,-5.1977,-5.1703,-5.0785,-4.9574,-4.9427,-4.893,-4.8306,-4.8306,-4.8306,-4.8306,-4.8364,-4.8897,-4.9597,-4.9889,-5.0517,-5.1051,-5.103,-5.0977,-5.0837,-5.0177,-5.0347,-5.0594,-5.0123,-5.0358,-5.0692,-5.0614,-5.0634,-5.0712,-5.0712,-5.0712,-5.0635,-5.0519,-4.9894,-4.9317,-4.9009,-4.8355,-4.7894,-4.7894,-4.6547,-4.5902,-4.6586,-4.6009,-4.5932,-4.6817,-4.6885,-4.7625,-4.9279,-4.9394,-4.9779,-5.0673,-5.0712,-5.0712,-5.0712,-5.0712,-5.101,-5.1692,-5.1846,-5.2269,-5.2972,-5.3126,-5.3203,-5.0468,-5.2704,-5.5214,-5.354,-5.1286,-4.808,-4.2666,0.0,0.0,0.0,-2.9233,-2.8727,-2.9388,0.0,0.0,0.0,0.0,0.0,0.0,0.0,0.0,0.0,0.0,0.0,0.0,0.0,0.0,0.0,0.0,0.0,-5.55,-5.5207,-5.4987,-5.4987,-5.4987,-5.5354,-5.6161,-5.6161,-5.6565,-5.7373,-5.6602,-5.5794,-5.495,-5.4179,-5.3592,-5.3203,0.0,0.0,-5.3167,-5.2747,-5.2344,-5.194,-5.1536,-5.0912,-5.0215,-5.0215,-4.9958,-4.9591,-4.9591,-4.9591,-4.9591,-4.9591,-4.9848,-5.0225,-5.0409,-5.1208,-5.203,-5.1985,-5.198,-5.1891,-5.151,-5.171,-5.1941,-5.1765,-5.1879,-5.201,-5.201,-5.201,-5.1856,-5.1395,-5.1702,-5.1702,-5.0866,-5.0702,-5.0394,-4.951,-4.9048,-4.8779,-4.8779,-4.7663,-4.7048,-4.7471,-4.7163,-4.724,-4.8125,-4.8202,-4.874,-5.001,-5.0087,-5.025,-5.0673,-5.0712,-5.0712,-5.0712,-5.1125,-5.151,-5.1885,-5.2818,-5.3472,-5.3895,-5.4318,-5.4511,-4.9221,-5.2055,-5.5099,-5.2833,-5.0395,-4.6889,-4.0474,-3.6666,0.0,0.0,-2.7839,-2.8294,-2.9102,0.0,-3.2372,0.0,0.0,0.0,0.0,0.0,0.0,0.0,0.0,0.0,0.0,0.0,0.0,0.0,0.0,0.0,0.0,-5.4987,-5.506,-5.4436,-5.4216,-5.4509,-5.5317,-5.5317,-5.5757,-5.6528,-5.6381,-5.5611,-5.4399,-5.4216,-5.3812,-5.3203,0.0,0.0,0.0,-5.2527,-5.227,-5.2197,-5.1573,-5.1206,-5.1059,-5.1059,-5.0949,-5.0802,-5.0802,-5.0802,-5.0802,-5.0802,-5.0912,-5.1072,-5.1062,-5.1898,-5.2819,-5.276,-5.2792,-5.2857,-5.2742,-5.2943,-5.3203,-5.3203,-5.3203,-5.3203,-5.3203,-5.3203,-5.301,-5.2308,-5.2577,-5.2549,-5.1433,-5.1471,-5.1241,-5.0125,-4.9779,-4.9663,-4.9663,-4.9086,-4.8663,-4.8663,-4.8317,-4.8471,-4.9317,-4.9394,-4.9779,-5.0635,-5.0712,-5.0712,-5.0712,-5.0866,-5.0971,-5.0971,-5.1779,-5.2269,-5.2462,-5.3818,-5.4587,-5.478,-5.5395,-5.5703,-5.2726,-5.4796,-5.534,-5.3532,-5.1217,-4.7567,-4.0655,0.0,0.0,-2.8732,-2.7954,-2.8172,-2.8461,-2.9179,-3.0844,0.0,0.0,0.0,0.0,0.0,0.0,0.0,0.0,0.0,0.0,0.0,0.0,0.0,0.0,0.0,0.0,-5.4473,-5.4473,-5.4399,-5.3702,-5.3702,-5.4509,-5.4509,-5.4913,-5.5684,-5.495,-5.4546,-5.4363,-5.3665,-5.3298,-5.3203,0.0,0.0,0.0,-5.3093,-5.3115,-5.3078,-5.2983,-5.2527,-5.1867,-5.1867,-5.1426,-5.0802,-5.0802,-5.0802,-5.0802,-5.0802,-5.1279,-5.1887,-5.1879,-5.2731,-5.3589,-5.3241,-5.3424,-5.3608,-5.324,-5.3182,-5.3203,-5.3203,-5.3203,-5.3203,-5.3203,-5.3203,-5.3164,-5.3087,-5.25,-5.2231,-5.2856,-5.1779,-5.101,-5.1577,-5.1048,-5.0596,-5.0596,-5.0519,-5.0481,-5.0481,-4.9048,-4.8471,-4.9317,-4.9394,-4.9779,-5.0635,-5.0712,-5.0712,-5.0712,-5.1395,-5.1769,-5.1769,-5.2626,-5.3472,-5.4241,-5.4434,-5.4895,-5.5588,-5.5665,-5.5703,-4.7145,-5.1283,-5.5166,-5.2483,-4.9238,-4.5299,-3.9804,0.0,-3.209,-2.8685,-2.8039,-2.8158,-2.8282,-2.8537,-2.9579,0.0,0.0,0.0,0.0,0.0,0.0,0.0,0.0,0.0,0.0,0.0,0.0,0.0,0.0,0.0,0.0,-5.4142,-5.4179,-5.3702,-5.3849,-5.4069,-5.4399,-5.4399,-5.4546,-5.4876,-5.4546,-5.4142,-5.3665,-5.3371,-5.3203,-5.3203,0.0,0.0,0.0,-5.3203,-5.2931,-5.2527,-5.3004,-5.2711,-5.205,-5.2527,-5.2527,-5.2234,-5.2234,-5.2234,-5.2234,-5.2234,-5.2454,-5.2663,-5.2451,-5.3051,-5.3813,-5.3941,-5.4282,-5.4561,-5.4395,-5.4534,-5.4703,-5.4703,-5.4703,-5.4703,-5.4703,-5.4703,-5.4549,-5.4087,-5.4087,-5.3972,-5.3318,-5.3087,-5.2741,-5.2,-5.1625,-5.1241,-5.075,-5.0712,-5.0712,-5.0712,-5.0087,-4.9817,-5.0164,-5.0625,-5.1048,-5.1395,-5.1895,-5.2202,-5.2202,-5.251,-5.2692,-5.2692,-5.3549,-5.4164,-5.4511,-5.4972,-5.5395,-5.5703,-5.5703,-5.5703,-4.359,-4.8283,-5.2798,-5.0976,-4.7621,-4.3549,0.0,0.0,-3.1002,-2.8641,-2.8322,-2.8478,-2.8556,-2.8768,-2.9474,0.0,0.0,0.0,0.0,0.0,0.0,0.0,0.0,0.0,0.0,0.0,0.0,0.0,0.0,0.0,0.0,0.0,-5.3812,-5.3203,-5.3739,-5.4069,-5.4069,-5.4069,-5.4069,-5.4069,-5.4069,-5.3739,-5.3203,-5.3203,-5.3203,0.0,0.0,0.0,0.0,-5.2931,-5.2637,-5.2417,-5.3004,-5.2858,-5.2417,-5.3004,-5.3203,-5.3203,-5.3203,-5.3203,-5.3203,-5.3203,-5.3203,-5.3141,-5.2879,-5.3161,-5.3739,-5.4322,-5.4862,-5.5262,-5.5262,-5.547,-5.5703,-5.5703,-5.5703,-5.5703,-5.5703,-5.5703,-5.5511,-5.4972,-5.5126,-5.5049,-5.4087,-5.4049,-5.378,-5.2818,-5.2462,-5.201,-5.1164,-5.1279,-5.1318,-5.1087,-5.1279,-5.1318,-5.1087,-5.1818,-5.2269,-5.2269,-5.2856,-5.3203,-5.3203,-5.3433,-5.3587,-5.3587,-5.4434,-5.4857,-5.4857,-5.5434,-5.5703,-5.5703,-5.5703,-5.5703,-4.465,-4.7182,-4.7679,-4.9212,-4.6975,-4.3123,0.0,0.0,-3.0249,-2.8562,-2.882,-2.9405,-2.9405,-2.9976,-3.0835,-3.1895,0.0,0.0,0.0,0.0,0.0,0.0,0.0,0.0,0.0,0.0,0.0,0.0,0.0,0.0,0.0,0.0,-5.3203,-5.3203,-5.3203,-5.3203,-5.3203,-5.3203,-5.3203,-5.3203,-5.3203,-5.3203,-5.3203,-5.3203,0.0,0.0,0.0,0.0,0.0,-5.2344,-5.2491,-5.3167,-5.3203,-5.3167,-5.3167,-5.3203,-5.3203,-5.3203,-5.3203,-5.3203,-5.3203,-5.3203,-5.3203,-5.3203,-5.3188,-5.3188,-5.338,-5.4276,-5.5094,-5.5703,-5.5703,-5.5703,-5.5703,-5.5703,-5.5703,-5.5703,-5.5703,-5.5703,-5.5703,-5.5703,-5.5049,-5.4741,-5.5549,-5.4318,-5.351,-5.4357,-5.3741,-5.2856,-5.2,-5.2654,-5.2856,-5.1962,-5.2654,-5.2818,-5.1962,-5.2702,-5.3203,-5.3203,-5.3203,-5.3203,-5.3203,-5.4049,-5.4472,-5.4472,-5.528,-5.5703,-5.5703,-5.5703,-5.5703,-5.5703,-5.5703,-5.5703,-3.8676,-4.1172,-4.3063,-4.3486,-4.0705,-3.7381,-3.5636,0.0,-2.9623,-2.8455,-2.882,-2.9405,-2.9405,-2.9583,-3.0248,-3.1779,-3.1642,0.0,0.0,0.0,0.0,0.0,0.0,0.0,0.0,0.0,0.0,0.0,0.0,0.0,0.0,0.0,-5.3203,-5.3203,-5.3203,-5.3203,-5.3203,-5.3203,-5.3203,-5.3203,-5.3203,-5.3203,-5.3203,-5.3203,0.0,0.0,0.0,0.0,0.0,-5.2931,-5.2637,-5.2417,-5.3004,-5.2858,-5.2454,-5.3004,-5.3203,-5.3203,-5.3203,-5.3203,-5.3203,-5.3203,-5.3203,-5.3251,-5.3543,-5.3624,-5.3796,-5.4671,-5.5275,-5.5703,-5.5703,-5.5703,-5.5703,-5.5703,-5.5703,-5.5703,-5.5703,-5.5703,-5.5703,-5.5703,-5.5472,-5.5395,-5.5665,-5.5241,-5.4818,-5.4549,-5.428,-5.378,-5.2895,-5.3049,-5.3087,-5.2818,-5.3587,-5.3741,-5.2856,-5.3587,-5.4087,-5.4087,-5.4587,-5.4895,-5.4895,-5.5164,-5.5318,-5.5318,-5.5549,-5.5703,-5.5703,-5.5703,-5.5703,-5.5703,-5.5703,-5.6011,-3.5039,-3.722,-3.9155,-3.9729,-3.7452,0.0,0.0,0.0,-2.8909,-2.8367,-2.8903,-2.949,-2.949,-2.9803,-3.039,-3.1384,-3.1532,0.0,0.0,0.0,0.0,0.0,0.0,0.0,0.0,0.0,0.0,0.0,0.0,0.0,0.0,0.0,-5.3203,-5.3203,-5.3203,-5.3203,-5.3203,-5.3203,-5.3203,-5.3203,-5.3203,-5.3203,-5.3203,0.0,0.0,0.0,0.0,0.0,0.0,-5.2564,-5.238,-5.2491,-5.3004,-5.2894,-5.2527,-5.3041,-5.3314,-5.3424,-5.3424,-5.3543,-5.3682,-5.3682,-5.3682,-5.3777,-5.4187,-5.4284,-5.4398,-5.4947,-5.5399,-5.5703,-5.5703,-5.5703,-5.5703,-5.5703,-5.5703,-5.5703,-5.5703,-5.5703,-5.5703,-5.5703,-5.5703,-5.5703,-5.5703,-5.5703,-5.5511,-5.5011,-5.4934,-5.4664,-5.3818,-5.3972,-5.4049,-5.3703,-5.4434,-5.4741,-5.4203,-5.4626,-5.4934,-5.4934,-5.5434,-5.5703,-5.5703,-5.5703,-5.5703,-5.5703,-5.5703,-5.5703,-5.5703,-5.6011,-5.6357,-5.6665,-5.6665,-5.6973,0.0,-3.4743,-3.5665,-3.7337,-3.6347,-3.4411,-3.2283,0.0,0.0,-2.8327,-2.9013,-2.9587,-2.9659,-3.0509,-3.1124,-3.0994,-3.1783,0.0,0.0,0.0,0.0,0.0,0.0,0.0,0.0,0.0,0.0,0.0,0.0,0.0,0.0,0.0,0.0,-5.3203,-5.3203,-5.3203,-5.3203,-5.3203,-5.3203,-5.3203,-5.313,-5.313,-5.3203,0.0,0.0,0.0,0.0,0.0,0.0,-5.1573,-5.183,-5.3093,-5.3167,-5.3203,-5.3203,-5.3203,-5.3424,-5.3777,-5.3777,-5.4048,-5.4452,-5.4468,-5.45,-5.4609,-5.5012,-5.5107,-5.5121,-5.5147,-5.5411,-5.5703,-5.5703,-5.5703,-5.5703,-5.5703,-5.5703,-5.5703,-5.5703,-5.5703,-5.5703,-5.5703,-5.5703,-5.5703,-5.5703,-5.5703,-5.5703,-5.5703,-5.5703,-5.5434,-5.4664,-5.5241,-5.5395,-5.4664,-5.5241,-5.5703,-5.5703,-5.5703,-5.5703,-5.5703,-5.5703,-5.5703,-5.5703,-5.5703,-5.5703,-5.5703,-5.5742,-5.578,-5.578,-5.6676,-5.7511,-5.8319,-5.8319,-5.8319,-2.957,0.0,-3.0312,-3.1326,-3.0729,-2.9854,0.0,-2.8963,0.0,0.0,0.0,0.0,0.0,0.0,-3.1295,0.0,0.0,0.0,0.0,0.0,0.0,0.0,0.0,0.0,0.0,0.0,0.0,0.0,0.0,0.0,0.0,0.0,0.0,-5.3203,-5.3203,-5.3203,-5.3203,-5.3203,-5.3203,-5.3167,-5.2564,-5.2601,-5.3167,0.0,0.0,0.0,0.0,0.0,-5.2307,-5.2527,-5.2491,-5.2344,-5.2968,-5.3203,-5.3203,-5.3203,-5.3251,-5.3339,-5.3339,-5.3604,-5.4013,-5.4371,-5.4701,-5.496,-5.508,-5.5107,-5.5173,-5.5458,-5.5621,-5.5703,-5.5703,-5.5703,-5.5703,-5.5703,-5.5703,-5.5703,-5.5703,-5.5703,-5.5703,-5.5703,-5.5703,-5.5703,-5.5703,-5.5703,-5.5703,-5.5703,-5.5703,-5.5626,-5.5434,-5.5588,-5.5626,-5.5434,-5.5588,-5.5703,-5.5703,-5.5703,-5.5703,-5.5703,-5.5703,-5.5703,-5.5703,-5.5703,-5.5703,-5.5703,-5.6368,-5.6676,-5.6714,-5.755,-5.8088,-5.8319,-5.8319,-5.8627,-2.8286,-2.8559,-2.8945,-2.9297,-2.9048,-2.8799,-2.9147,0.0,0.0,0.0,0.0,0.0,0.0,0.0,0.0,0.0,0.0,0.0,0.0,0.0,0.0,0.0,0.0,0.0,0.0,0.0,0.0,0.0,0.0,0.0,0.0,0.0,0.0,0.0,-5.3004,-5.3041,-5.2637,-5.3041,-5.3004,-5.2637,-5.2564,-5.2601,-5.2637,0.0,0.0,0.0,0.0,0.0,-5.1463,-5.1536,-5.1845,-5.2301,-5.2557,-5.3128,-5.3777,-5.3526,-5.3758,-5.4031,-5.3851,-5.4048,-5.443,-5.4701,-5.5067,-5.5387,-5.5387,-5.5387,-5.5423,-5.5621,-5.5703,-5.5703,-5.5703,-5.5703,-5.5703,-5.5703,-5.5703,-5.5703,-5.5703,-5.5703,-5.5703,-5.5703,-5.5703,-5.5703,-5.5703,-5.5703,-5.5703,-5.5703,-5.5703,-5.5703,-5.5703,-5.5703,-5.5703,-5.5703,-5.6049,-5.6126,-5.5742,-5.6049,-5.6126,-5.5742,-5.5703,-5.5703,-5.5703,-5.5703,-5.5895,-5.6291,-5.6753,-5.7368,-5.8165,-5.8627,-5.905,-5.9435,-5.9435,-5.9665,-2.8411,-2.8911,-2.939,-2.9191,-2.9233,-2.9326,-2.9062,0.0,0.0,0.0,0.0,0.0,0.0,0.0,0.0,0.0,0.0,0.0,0.0,0.0,0.0,0.0,0.0,0.0,0.0,0.0,0.0,0.0,0.0,0.0,0.0,0.0,0.0,0.0,-5.2601,-5.2637,-5.183,-5.2747,-5.2821,-5.2013,-5.2564,-5.2527,-5.1977,-5.1777,0.0,0.0,0.0,0.0,-5.0582,-5.0056,-5.0786,-5.2213,-5.2192,-5.305,-5.4285,-5.4011,-5.4366,-5.4947,-5.4686,-5.4804,-5.5121,-5.5173,-5.5423,-5.5703,-5.5703,-5.5703,-5.5703,-5.5703,-5.5703,-5.5703,-5.5703,-5.5703,-5.5703,-5.5703,-5.5703,-5.5703,-5.5703,-5.5703,-5.5703,-5.5703,-5.5703,-5.5703,-5.5703,-5.5703,-5.5703,-5.5703,-5.5703,-5.5703,-5.5703,-5.5703,-5.5742,-5.5857,-5.656,-5.6753,-5.6165,-5.678,-5.6868,-5.6126,-5.5972,-5.5972,-5.6088,-5.6088,-5.6434,-5.7176,-5.733,-5.8088,-5.9511,-5.9627,-6.0089,-6.0781,-6.0781,-6.0781,-2.9138,-2.9219,-2.9033,-2.8506,-2.8799,-2.9062,-2.8436,0.0,0.0,0.0,0.0,0.0,0.0,0.0,0.0,0.0,0.0,0.0,0.0,0.0,0.0,0.0,0.0,0.0,0.0,0.0,0.0,0.0,0.0,0.0,0.0,0.0,0.0,0.0,0.0,-5.1793,-5.0986,-5.2454,-5.2821,-5.1977,-5.1426,-5.1463,-5.194,-5.0602,-5.0251,0.0,0.0,-5.0288,-4.985,-5.0713,-5.0839,-5.0646,-5.2336,-5.3172,-5.3472,-5.414,-5.4468,-5.4625,-5.4905,-5.5067,-5.516,-5.552,-5.5632,-5.5703,-5.5703,-5.5703,-5.5703,-5.5703,-5.5703,-5.5703,-5.5703,-5.5703,-5.5703,-5.5703,-5.5703,-5.5703,-5.5703,-5.5703,-5.5703,-5.5703,-5.5703,-5.5703,-5.5703,-5.5703,-5.5703,-5.5703,-5.5703,-5.5703,-5.5703,-5.5703,-5.5972,-5.6714,-5.6907,-5.7253,-5.7857,-5.8011,-5.805,-5.7896,-5.7203,-5.7126,-5.7857,-5.7896,-5.7973,-5.8088,-5.8781,-5.9242,-5.9511,-6.0242,-6.0666,-6.0781,-6.0781,-6.0781,-2.8711,-2.8905,-2.9243,-3.0019,-3.0105,-2.9919,0.0,0.0,0.0,0.0,0.0,0.0,0.0,0.0,0.0,0.0,0.0,0.0,0.0,0.0,0.0,0.0,0.0,0.0,0.0,0.0,0.0,0.0,0.0,0.0,0.0,0.0,0.0,0.0,0.0,0.0,-4.9481,-5.1096,-5.172,-5.1353,-5.1426,-5.1169,-5.0675,-4.9941,-4.9517,0.0,0.0,-4.926,-4.8969,-4.9674,-5.0206,-5.06,-5.203,-5.3115,-5.3989,-5.4842,-5.4988,-5.4757,-5.4506,-5.4726,-5.5057,-5.4752,-5.5148,-5.5703,-5.5703,-5.5703,-5.5703,-5.5703,-5.5703,-5.5703,-5.5703,-5.5703,-5.5703,-5.5703,-5.5703,-5.5703,-5.5703,-5.5703,-5.5703,-5.5703,-5.5703,-5.5703,-5.5703,-5.5703,-5.5703,-5.5703,-5.5703,-5.5703,-5.5703,-5.5703,-5.6011,-5.6907,-5.7434,-5.7857,-5.828,-5.8704,-5.8781,-5.8319,-5.7934,-5.7896,-5.828,-5.8319,-5.8511,-5.8934,-5.9319,-5.9742,-6.0204,-6.0589,-6.0781,-6.0781,-6.0781,-6.0781,-2.8724,-2.8934,-2.9444,-3.0936,0.0,0.0,0.0,0.0,0.0,0.0,0.0,0.0,0.0,0.0,0.0,0.0,0.0,0.0,0.0,0.0,0.0,0.0,0.0,0.0,0.0,0.0,0.0,0.0,0.0,0.0,0.0,0.0,0.0,0.0,0.0,0.0,-4.8636,-4.9884,-5.0508,-5.0545,-5.1132,-5.0785,-4.961,-4.939,-4.893,-4.8306,-4.8306,-4.8306,-4.8344,-4.8847,-4.9609,-5.0589,-5.1594,-5.287,-5.428,-5.4895,-5.5059,-5.4842,-5.4193,-5.4537,-5.5123,-5.446,-5.4898,-5.5703,-5.5703,-5.5703,-5.5703,-5.5703,-5.5703,-5.5703,-5.5703,-5.5703,-5.5703,-5.5703,-5.5703,-5.5703,-5.5703,-5.5703,-5.5703,-5.5703,-5.5703,-5.5703,-5.5703,-5.5703,-5.5703,-5.5703,-5.5703,-5.5703,-5.5703,-5.5857,-5.6319,-5.7214,-5.8088,-5.8665,-5.8858,-5.9435,-5.955,-5.8934,-5.8704,-5.8665,-5.8896,-5.8896,-5.9165,-5.9781,-5.9819,-6.0127,-6.0781,-6.0781,-6.0781,-6.0781,-6.0781,-6.0781,-3.0287,-3.0054,-2.9412,-2.9526,-2.9476,0.0,-3.5509,-3.4882,0.0,-3.5937,0.0,0.0,0.0,0.0,0.0,0.0,0.0,0.0,0.0,0.0,0.0,0.0,0.0,0.0,0.0,0.0,0.0,0.0,0.0,0.0,0.0,0.0,0.0,0.0,0.0,0.0,-4.95,-4.9647,-4.9684,-4.9684,-4.9757,-4.9721,-4.9574,-4.8746,-4.8379,-4.8306,-4.8306,-4.8306,-4.8382,-4.9123,-4.9512,-4.9764,-5.1308,-5.2469,-5.3318,-5.3356,-5.3885,-5.4517,-5.4479,-5.4979,-5.5632,-5.5594,-5.5615,-5.5703,-5.5703,-5.5703,-5.5703,-5.5703,-5.5703,-5.5703,-5.5703,-5.5703,-5.5703,-5.5703,-5.5703,-5.5703,-5.5703,-5.5703,-5.5703,-5.5703,-5.5703,-5.5703,-5.5703,-5.5703,-5.5703,-5.5703,-5.5703,-5.5703,-5.5703,-5.6406,-5.7253,-5.8127,-5.8934,-5.9742,-6.055,-6.0666,-6.0666,-6.0627,-5.9858,-5.9781,-6.0589,-6.0627,-6.0666,-6.0704,-6.0704,-6.0742,-6.0781,-6.0781,-6.0781,-6.0781,-6.0781,-6.0781,-2.9107,-3.0112,-3.1139,-3.1708,-3.1815,0.0,0.0,-3.6084,-3.7046,-3.8449,0.0,0.0,0.0,0.0,0.0,0.0,0.0,0.0,0.0,0.0,0.0,0.0,0.0,0.0,0.0,0.0,0.0,0.0,0.0,0.0,0.0,0.0,0.0,0.0,0.0,0.0,0.0,-4.8783,-4.8783,-4.8783,-4.9353,-4.9317,-4.8783,-4.8453,-4.8306,-4.8306,-4.8306,-4.8306,-4.8309,-4.8593,-4.8999,-4.9651,-5.1288,-5.2423,-5.3203,-5.3203,-5.3395,-5.3626,-5.3087,-5.378,-5.4857,-5.4318,-5.4857,-5.5703,-5.5703,-5.5703,-5.5703,-5.5703,-5.5703,-5.5703,-5.5703,-5.5703,-5.5703,-5.5703,-5.5703,-5.5703,-5.5703,-5.5703,-5.5703,-5.5703,-5.5703,-5.5703,-5.5703,-5.5703,-5.5703,-5.5703,-5.5703,-5.5895,-5.6445,-5.6791,-5.7522,-5.8896,-5.9781,-6.0435,-6.0781,-6.0781,-6.0781,-6.0781,-6.0473,-6.0473,-6.0781,-6.0781,-6.0781,-6.0781,-6.0781,-6.0781,-6.0781,-6.0781,-6.0781,-6.0781,-6.0781,-6.0781,-2.8649,-2.9966,-3.1526,-3.2343,0.0,0.0,-3.608,-3.7166,-3.8439,-4.0846,0.0,0.0,0.0,0.0,0.0,0.0,0.0,0.0,0.0,0.0,0.0,0.0,0.0,0.0,0.0,0.0,0.0,0.0,0.0,0.0,0.0,0.0,0.0,0.0,0.0,0.0,0.0,-4.7535,-4.7535,-4.7572,-4.8159,-4.8233,-4.792,-4.8196,-4.8012,-4.7572,-4.7829,-4.7831,-4.772,-4.7777,-4.8459,-4.9619,-5.0971,-5.1895,-5.2395,-5.2395,-5.2587,-5.2731,-5.2423,-5.328,-5.4434,-5.4087,-5.478,-5.5703,-5.5703,-5.5703,-5.5703,-5.5703,-5.5703,-5.5703,-5.5703,-5.5703,-5.5703,-5.5703,-5.5703,-5.5703,-5.5703,-5.5703,-5.5703,-5.5703,-5.5703,-5.5703,-5.5703,-5.5703,-5.5703,-5.5703,-5.5934,-5.6329,-5.6907,-5.7445,-5.8319,-5.9742,-6.0435,-6.0781,-6.0781,-6.0781,-6.0781,-6.0781,-6.0781,-6.0781,-6.0781,-6.0781,-6.0781,-6.0781,-6.0781,-6.0935,-6.1204,-6.1204,-6.132,-6.1589,-6.1589,-6.1589,-2.9395,-2.9821,-3.0145,0.0,0.0,0.0,-3.9913,-3.8328,-3.7651,0.0,0.0,0.0,0.0,0.0,0.0,0.0,0.0,0.0,0.0,0.0,0.0,0.0,0.0,0.0,0.0,0.0,0.0,0.0,0.0,0.0,0.0,0.0,0.0,0.0,0.0,0.0,0.0,-4.5883,-4.5883,-4.5883,-4.5883,-4.6324,-4.7113,-4.7883,-4.7425,-4.5957,-4.6746,-4.6816,-4.644,-4.6844,-4.7957,-4.9471,-5.0366,-5.0712,-5.0712,-5.0712,-5.1202,-5.2,-5.2895,-5.3741,-5.4626,-5.5395,-5.5665,-5.5703,-5.5703,-5.5703,-5.5703,-5.5703,-5.5703,-5.5703,-5.5703,-5.5703,-5.5703,-5.5703,-5.5703,-5.5703,-5.5703,-5.5703,-5.5703,-5.5703,-5.5703,-5.5703,-5.5703,-5.5703,-5.5703,-5.5703,-5.6445,-5.7022,-5.7022,-5.8473,-5.9858,-6.0704,-6.0781,-6.0781,-6.0781,-6.0781,-6.0781,-6.0781,-6.0781,-6.0781,-6.0781,-6.0781,-6.0781,-6.0781,-6.0781,-6.1243,-6.2101,-6.2101,-6.2512,-6.3308,-6.3308,-6.3308,-2.8563,-3.0223,0.0,0.0,0.0,0.0,0.0,-3.9723,0.0,0.0,0.0,0.0,0.0,0.0,0.0,0.0,0.0,0.0,0.0,0.0,0.0,0.0,0.0,0.0,0.0,0.0,0.0,0.0,0.0,0.0,0.0,0.0,0.0,0.0,0.0,0.0,0.0,0.0,-4.5883,-4.5883,-4.5883,-4.603,-4.625,-4.6507,-4.6361,-4.592,-4.614,-4.6318,-4.651,-4.7764,-4.8334,-4.8625,-5.0125,-5.0712,-5.0712,-5.0712,-5.0856,-5.1087,-5.1356,-5.1972,-5.2692,-5.2972,-5.3857,-5.4857,-5.4857,-5.5241,-5.5703,-5.5703,-5.5703,-5.5703,-5.5703,-5.5703,-5.5703,-5.5703,-5.5703,-5.5703,-5.5703,-5.5703,-5.5703,-5.5703,-5.5703,-5.5703,-5.5703,-5.6214,-5.6599,-5.6599,-5.7357,-5.8127,-5.8704,-5.9742,-6.0512,-6.0781,-6.0781,-6.0781,-6.0781,-6.0781,-6.0781,-6.0781,-6.0781,-6.0781,-6.0781,-6.0781,-6.0781,-6.0781,-6.0781,-6.1243,-6.2101,-6.2101,-6.2512,-6.3308,-6.3308,-6.3308,-2.8684,0.0,0.0,0.0,0.0,0.0,0.0,0.0,0.0,0.0,0.0,0.0,0.0,0.0,0.0,0.0,0.0,0.0,0.0,0.0,0.0,0.0,0.0,0.0,0.0,0.0,0.0,0.0,0.0,0.0,0.0,0.0,0.0,0.0,0.0,0.0,0.0,0.0,0.0,-4.4929,-4.4929,-4.5035,-4.5154,-4.5679,-4.5553,-4.4965,-4.5271,-4.5565,-4.5998,-4.7445,-4.7893,-4.7778,-4.951,-5.0164,-5.025,-5.0558,-5.0712,-5.075,-5.1048,-5.151,-5.1962,-5.2308,-5.3126,-5.3972,-5.3972,-5.4318,-5.4703,-5.4703,-5.4703,-5.478,-5.5126,-5.5203,-5.528,-5.5626,-5.5703,-5.5703,-5.5703,-5.5703,-5.5703,-5.5703,-5.5972,-5.6214,-5.6214,-5.6934,-5.7511,-5.7511,-5.8242,-5.9088,-5.9896,-6.0473,-6.0781,-6.0781,-6.0781,-6.0781,-6.0781,-6.1127,-6.132,-6.132,-6.132,-6.132,-6.132,-6.0973,-6.0973,-6.132,-6.132,-6.1897,-6.3089,-6.3089,-6.3512,-6.432,-6.432,-6.432,-2.9399,0.0,0.0,0.0,0.0,0.0,0.0,0.0,0.0,0.0,0.0,0.0,0.0,0.0,0.0,0.0,0.0,0.0,0.0,0.0,0.0,0.0,0.0,0.0,0.0,0.0,0.0,0.0,0.0,0.0,0.0,0.0,0.0,0.0,0.0,0.0,0.0,0.0,0.0,0.0,-4.358,-4.3758,-4.4102,-4.5193,-4.4873,-4.358,-4.4313,-4.48,-4.5175,-4.6407,-4.6885,-4.7038,-4.8663,-4.9279,-4.9394,-5.025,-5.0596,-5.0712,-5.151,-5.1769,-5.1923,-5.2702,-5.301,-5.3087,-5.3087,-5.3126,-5.3203,-5.3203,-5.3203,-5.3395,-5.428,-5.4511,-5.4703,-5.5511,-5.5703,-5.5703,-5.5703,-5.5703,-5.5703,-5.5703,-5.6406,-5.6983,-5.6983,-5.778,-5.8434,-5.8511,-5.9165,-5.9896,-6.0704,-6.0781,-6.0781,-6.0781,-6.0781,-6.0781,-6.0781,-6.1601,-6.2101,-6.2101,-6.2178,-6.2216,-6.2216,-6.1281,-6.1204,-6.2101,-6.2101,-6.2897,-6.4589,-6.4589,-6.5051,-6.5897,-6.5897,-6.5897,0.0,-3.1197,0.0,0.0,0.0,0.0,0.0,0.0,0.0,0.0,0.0,0.0,0.0,0.0,0.0,0.0,0.0,0.0,0.0,0.0,0.0,0.0,0.0,0.0,0.0,0.0,0.0,0.0,0.0,0.0,0.0,0.0,0.0,0.0,0.0,0.0,-4.3515,-4.3775,-4.3896,0.0,-4.419,-4.4425,-4.4465,-4.4161,-4.3996,-4.3927,-4.4373,-4.48,-4.5175,-4.6407,-4.6885,-4.7,-4.8009,-4.8394,-4.8509,-4.9356,-4.9663,-4.9779,-5.0664,-5.0971,-5.0971,-5.1164,-5.1664,-5.2192,-5.2192,-5.2654,-5.3203,-5.3203,-5.3203,-5.3395,-5.428,-5.4511,-5.4703,-5.5511,-5.5703,-5.5703,-5.5703,-5.5703,-5.5703,-5.5703,-5.6406,-5.6983,-5.6983,-5.8242,-5.9473,-6.0165,-6.0396,-6.0589,-6.0781,-6.0781,-6.0781,-6.0781,-6.0781,-6.0781,-6.0781,-6.1601,-6.2101,-6.2101,-6.2704,-6.3051,-6.3051,-6.1589,-6.1204,-6.2101,-6.2101,-6.2897,-6.4589,-6.4589,-6.5051,-6.5897,-6.5897,-6.5897,0.0,0.0,0.0,0.0,0.0,0.0,0.0,0.0,0.0,0.0,0.0,0.0,0.0,0.0,0.0,0.0,0.0,0.0,0.0,0.0,0.0,0.0,0.0,0.0,0.0,0.0,0.0,0.0,0.0,0.0,0.0,0.0,0.0,0.0,0.0,0.0,-4.3742,-4.3927,-4.4087,-4.429,-4.4482,-4.4612,-4.4599,-4.4213,-4.419,-4.4548,-4.4726,-4.5022,-4.5409,-4.6032,-4.6278,-4.6355,-4.7201,-4.7548,-4.7625,-4.8471,-4.8779,-4.8856,-4.9317,-4.974,-5.0087,-5.0087,-5.0625,-5.1318,-5.1318,-5.1625,-5.201,-5.201,-5.201,-5.2279,-5.3549,-5.3895,-5.4203,-5.5395,-5.5703,-5.5703,-5.5703,-5.5703,-5.5818,-5.6252,-5.7011,-5.7742,-5.8127,-5.9281,-6.0281,-6.0742,-6.0781,-6.0781,-6.0781,-6.0781,-6.0781,-6.0781,-6.0781,-6.0973,-6.1408,-6.2204,-6.2858,-6.3281,-6.3705,-6.3935,-6.3935,-6.2666,-6.2397,-6.3281,-6.3281,-6.3935,-6.5205,-6.5205,-6.5474,-6.5897,-6.5897,-6.5897,0.0,0.0,0.0,0.0,0.0,0.0,0.0,0.0,0.0,0.0,0.0,0.0,0.0,0.0,0.0,0.0,0.0,0.0,0.0,0.0,0.0,0.0,0.0,0.0,0.0,0.0,0.0,0.0,0.0,0.0,0.0,0.0,0.0,0.0,0.0,-4.3459,-4.3811,-4.3834,-4.4065,-4.4462,-4.4372,-4.4397,-4.4549,-4.4549,-4.4744,-4.5115,-4.5115,-4.5283,-4.5594,-4.5594,-4.5594,-4.5671,-4.6394,-4.6701,-4.6778,-4.7586,-4.7894,-4.7932,-4.824,-4.8817,-4.9433,-4.9586,-5.0087,-5.0712,-5.0712,-5.0712,-5.0712,-5.0712,-5.0712,-5.1097,-5.2779,-5.3203,-5.3626,-5.528,-5.5703,-5.5703,-5.5703,-5.5818,-5.6137,-5.6868,-5.7819,-5.8781,-5.9588,-6.0319,-6.0781,-6.0781,-6.0781,-6.0781,-6.0781,-6.0781,-6.0781,-6.0781,-6.0935,-6.132,-6.2062,-6.2974,-6.382,-6.4551,-6.4743,-6.482,-6.482,-6.4128,-6.4089,-6.482,-6.4666,-6.5013,-6.5897,-6.5897,-6.5897,-6.5897,-6.5897,-6.5897,0.0,0.0,0.0,0.0,0.0,0.0,0.0,0.0,0.0,0.0,0.0,0.0,0.0,0.0,0.0,0.0,0.0,0.0,0.0,0.0,0.0,0.0,0.0,0.0,0.0,0.0,0.0,0.0,0.0,0.0,0.0,0.0,-4.2103,-4.1279,-4.2029,0.0,-4.2969,-4.323,-4.358,-4.3896,-4.3494,-4.3682,-4.4334,-4.4334,-4.4614,-4.5115,-4.5115,-4.5283,-4.5594,-4.5594,-4.5594,-4.5594,-4.5748,-4.5787,-4.5902,-4.674,-4.7038,-4.7278,-4.8702,-4.9317,-4.951,-5.0289,-5.0596,-5.0712,-5.0712,-5.0712,-5.0712,-5.0712,-5.0712,-5.1097,-5.2779,-5.3203,-5.3626,-5.528,-5.5703,-5.5703,-5.5703,-5.6291,-5.6868,-5.6983,-5.828,-5.9627,-6.0473,-6.0704,-6.0781,-6.0781,-6.0781,-6.0781,-6.0781,-6.0781,-6.0781,-6.0781,-6.1485,-6.1985,-6.2101,-6.3512,-6.4474,-6.4589,-6.532,-6.5743,-6.5743,-6.559,-6.559,-6.5705,-6.4974,-6.5013,-6.5897,-6.5897,-6.5897,-6.5897,-6.5897,-6.5897,-2.883,0.0,0.0,0.0,0.0,0.0,0.0,0.0,0.0,0.0,0.0,0.0,0.0,0.0,0.0,0.0,0.0,0.0,0.0,0.0,0.0,0.0,0.0,0.0,0.0,0.0,0.0,0.0,0.0,0.0,0.0,-4.1368,-4.1258,-4.0451,-4.1222,0.0,-4.2126,-4.2457,-4.2876,-4.3426,-4.3188,-4.3278,-4.3624,-4.4085,-4.4687,-4.539,-4.539,-4.5457,-4.5594,-4.5594,-4.5594,-4.5594,-4.5594,-4.5594,-4.5633,-4.6009,-4.6163,-4.6278,-4.7009,-4.7894,-4.874,-4.9125,-4.9894,-5.0712,-5.0712,-5.0712,-5.0712,-5.0712,-5.101,-5.1664,-5.2895,-5.3549,-5.4241,-5.5434,-5.5703,-5.5703,-5.5703,-5.6368,-5.7291,-5.8204,-5.9396,-6.0358,-6.0742,-6.0781,-6.0781,-6.0781,-6.0781,-6.0781,-6.0781,-6.0781,-6.0781,-6.0781,-6.1601,-6.2281,-6.2743,-6.3897,-6.482,-6.5282,-6.5705,-6.5897,-6.5897,-6.5897,-6.5897,-6.5897,-6.5513,-6.5513,-6.5897,-6.5897,-6.5897,-6.5897,-6.5897,-6.5897,0.0,0.0,0.0,0.0,0.0,0.0,0.0,0.0,0.0,0.0,0.0,0.0,0.0,0.0,0.0,0.0,0.0,0.0,0.0,0.0,0.0,0.0,0.0,0.0,0.0,0.0,0.0,0.0,0.0,0.0,-3.9937,-4.0267,-4.023,-3.9606,-4.0194,-4.0729,-4.1269,-4.1695,-4.2079,-4.2431,-4.2431,-4.2547,-4.2816,-4.3624,-4.447,-4.5287,-4.5518,-4.5594,-4.5594,-4.5594,-4.5594,-4.5594,-4.5594,-4.5594,-4.5594,-4.5594,-4.5594,-4.5633,-4.5855,-4.674,-4.7855,-4.8279,-4.9317,-5.0404,-5.0635,-5.0712,-5.0712,-5.0712,-5.1125,-5.1856,-5.2933,-5.3664,-5.4434,-5.5472,-5.5703,-5.5818,-5.628,-5.6857,-5.7819,-5.9511,-6.0358,-6.0781,-6.0781,-6.0781,-6.0781,-6.0781,-6.0781,-6.0781,-6.0781,-6.0781,-6.0781,-6.0781,-6.1743,-6.2666,-6.3231,-6.432,-6.5205,-6.5859,-6.5897,-6.5897,-6.5897,-6.5897,-6.5897,-6.5897,-6.5897,-6.5897,-6.5897,-6.609,-6.6205,-6.6205,-6.6205,-6.632,0.0,0.0,0.0,0.0,0.0,0.0,0.0,0.0,0.0,0.0,0.0,0.0,0.0,0.0,0.0,0.0,0.0,0.0,0.0,0.0,0.0,0.0,0.0,0.0,0.0,0.0,0.0,0.0,0.0,0.0,-3.9937,-3.9239,-3.8799,-3.8762,-3.8799,-3.9342,-4.0463,-4.1052,-4.1083,-4.0631,-4.0631,-4.1085,-4.1885,-4.2777,-4.3585,-4.4393,-4.5248,-4.5594,-4.5594,-4.5594,-4.5594,-4.5594,-4.5594,-4.5594,-4.5594,-4.5594,-4.5594,-4.571,-4.6547,-4.6885,-4.724,-4.8817,-4.9394,-4.9625,-5.0442,-5.0712,-5.0712,-5.0712,-5.075,-5.1125,-5.2779,-5.3241,-5.3664,-5.5318,-5.5703,-5.6165,-5.7819,-5.8204,-5.8742,-6.0396,-6.0781,-6.0781,-6.0781,-6.0781,-6.0781,-6.0781,-6.0781,-6.0781,-6.0781,-6.0781,-6.0781,-6.0781,-6.2243,-6.3231,-6.3308,-6.4859,-6.5859,-6.5897,-6.5897,-6.5897,-6.5897,-6.5897,-6.5897,-6.5897,-6.5897,-6.5897,-6.5897,-6.6667,-6.7051,-6.7051,-6.7051,-6.7475,0.0,0.0,0.0,0.0,0.0,0.0,0.0,0.0,0.0,0.0,0.0,0.0,0.0,0.0,0.0,0.0,0.0,0.0,0.0,0.0,0.0,0.0,0.0,0.0,0.0,0.0,0.0,0.0,0.0,0.0,-3.8389,-3.777,-3.7401,-3.7401,-3.7401,-3.7766,-3.8548,-3.9131,-3.9528,-3.9746,-4.0246,-4.0669,-4.1008,-4.2431,-4.3278,-4.3624,-4.5017,-4.5594,-4.5594,-4.5594,-4.5594,-4.5594,-4.5594,-4.5594,-4.5594,-4.5594,-4.5594,-4.5633,-4.597,-4.6778,-4.7778,-4.8355,-4.9317,-5.0289,-5.0596,-5.0712,-5.0712,-5.0712,-5.1087,-5.1741,-5.2895,-5.3626,-5.4318,-5.5434,-5.6126,-5.6857,-5.805,-5.8704,-5.9396,-6.055,-6.0781,-6.0781,-6.0781,-6.0781,-6.0781,-6.0781,-6.0781,-6.0781,-6.0781,-6.0781,-6.1012,-6.1562,-6.2627,-6.3551,-6.4089,-6.5205,-6.5897,-6.5897,-6.5897,-6.5897,-6.5897,-6.5897,-6.5897,-6.5897,-6.5897,-6.5897,-6.5897,-6.6705,-6.709,-6.709,-6.7667,-6.809,0.0,0.0,0.0,0.0,0.0,0.0,0.0,0.0,0.0,0.0,0.0,0.0,0.0,0.0,0.0,0.0,0.0,0.0,0.0,0.0,0.0,0.0,0.0,0.0,0.0,0.0,0.0,0.0,0.0,0.0,-3.7224,-3.6628,-3.6348,-3.6409,-3.6708,-3.7028,-3.7508,-3.8191,-3.8795,-3.9323,-4.0131,-4.0516,-4.0554,-4.2008,-4.2816,-4.3162,-4.4547,-4.5325,-4.5594,-4.5594,-4.5594,-4.5594,-4.5594,-4.5594,-4.5594,-4.5594,-4.5594,-4.5594,-4.5594,-4.6509,-4.774,-4.8009,-4.9086,-5.0327,-5.0596,-5.0712,-5.0712,-5.0712,-5.1279,-5.2115,-5.2972,-5.4049,-5.5049,-5.5549,-5.6588,-5.7588,-5.8165,-5.8934,-5.9742,-6.0627,-6.0781,-6.0781,-6.0781,-6.0781,-6.0781,-6.0781,-6.0781,-6.0781,-6.0781,-6.105,-6.1447,-6.2062,-6.3089,-6.3974,-6.4551,-6.5397,-6.5897,-6.5897,-6.5897,-6.5897,-6.5897,-6.6167,-6.6282,-6.6282,-6.659,-6.6744,-6.6744,-6.7282,-6.7705,-6.7975,-6.859,-6.8859,0.0,0.0,0.0,0.0,0.0,0.0,0.0,0.0,0.0,0.0,0.0,0.0,0.0,0.0,0.0,0.0,0.0,0.0,0.0,0.0,0.0,0.0,0.0,0.0,0.0,0.0,0.0,0.0,0.0,-3.6413,-3.6645,-3.5913,-3.5633,-3.5861,-3.6643,-3.7148,-3.7441,-3.8309,-3.8932,-3.9284,-4.0092,-4.0516,-4.0516,-4.1393,-4.2277,-4.3124,-4.3932,-4.4778,-4.5594,-4.5594,-4.5594,-4.5594,-4.5594,-4.5594,-4.5594,-4.5594,-4.5594,-4.5594,-4.5594,-4.6163,-4.7038,-4.7855,-4.8702,-4.9548,-5.0442,-5.0712,-5.0712,-5.075,-5.1318,-5.2115,-5.301,-5.4472,-5.5703,-5.5742,-5.7049,-5.8319,-5.8319,-5.8973,-5.9781,-6.0627,-6.0781,-6.0781,-6.0781,-6.0781,-6.0781,-6.0781,-6.0781,-6.0781,-6.0781,-6.1562,-6.2101,-6.2139,-6.3589,-6.4628,-6.4628,-6.5397,-6.5897,-6.5897,-6.5897,-6.5897,-6.5936,-6.6667,-6.709,-6.7128,-6.7975,-6.8398,-6.8423,-6.8423,-6.8859,-6.9706,-6.9706,-6.9744,-2.7766,0.0,0.0,0.0,0.0,0.0,0.0,0.0,0.0,0.0,0.0,0.0,0.0,0.0,0.0,0.0,0.0,0.0,0.0,0.0,0.0,0.0,0.0,0.0,0.0,0.0,0.0,0.0,0.0,-3.5972,-3.5839,-3.5453,-3.5249,-3.5323,-3.5542,-3.5763,-3.6067,-3.7309,-3.8078,-3.8392,-3.9823,-4.0516,-4.0516,-4.1393,-4.2277,-4.3124,-4.3932,-4.4778,-4.5594,-4.5594,-4.5594,-4.5594,-4.5594,-4.5594,-4.5594,-4.5594,-4.5594,-4.5594,-4.5594,-4.6163,-4.7038,-4.7855,-4.8702,-4.9548,-5.0442,-5.0712,-5.0827,-5.1395,-5.1731,-5.2231,-5.3741,-5.4934,-5.5857,-5.6483,-5.7473,-5.8473,-5.905,-5.9858,-6.0512,-6.0742,-6.0781,-6.0781,-6.0781,-6.0781,-6.0781,-6.0781,-6.0781,-6.0781,-6.0781,-6.1562,-6.232,-6.2897,-6.3935,-6.4859,-6.5474,-6.5743,-6.5897,-6.5897,-6.5897,-6.6167,-6.6744,-6.6974,-6.7398,-6.8013,-6.8282,-6.8706,-6.936,-6.936,-6.9475,-6.9706,-7.0283,-7.0552,0.0,0.0,0.0,0.0,0.0,0.0,-2.6921,-2.716,0.0,0.0,0.0,0.0,0.0,0.0,0.0,0.0,0.0,0.0,0.0,0.0,0.0,0.0,0.0,0.0,0.0,0.0,0.0,0.0,-3.5094,-3.4992,-3.4945,-3.5145,-3.5215,-3.5086,-3.5207,-3.5507,-3.6,-3.7164,-3.8016,-3.8546,-4.0239,-4.0854,-4.0516,-4.1393,-4.2277,-4.3124,-4.3585,-4.447,-4.5594,-4.5594,-4.5594,-4.5594,-4.5594,-4.5594,-4.5594,-4.5594,-4.5594,-4.5594,-4.5594,-4.6394,-4.7471,-4.7971,-4.8933,-5.0048,-5.0558,-5.0712,-5.0856,-5.1654,-5.2423,-5.3318,-5.4664,-5.5626,-5.6368,-5.6868,-5.7934,-5.8934,-5.9396,-6.0165,-6.0781,-6.0781,-6.0781,-6.0781,-6.0781,-6.0781,-6.0781,-6.0781,-6.1089,-6.1331,-6.1331,-6.2397,-6.332,-6.3782,-6.4628,-6.5359,-6.5859,-6.5897,-6.6051,-6.6359,-6.6397,-6.6782,-6.7628,-6.7975,-6.8436,-6.8936,-6.9283,-6.9706,-7.0206,-6.986,-6.986,-7.0206,-7.0667,-7.0898,0.0,0.0,0.0,0.0,0.0,0.0,-2.6697,-2.629,-2.6379,0.0,0.0,0.0,0.0,0.0,0.0,0.0,0.0,0.0,0.0,0.0,0.0,0.0,0.0,0.0,0.0,0.0,0.0,-3.3807,-3.385,-3.4018,-3.4327,-3.5086,-3.5383,-3.5166,-3.5453,-3.5962,-3.6692,-3.7661,-3.8546,-3.9323,-4.1008,-4.1354,-4.0516,-4.1393,-4.2277,-4.3085,-4.3085,-4.4047,-4.5594,-4.5594,-4.5594,-4.5594,-4.5594,-4.5594,-4.5594,-4.5594,-4.5594,-4.5594,-4.571,-4.6701,-4.8009,-4.8202,-4.9279,-5.0558,-5.0673,-5.075,-5.101,-5.1923,-5.3356,-5.478,-5.5511,-5.6291,-5.6907,-5.7099,-5.828,-5.9435,-5.9588,-6.0242,-6.0781,-6.0781,-6.0781,-6.0781,-6.0781,-6.0781,-6.0781,-6.0781,-6.1562,-6.2101,-6.2101,-6.3551,-6.4589,-6.4589,-6.5397,-6.5897,-6.5897,-6.5974,-6.632,-6.7051,-6.7167,-6.7628,-6.8513,-6.9283,-6.9744,-6.9821,-7.0552,-7.0898,-7.0898,-7.0167,-7.0206,-7.0898,-7.0898,-7.0898,0.0,0.0,0.0,0.0,0.0,0.0,-2.7139,-2.6407,-2.597,0.0,0.0,0.0,0.0,0.0,0.0,0.0,0.0,0.0,0.0,0.0,0.0,0.0,0.0,0.0,0.0,0.0,-3.3807,-3.3807,-3.4237,-3.4725,-3.5231,-3.5405,-3.5486,-3.5405,-3.6101,-3.6538,-3.6692,-3.8277,-3.913,-3.9323,-4.1008,-4.1354,-4.0516,-4.1393,-4.2277,-4.3085,-4.3085,-4.4047,-4.5594,-4.5594,-4.5594,-4.5594,-4.5594,-4.5594,-4.5594,-4.5594,-4.5594,-4.571,-4.6394,-4.6855,-4.7355,-4.8702,-4.9394,-4.9779,-5.0481,-5.1164,-5.201,-5.3549,-5.4703,-5.5511,-5.5665,-5.5818,-5.6319,-5.7703,-5.8319,-5.8896,-6.0242,-6.0666,-6.0781,-6.0781,-6.0781,-6.0781,-6.0781,-6.0781,-6.0781,-6.0781,-6.1562,-6.2101,-6.2101,-6.3551,-6.4589,-6.4589,-6.5397,-6.5897,-6.5897,-6.6474,-6.6936,-6.709,-6.7744,-6.8552,-6.9398,-6.9629,-7.0014,-7.0667,-7.0821,-7.0898,-7.0898,-7.0744,-7.0744,-7.0898,-7.0898,-7.0898,0.0,0.0,0.0,-2.9899,0.0,0.0,0.0,-2.6575,-2.5974,0.0,0.0,0.0,0.0,0.0,0.0,0.0,0.0,0.0,0.0,0.0,0.0,0.0,0.0,0.0,0.0,0.0,-3.282,-3.3352,-3.4346,-3.4963,-3.5077,-3.5361,-3.5458,-3.5285,-3.6219,-3.6923,-3.7353,-3.8661,-3.9515,-3.99,-4.12,-4.1354,-4.0554,-4.1854,-4.2701,-4.3124,-4.3508,-4.4432,-4.5594,-4.5594,-4.5594,-4.5594,-4.5594,-4.5594,-4.5594,-4.5594,-4.5902,-4.6317,-4.674,-4.7471,-4.8279,-4.9125,-4.9702,-5.0125,-5.0558,-5.1587,-5.2818,-5.4126,-5.5088,-5.5703,-5.5703,-5.6011,-5.6665,-5.8011,-5.8627,-5.9242,-6.0512,-6.0781,-6.0781,-6.0781,-6.0781,-6.0781,-6.0781,-6.0781,-6.0935,-6.1358,-6.2166,-6.2858,-6.3281,-6.4474,-6.5243,-6.5243,-6.5628,-6.5897,-6.5897,-6.6282,-6.6859,-6.7705,-6.8167,-6.8975,-7.0244,-7.0283,-7.0475,-7.0898,-7.0898,-7.0898,-7.0898,-7.0898,-7.0898,-7.0898,-7.136,-7.1552,0.0,0.0,0.0,0.0,0.0,-2.9009,0.0,0.0,0.0,0.0,0.0,0.0,0.0,0.0,0.0,0.0,0.0,0.0,0.0,0.0,0.0,0.0,0.0,0.0,0.0,0.0,-3.1922,-3.3077,-3.4065,-3.4674,-3.4832,-3.5254,-3.5391,-3.519,-3.6343,-3.7276,-3.8007,-3.9008,-3.9861,-4.0516,-4.1393,-4.1354,-4.0554,-4.2124,-4.2931,-4.3124,-4.3778,-4.4662,-4.5594,-4.5594,-4.5594,-4.5594,-4.5594,-4.5594,-4.5594,-4.5594,-4.6047,-4.6663,-4.6846,-4.7894,-4.9163,-4.9356,-4.9971,-5.075,-5.1097,-5.2125,-5.3395,-5.4434,-5.5203,-5.5703,-5.5703,-5.6368,-5.7176,-5.7896,-5.8781,-5.9704,-6.0396,-6.0666,-6.0781,-6.0781,-6.0781,-6.0781,-6.0781,-6.0781,-6.105,-6.1755,-6.2551,-6.3397,-6.4243,-6.5128,-6.5705,-6.5859,-6.6051,-6.6051,-6.5897,-6.6359,-6.7128,-6.8321,-6.8706,-6.9475,-7.0821,-7.0898,-7.0898,-7.0898,-7.0898,-7.0898,-7.0898,-7.0898,-7.0898,-7.0937,-7.1783,-7.2206,0.0,0.0,0.0,0.0,-3.1175,0.0,0.0,0.0,0.0,0.0,0.0,0.0,0.0,0.0,0.0,0.0,0.0,0.0,0.0,0.0,0.0,0.0,0.0,0.0,0.0,0.0,0.0,-3.3603,-3.3138,-3.3547,-3.5314,-3.5479,-3.5493,-3.5472,-3.6993,-3.7892,-3.8007,-3.9592,-4.04,-4.0516,-4.1393,-4.1354,-4.0516,-4.1508,-4.2354,-4.3124,-4.3201,-4.4124,-4.5594,-4.5594,-4.5594,-4.5594,-4.5594,-4.5594,-4.5594,-4.5594,-4.5671,-4.5864,-4.6624,-4.7509,-4.8394,-4.9163,-4.9971,-5.0981,-5.2472,-5.3049,-5.3549,-5.5126,-5.5626,-5.5703,-5.5703,-5.6368,-5.7022,-5.7137,-5.8357,-5.9511,-5.9627,-6.0242,-6.0781,-6.0781,-6.0781,-6.0781,-6.0781,-6.0781,-6.0819,-6.0935,-6.1678,-6.2512,-6.3358,-6.4205,-6.5051,-6.582,-6.6551,-6.6667,-6.5974,-6.7975,-6.9013,-6.8423,-6.9783,-7.0706,-7.0898,-7.0898,-7.0898,-7.0898,-7.0898,-7.0898,-7.0898,-7.0898,-7.0898,-7.0937,-7.1783,-7.2206,0.0,0.0,0.0,0.0,0.0,0.0,0.0,0.0,-2.6845,0.0,0.0,0.0,0.0,0.0,0.0,0.0,0.0,0.0,0.0,0.0,0.0,0.0,0.0,0.0,0.0,0.0,0.0,0.0,0.0,-3.3754,-3.457,-3.5165,-3.5692,-3.6192,-3.7353,-3.8238,-3.8738,-3.9938,-4.0516,-4.0516,-4.0854,-4.0854,-4.0516,-4.1393,-4.2277,-4.3124,-4.3585,-4.447,-4.5594,-4.5594,-4.5594,-4.5594,-4.5594,-4.5594,-4.5594,-4.5594,-4.5932,-4.6394,-4.6778,-4.7778,-4.9009,-4.9856,-5.0702,-5.1625,-5.2818,-5.3549,-5.4203,-5.5357,-5.5703,-5.5703,-5.5703,-5.5972,-5.6368,-5.6868,-5.7934,-5.8934,-5.9396,-6.0165,-6.0781,-6.0781,-6.0781,-6.0781,-6.0781,-6.0781,-6.0973,-6.1485,-6.187,-6.2551,-6.3897,-6.4359,-6.4936,-6.582,-6.6628,-6.6974,-6.6628,-6.8052,-6.9013,-6.9167,-7.0244,-7.0898,-7.0898,-7.0898,-7.0898,-7.0898,-7.0898,-7.0898,-7.0898,-7.1398,-7.1398,-7.0937,-7.2322,-7.3206,-3.5452,0.0,0.0,0.0,0.0,0.0,0.0,0.0,0.0,0.0,0.0,0.0,0.0,0.0,0.0,0.0,0.0,0.0,0.0,0.0,0.0,0.0,0.0,0.0,0.0,0.0,0.0,0.0,-3.2638,0.0,-3.3983,-3.4937,-3.5871,-3.6654,-3.7777,-3.8661,-3.9284,-4.0092,-4.0516,-4.0516,-4.0516,-4.0631,-4.0893,-4.1508,-4.2393,-4.347,-4.4047,-4.4778,-4.5594,-4.5594,-4.5594,-4.5594,-4.5594,-4.5594,-4.5594,-4.5594,-4.6009,-4.6547,-4.6547,-4.7625,-4.924,-5.0327,-5.1241,-5.2038,-5.2933,-5.3818,-5.4664,-5.5472,-5.5703,-5.5703,-5.5703,-5.5857,-5.6175,-5.656,-5.7665,-5.8742,-5.9088,-6.0012,-6.0781,-6.0781,-6.0781,-6.0781,-6.0781,-6.0781,-6.1012,-6.1639,-6.1947,-6.2627,-6.4051,-6.4436,-6.4936,-6.582,-6.6821,-6.7359,-6.7128,-6.8321,-6.936,-6.9975,-7.0591,-7.0898,-7.0898,-7.0898,-7.1014,-7.1245,-7.1245,-7.136,-7.1629,-7.2245,-7.2245,-7.1629,-7.2899,-7.3668,0.0,0.0,0.0,-3.5651,0.0,0.0,0.0,0.0,-2.8614,0.0,0.0,0.0,0.0,0.0,0.0,0.0,0.0,0.0,0.0,0.0,0.0,0.0,0.0,0.0,0.0,0.0,0.0,0.0,-3.0662,0.0,-3.3973,-3.4947,-3.5782,-3.6654,-3.8354,-3.9284,-3.9284,-4.0092,-4.0516,-4.0516,-4.0516,-4.0931,-4.1769,-4.1769,-4.2701,-4.4239,-4.4278,-4.4778,-4.5594,-4.5594,-4.5594,-4.5594,-4.5594,-4.5594,-4.5594,-4.5594,-4.5633,-4.5633,-4.5633,-4.674,-4.8432,-5.0125,-5.1241,-5.2038,-5.2933,-5.3818,-5.4664,-5.5472,-5.5703,-5.5703,-5.5703,-5.6329,-5.6753,-5.5934,-5.7665,-5.9281,-5.8511,-5.9627,-6.0781,-6.0781,-6.0781,-6.0781,-6.0781,-6.0781,-6.0819,-6.0819,-6.1562,-6.2397,-6.3243,-6.4089,-6.4936,-6.582,-6.7359,-6.8013,-6.7167,-6.9398,-7.0821,-7.086,-7.0898,-7.0898,-7.0898,-7.0898,-7.1283,-7.2129,-7.2168,-7.2552,-7.3437,-7.3437,-7.3437,-7.3437,-7.3476,-7.3053,0.0,0.0,-3.8591,-3.6518,0.0,0.0,0.0,0.0,0.0,0.0,0.0,0.0,0.0,0.0,0.0,0.0,0.0,0.0,0.0,0.0,0.0,0.0,0.0,0.0,0.0,0.0,0.0,-3.1184,-3.1002,-3.1485,0.0,-3.4565,-3.6051,-3.75,-3.87,-3.9554,-4.0092,-4.0362,-4.0516,-4.0516,-4.0516,-4.0969,-4.1808,-4.1808,-4.2701,-4.4316,-4.4316,-4.4778,-4.5594,-4.5594,-4.5594,-4.5594,-4.5594,-4.5594,-4.5594,-4.5594,-4.5594,-4.5748,-4.6855,-4.7625,-4.8394,-5.0125,-5.1625,-5.2818,-5.3126,-5.4164,-5.5357,-5.5626,-5.5703,-5.5703,-5.5703,-5.5934,-5.6214,-5.6483,-5.7665,-5.8781,-5.905,-5.9973,-6.0781,-6.0781,-6.0781,-6.0781,-6.0781,-6.0781,-6.1012,-6.1562,-6.1908,-6.2601,-6.3974,-6.4436,-6.5128,-6.6551,-6.7705,-6.8513,-6.8783,-7.009,-7.0898,-7.0898,-7.0898,-7.0898,-7.0898,-7.0898,-7.1321,-7.2168,-7.2206,-7.2629,-7.3514,-7.4053,-7.4014,-7.3514,-7.4053,-7.386,-3.9316,-3.9691,0.0,0.0,-3.7146,0.0,-3.5348,0.0,0.0,0.0,0.0,0.0,0.0,0.0,0.0,0.0,0.0,0.0,0.0,-2.4402,0.0,0.0,0.0,0.0,0.0,0.0,-2.9935,-3.0675,-3.0713,-3.1282,0.0,0.0,-3.6144,-3.793,-3.9123,-3.9977,-4.0477,-4.0823,-4.0969,-4.0969,-4.1285,-4.1854,-4.2701,-4.2701,-4.3431,-4.4739,-4.4739,-4.5094,-4.5594,-4.5594,-4.5594,-4.5594,-4.5594,-4.5594,-4.5594,-4.5594,-4.5594,-4.5825,-4.7509,-4.8086,-4.8432,-5.0471,-5.2087,-5.328,-5.3587,-5.4626,-5.5703,-5.5703,-5.5703,-5.5703,-5.5703,-5.5934,-5.6291,-5.6868,-5.7896,-5.8858,-5.9396,-6.0165,-6.0781,-6.0781,-6.0781,-6.0781,-6.0781,-6.0781,-6.1089,-6.1985,-6.232,-6.3012,-6.4436,-6.4859,-6.5474,-6.6551,-6.7705,-6.8859,-7.0014,-7.0591,-7.0898,-7.0898,-7.0898,-7.0898,-7.0898,-7.0898,-7.1475,-7.2629,-7.2668,-7.3245,-7.4399,-7.4899,-7.4745,-7.3937,-7.4476,-7.4284]},{"header":{"parameterUnit":"m.s-1","parameterCategory":1,"la1":30.6,"la2":29.2853,"lo1":-89.7004,"lo2":-87.6739,"dy":0.0162,"dx":0.0183,"nx":112,"ny":82,"refTime":"2024-02-22T06:00:00:Z","depth":0,"parameterNumber":3,"parameterNumberName":"V-component_of_WINDS"},"data":[0.0,0.0,0.0,0.0,0.0,0.0,0.0,0.0,0.0,0.0,0.0,0.0,0.0,0.0,0.0,0.0,0.0,0.0,0.0,0.0,0.0,0.0,0.0,0.0,0.0,0.0,0.0,0.0,0.0,0.0,0.0,0.0,0.0,0.0,0.0,0.0,0.0,0.0,0.0,0.0,0.0,0.0,0.0,0.0,0.0,0.0,0.0,0.0,0.0,0.0,0.0,0.0,0.0,0.0,0.0,0.0,0.0,0.0,0.0,0.0,0.0,0.0,0.0,0.0,0.0,0.0,0.0,0.0,0.0,0.0,0.0,0.0,0.0,0.0,0.0,0.0,0.0,0.0,0.0,0.0,0.0,0.0,0.0,0.0,0.0,0.0,0.0,0.0,0.0,0.0,0.0,1.1371,1.405,1.6339,1.7591,1.8021,1.7568,1.6118,0.0,0.0,0.0,0.0,0.0,0.0,0.0,0.0,0.0,0.0,0.0,0.0,0.0,0.0,0.0,0.0,0.0,0.0,0.0,0.0,0.0,0.0,0.0,0.0,0.0,0.0,0.0,0.0,0.0,0.0,0.0,0.0,0.0,0.0,0.0,0.0,0.0,0.0,0.0,0.0,0.0,0.0,0.0,0.0,0.0,0.0,0.0,0.0,0.0,0.0,0.0,0.0,0.0,0.0,0.0,0.0,0.0,0.0,0.0,0.0,0.0,0.0,0.0,0.0,0.0,0.0,0.0,0.0,0.0,0.0,0.0,0.0,0.0,0.0,0.0,0.0,0.0,0.0,0.0,0.0,0.0,0.0,0.0,0.0,0.0,0.0,0.0,0.0,0.0,0.0,0.0,0.0,0.0,0.0,0.0,0.0,0.0,0.0,0.0,0.0,0.0,0.0,0.0,0.0,1.1546,1.4081,1.5232,1.6339,1.7591,1.7206,1.6548,1.5741,0.0,0.0,0.0,0.0,0.0,0.0,0.0,0.0,0.0,0.0,0.0,0.0,0.0,0.0,0.0,0.0,0.0,0.0,0.0,0.0,0.0,0.0,0.0,0.0,0.0,0.0,0.0,0.0,0.0,0.0,0.0,0.0,0.0,0.0,0.0,0.0,0.0,0.0,0.0,0.0,0.0,0.0,0.0,0.0,0.0,0.0,0.0,0.0,0.0,0.0,0.0,0.0,0.0,0.0,0.0,0.0,0.0,0.0,0.0,0.0,0.0,0.0,0.0,0.0,0.0,0.0,0.0,0.0,0.0,0.0,0.0,0.0,0.0,0.0,0.0,0.0,0.0,0.0,0.0,0.0,0.0,0.0,0.0,0.0,0.0,0.0,0.0,0.0,0.0,0.0,0.0,0.0,0.0,0.0,0.0,0.0,0.0,0.0,0.0,0.0,0.0,0.0,0.0,1.0361,1.2272,1.4932,1.5578,1.6055,1.6622,1.6091,1.5586,1.5248,1.3921,0.0,0.0,0.0,0.0,0.0,0.0,0.0,0.0,0.0,0.0,0.0,0.0,0.0,0.0,0.0,0.0,0.0,0.0,0.0,0.0,0.0,0.0,0.0,0.0,0.0,0.0,0.0,0.0,0.0,0.0,0.0,0.0,0.0,0.0,0.0,0.0,0.0,0.0,0.0,0.0,0.0,0.0,0.0,0.0,0.0,0.0,0.0,0.0,0.0,0.0,0.0,0.0,0.0,0.0,0.0,0.0,0.0,0.0,0.0,0.0,0.0,0.0,0.0,0.0,0.0,0.0,0.0,0.0,0.0,0.0,0.0,0.0,0.0,0.0,0.0,0.0,0.0,0.0,0.0,0.0,0.0,0.0,0.0,0.0,0.0,0.0,0.0,0.0,0.0,0.0,0.0,0.0,0.0,0.0,0.0,0.0,0.0,0.0,0.0,0.0,0.0,0.0,1.1591,1.2608,1.5199,1.5698,1.5758,1.5725,1.5212,1.4776,1.4408,1.2555,0.0,0.0,0.0,0.0,0.0,0.0,0.0,0.0,0.0,0.0,0.0,0.0,0.0,0.0,0.0,0.0,0.0,0.0,0.0,0.0,0.0,0.0,0.0,0.0,0.0,0.0,0.0,0.0,0.0,0.0,0.0,0.0,0.0,0.0,0.0,0.0,0.0,0.0,0.0,0.0,0.0,0.0,0.0,0.0,0.0,0.0,0.0,0.0,0.0,0.0,0.0,0.0,0.0,0.0,0.0,0.0,0.0,0.0,0.0,0.0,0.0,0.0,0.0,0.0,0.0,0.0,0.0,0.0,0.0,0.0,0.0,0.0,0.0,0.0,0.0,0.0,0.0,0.0,0.0,0.0,0.0,0.0,0.0,0.0,0.0,0.0,0.0,0.0,0.0,0.0,0.0,0.0,0.0,0.0,0.0,0.0,0.0,0.0,0.0,0.0,0.0,0.0,1.1448,1.229,1.5423,1.5771,1.5725,1.5444,1.4955,1.4107,1.292,1.1897,0.0,0.0,0.0,0.0,0.0,0.0,0.0,0.0,0.0,0.0,0.0,0.0,0.0,0.0,0.0,0.0,0.0,0.0,0.0,0.0,0.0,0.0,0.0,0.0,0.0,0.0,0.0,0.0,0.0,0.0,0.0,0.0,0.0,0.0,0.0,0.0,0.0,0.0,0.0,0.0,0.0,0.0,0.0,0.0,0.0,0.0,0.0,0.0,0.0,0.0,0.0,0.0,0.0,0.0,0.0,0.0,0.0,0.0,0.0,0.0,0.0,0.0,0.0,0.0,0.0,0.0,0.0,0.0,0.0,0.0,0.0,0.0,0.0,0.0,0.0,0.0,0.0,0.0,0.0,0.0,0.0,0.0,0.0,0.0,0.0,0.0,0.0,0.0,0.0,0.0,0.0,0.0,0.0,0.0,0.0,0.0,0.0,0.0,0.0,0.0,0.0,0.0,1.1782,1.2833,0.0,1.5784,1.5712,1.5418,1.4874,1.4,1.2775,0.0,0.0,0.0,0.0,0.0,0.0,0.0,0.0,0.0,0.0,0.0,0.0,0.0,0.0,0.0,0.0,0.0,0.0,0.0,0.0,0.0,0.0,0.0,0.0,0.0,0.0,0.0,0.0,0.0,0.0,0.0,0.0,0.0,0.0,0.0,0.0,0.0,0.0,0.0,0.0,0.0,0.0,0.0,0.0,0.0,0.0,0.0,0.0,0.0,0.0,0.0,0.0,0.0,0.0,0.0,0.0,0.0,0.0,0.0,0.0,0.0,0.0,0.0,0.0,0.0,0.0,0.0,0.0,0.0,0.0,0.0,0.0,0.0,0.0,0.0,0.0,0.0,0.0,0.0,0.0,0.0,0.0,0.0,0.0,0.0,0.0,0.0,0.0,0.0,0.0,0.0,0.0,0.0,0.0,0.0,0.0,0.0,0.0,0.0,0.0,0.0,0.0,1.1213,1.1757,1.2841,0.0,1.5698,1.5498,1.5017,1.4528,1.3701,1.2432,0.0,0.0,0.0,0.0,0.0,0.0,0.0,0.0,0.0,0.0,0.0,0.0,0.0,0.0,0.0,0.0,0.0,0.0,0.0,0.0,0.0,0.0,0.0,0.0,0.0,0.0,0.0,0.0,0.0,0.0,0.0,0.0,0.0,0.0,0.0,0.0,0.0,0.0,0.0,0.0,0.0,0.0,0.0,0.0,0.0,0.0,0.0,0.0,0.0,0.0,0.0,0.0,0.0,0.0,0.0,0.0,0.0,0.0,0.0,0.0,0.0,0.0,0.0,0.0,0.0,0.0,0.0,0.0,0.0,0.0,0.0,0.0,0.0,0.0,0.0,0.0,0.0,0.0,0.0,0.0,0.0,0.0,0.0,0.0,0.0,0.0,0.0,0.0,0.0,0.0,0.0,0.0,0.0,0.0,0.0,0.0,0.0,0.0,0.0,0.0,0.0,0.0,1.1134,1.1224,1.2146,1.5068,1.5391,1.503,1.4162,1.3857,1.3118,0.0,0.0,0.0,0.0,0.0,0.0,0.0,0.0,0.0,0.0,0.0,0.0,0.0,0.0,0.0,0.0,0.0,0.0,0.0,0.0,0.0,0.0,0.0,0.0,0.0,0.0,0.0,0.0,0.0,0.0,0.0,0.0,0.0,0.0,0.0,0.0,0.0,0.0,0.0,0.0,0.0,0.0,0.0,0.0,0.0,0.0,0.0,0.0,0.0,0.0,0.0,0.0,0.0,0.0,0.0,0.0,0.0,0.0,0.0,0.0,0.0,0.0,0.0,0.0,0.0,0.0,0.0,0.0,0.0,0.0,0.0,0.0,0.0,0.0,0.0,0.0,0.0,0.0,0.0,0.0,0.0,0.0,0.0,0.0,0.0,0.0,0.0,0.0,0.0,0.0,0.0,0.0,0.0,0.0,0.0,0.0,0.0,0.0,0.0,0.0,0.0,0.0,0.0,1.0722,1.089,1.1854,1.481,1.5142,1.4816,1.4148,1.3811,1.3125,1.1909,0.0,0.0,0.0,0.0,0.0,0.0,0.0,0.0,0.0,0.0,0.0,0.0,0.0,0.0,0.0,0.0,0.0,0.0,0.0,0.0,0.0,0.0,0.0,0.0,0.0,0.0,0.0,0.0,0.0,0.0,0.0,0.0,0.0,0.0,0.0,0.0,0.0,0.0,0.0,0.0,0.0,0.0,0.0,0.0,0.0,0.0,0.0,0.0,0.0,0.0,0.0,0.0,0.0,0.0,0.0,0.0,0.0,0.0,0.0,0.0,0.0,0.0,0.0,0.0,0.0,0.0,0.0,0.0,0.0,0.0,0.0,0.0,0.0,0.0,0.0,0.0,0.0,0.0,0.0,0.0,0.0,0.0,0.0,0.0,0.0,0.0,0.0,0.0,0.0,0.0,0.0,0.0,0.0,0.0,0.0,0.0,0.0,0.0,0.0,0.0,0.0,0.0,1.0584,1.0724,1.1666,1.452,1.479,1.4496,1.3801,1.3574,1.2974,1.1897,0.0,0.0,0.0,0.0,0.0,0.0,0.0,0.0,0.0,0.0,0.0,0.0,0.0,0.0,0.0,0.0,0.0,0.0,0.0,0.0,0.0,0.0,0.0,0.0,0.0,0.0,0.0,0.0,0.0,0.0,0.0,0.0,0.0,0.0,0.0,0.0,0.0,0.0,0.0,0.0,0.0,0.0,0.0,0.0,0.0,0.0,0.0,0.0,0.0,0.0,0.0,0.0,0.0,0.0,0.0,0.0,0.0,0.0,0.0,0.0,0.0,0.0,0.0,0.0,0.0,0.0,0.0,0.0,0.0,0.0,0.0,0.0,0.0,0.0,0.0,0.0,0.0,0.0,0.0,0.0,0.0,0.0,0.0,0.0,0.0,0.0,0.0,0.0,0.0,0.0,0.0,0.0,0.0,0.0,0.0,0.0,0.0,0.0,0.0,0.0,0.0,0.0,1.0552,1.0737,1.1576,1.4186,1.4482,1.4135,1.328,1.3213,1.2765,1.1776,0.0,0.0,0.0,0.0,0.0,0.0,0.0,0.0,0.0,0.0,0.0,0.0,0.0,0.0,0.0,0.0,0.0,0.0,0.0,0.0,0.0,0.0,0.0,0.0,0.0,0.0,0.0,0.0,0.0,0.0,0.0,0.0,0.0,0.0,0.0,0.0,0.0,0.0,0.0,0.0,0.0,0.0,0.0,0.0,0.0,0.0,0.0,0.0,0.0,0.0,0.0,0.0,0.0,0.0,0.0,0.0,0.0,0.0,0.0,0.0,0.9531,0.0,0.0,0.0,0.0,0.0,0.0,0.0,0.0,0.0,0.0,0.0,0.0,0.0,0.0,0.0,0.0,0.0,0.0,0.0,0.0,0.0,0.0,0.0,0.0,0.0,0.0,0.0,0.0,0.0,0.0,0.0,0.0,0.0,0.0,0.0,0.0,0.0,0.0,0.0,0.0,0.0,1.025,1.0421,1.1277,1.3897,1.4175,1.3921,1.3267,1.3213,1.2857,1.2082,0.0,0.0,0.0,0.0,0.0,0.0,0.0,0.0,0.0,0.0,0.0,0.0,0.0,0.0,0.0,0.0,0.0,0.0,0.0,0.0,0.0,0.0,0.0,0.0,0.0,0.0,0.0,0.0,0.0,0.0,0.0,0.0,0.0,0.0,0.0,0.0,0.0,0.0,0.0,0.0,0.0,0.0,0.0,0.0,0.0,0.0,0.0,0.0,0.0,0.0,0.0,0.0,0.0,0.0,0.0,0.0,0.0,0.0,0.0,0.0,0.0,1.0122,0.0,0.0,0.0,0.0,0.0,0.0,0.0,0.0,0.0,0.0,0.0,0.0,0.0,0.0,0.0,0.0,0.0,0.0,0.0,0.0,0.0,0.0,0.0,0.0,0.0,0.0,0.0,0.0,0.0,0.0,0.0,0.0,0.0,0.0,0.0,0.0,0.0,0.0,0.0,0.0,1.0218,1.0363,1.1198,1.3805,1.3961,1.3694,1.3253,1.308,1.2842,1.2453,1.2478,0.0,0.0,0.0,0.0,0.0,0.0,0.0,0.0,0.0,0.0,0.0,0.0,0.0,0.0,0.0,0.0,0.0,0.0,0.0,0.0,0.0,0.0,0.0,0.0,0.0,0.0,0.0,0.0,0.0,0.0,0.0,0.0,0.0,0.0,0.0,0.0,0.0,0.0,0.0,0.0,0.0,0.0,0.0,0.0,0.0,0.0,0.0,0.0,0.0,0.0,0.0,0.0,0.0,0.0,0.0,1.4902,1.4672,1.4715,1.4718,1.1817,1.1575,1.3219,0.0,0.0,0.0,0.0,0.0,0.0,0.0,0.0,0.0,0.0,0.0,0.0,0.0,0.0,0.0,0.0,0.0,0.0,0.0,0.0,0.0,0.0,0.0,0.0,0.0,1.3857,1.3753,0.0,0.0,0.0,0.0,0.0,0.0,0.0,0.0,0.0,0.0,0.0,0.0,1.0066,1.0295,1.1161,1.3552,1.3649,1.348,1.324,1.2958,1.2784,1.2784,1.3055,1.3194,0.0,0.0,0.0,0.0,0.0,0.0,0.0,0.0,0.0,0.0,0.0,0.0,0.0,0.0,0.0,0.0,0.0,0.0,0.0,0.0,0.0,0.0,0.0,0.0,0.0,0.0,0.0,0.0,0.0,0.0,0.0,0.0,1.0708,1.0717,0.0,0.0,0.0,0.0,0.0,0.0,0.0,0.0,0.0,0.0,0.0,0.0,0.0,0.0,1.2753,1.443,1.4973,1.4352,1.5677,1.6201,1.6027,1.4992,1.5101,1.6,1.4192,0.0,1.4457,1.296,0.0,0.0,0.0,0.0,0.0,0.0,0.0,0.0,0.0,0.0,0.0,0.0,0.0,0.0,0.0,0.0,0.0,0.0,0.0,0.0,0.0,0.0,1.4648,1.4732,1.4799,1.4785,0.0,1.3102,1.1841,1.1532,0.0,0.0,0.0,0.0,0.0,0.0,0.0,0.0,0.9012,0.9917,1.091,1.2383,1.3166,1.348,1.324,1.2958,1.2784,1.2784,1.2826,1.3174,1.3917,1.3841,0.0,0.0,0.0,0.0,0.0,0.0,0.0,0.0,0.0,0.0,0.0,0.0,0.0,0.0,0.0,0.0,0.0,0.0,0.0,0.0,0.0,0.0,0.0,0.0,0.0,0.0,0.0,0.0,0.0,1.0829,1.1785,1.1668,1.2203,1.2282,0.0,0.0,0.0,0.0,0.0,0.0,0.0,0.0,0.0,1.3432,1.4683,1.5061,1.4316,1.5849,1.6555,1.647,1.7134,1.7475,1.7515,1.5946,1.5559,1.5964,1.4333,1.4117,1.4869,1.4274,1.3937,1.3615,0.0,0.0,0.0,0.0,0.0,1.1006,1.0985,0.0,0.0,0.0,0.0,0.0,0.0,0.0,0.0,0.0,0.0,0.0,0.0,0.0,0.0,1.5204,1.5337,1.5404,1.5244,1.4581,1.3724,0.0,1.2767,1.2271,1.1089,0.0,0.0,0.0,0.0,0.0,0.8742,0.9804,1.091,1.2171,1.3083,1.3547,1.3427,1.3052,1.262,1.2192,1.2114,1.2058,1.2015,1.279,1.2973,0.0,0.0,0.0,0.0,0.0,0.0,0.0,0.0,0.0,0.0,0.0,0.0,0.0,0.0,0.0,0.0,0.0,0.0,0.0,0.0,0.0,0.0,0.0,0.0,0.0,0.0,0.0,0.0,1.1553,1.2641,1.2318,1.3283,1.3629,0.0,0.0,0.0,0.0,0.0,0.0,1.3981,1.4895,1.5218,1.4863,1.6112,1.6584,1.6045,1.7003,1.7756,1.8209,1.8209,1.8123,1.7909,1.6624,1.5763,1.5185,1.3917,1.3976,1.5047,1.4949,1.4763,1.4453,1.3849,1.3395,0.0,1.2557,1.2685,1.314,1.2972,1.3844,1.4923,1.4278,0.0,1.3485,1.2819,0.0,0.0,0.0,0.0,1.0918,1.2152,0.0,1.5233,1.5438,1.5671,1.5765,1.5551,1.5265,1.4864,0.0,1.4027,1.3508,1.2212,0.0,0.0,0.0,0.0,0.7275,0.8293,0.9361,1.0381,1.1316,1.2194,1.2848,1.3136,1.2474,1.2074,1.22,1.1837,1.1403,1.0889,1.2017,1.2392,1.1863,0.0,0.0,0.0,0.0,0.0,0.0,0.0,0.0,0.0,0.0,0.0,0.0,0.0,0.0,0.0,0.0,0.0,0.0,0.0,0.0,0.0,0.0,0.0,0.0,0.0,0.0,0.0,0.0,0.0,1.2371,1.4097,0.0,0.0,0.0,0.0,1.375,1.4782,1.5445,1.5472,1.6725,1.7438,1.7422,1.7769,1.8035,1.8342,1.841,1.8584,1.8821,1.8821,1.7986,1.6422,1.6433,1.5422,1.3598,1.3533,1.4113,1.5128,1.4441,1.4936,1.608,1.5089,1.4848,1.5025,1.474,1.4645,1.4713,1.4821,1.491,1.5102,1.5531,1.4232,1.2534,1.2675,1.059,0.0,0.0,1.1619,1.2054,1.4325,1.5134,1.5471,1.5738,1.5771,1.5784,1.5758,1.4829,1.4194,0.0,1.3812,1.2563,1.1607,0.0,0.8791,0.7733,0.7473,0.7337,0.72,0.8221,0.9008,0.9061,0.9871,1.0825,1.1905,1.0672,1.0884,1.3356,1.2482,1.1998,1.2213,1.2291,1.2291,1.2279,1.2334,0.0,0.0,0.0,0.0,0.0,0.0,0.0,0.0,0.0,0.0,0.0,0.0,0.0,0.0,0.0,0.0,0.0,0.0,0.0,0.0,0.0,0.0,0.0,0.0,0.0,0.0,0.0,0.0,1.3973,1.4467,0.0,0.0,1.4927,1.5081,1.5421,1.5964,1.6551,1.7112,1.7603,1.8049,1.8424,1.8557,1.8758,1.9052,1.9052,1.9105,1.9212,1.9212,1.8753,1.7943,1.6883,1.5345,1.3653,1.3653,1.3878,1.4276,1.4992,1.5752,1.6513,1.6134,1.6088,1.6169,1.6061,1.59,1.5752,1.5812,1.5685,1.5411,1.4791,1.3873,1.2789,1.1403,1.0139,0.9451,1.0423,1.1155,1.2081,1.3873,1.4999,1.5698,1.5758,1.5784,1.5581,1.4758,1.422,1.373,1.3129,1.2461,1.184,1.1538,1.0241,0.9109,0.8841,0.7989,0.7319,0.7119,0.8149,0.8894,0.8894,0.9813,1.0622,1.1049,1.0418,1.016,1.0449,0.9947,0.9395,0.8828,0.9631,1.0221,1.0481,1.1254,1.1844,0.0,0.0,0.0,0.0,0.0,0.0,0.0,0.0,0.0,0.0,0.0,0.0,0.0,0.0,0.0,0.0,0.0,0.0,0.0,0.0,0.0,0.0,0.0,0.0,0.0,0.0,1.335,1.4381,1.4213,1.4426,1.5441,1.5456,1.5792,1.6787,1.7136,1.7609,1.8249,1.8382,1.8664,1.9065,1.9078,1.9172,1.9417,1.9265,1.9225,1.9225,1.9225,1.8823,1.8012,1.6968,1.5524,1.3765,1.3765,1.4002,1.4471,1.5378,1.6237,1.6943,1.6471,1.6521,1.6797,1.6341,1.626,1.6406,1.6348,1.6072,1.5581,1.4316,1.3421,1.2511,1.0587,0.9958,0.9978,1.0498,1.1501,1.276,1.4172,1.514,1.5784,1.5784,1.5784,1.5439,1.4172,1.3536,1.2861,1.1502,1.1087,1.1029,1.1265,1.0023,0.9135,0.9567,0.8691,0.7993,0.7993,0.8387,0.8702,0.8767,0.9174,0.9575,1.0009,0.965,0.937,0.9341,0.8974,0.843,0.7606,0.8536,0.9231,0.9472,1.1059,1.1599,1.1083,0.0,0.0,0.0,0.0,0.0,0.0,0.0,0.0,0.0,0.0,0.0,0.0,0.0,0.0,0.0,0.0,0.0,0.0,0.0,0.0,0.0,0.0,0.0,1.2862,1.3233,1.3522,1.3556,1.3425,1.372,1.4774,1.5117,1.6072,1.7887,1.8357,1.8651,1.8918,1.9212,1.943,1.943,1.943,1.943,1.943,1.9078,1.8945,1.8945,1.8945,1.8025,1.639,1.6831,1.5905,1.3978,1.4035,1.4641,1.5689,1.554,1.6299,1.749,1.6009,1.6178,1.7052,1.5631,1.5768,1.6673,1.6393,1.6086,1.5594,1.428,1.2969,1.1658,1.0386,1.0002,1.0288,1.1609,1.2909,1.4172,1.5486,1.5784,1.5784,1.5784,1.5784,1.5391,1.4124,1.2813,1.1463,1.019,0.985,0.9962,1.0668,0.9485,0.8738,0.9667,0.9438,0.0,0.9706,0.8808,0.8253,0.8473,0.7688,0.7584,0.8815,0.8222,0.8551,1.0366,0.9811,0.9259,0.8851,0.9197,0.9435,0.9453,1.1711,1.1919,1.0047,0.0,0.0,0.0,0.0,0.0,0.0,0.0,0.0,0.0,0.0,0.0,0.0,0.0,0.0,0.0,0.0,0.0,0.0,0.0,0.0,0.0,0.0,1.4663,1.47,1.3786,1.3715,1.5225,1.4519,1.4479,1.5883,1.7372,1.8359,1.8635,1.9158,1.9386,1.9252,1.9319,1.943,1.943,1.943,1.943,1.943,1.9292,1.9239,1.9239,1.9239,1.8849,1.8151,1.8112,1.7086,1.5409,1.6423,1.6496,1.592,1.6905,1.7526,1.7836,1.7238,1.7213,1.7462,1.7029,1.6964,1.7032,1.6687,1.6393,1.58,1.3516,1.2426,1.1658,1.0386,1.0002,1.0485,1.2716,1.3632,1.4172,1.5486,1.5784,1.5784,1.5784,1.5092,1.4076,1.2716,1.1404,1.0141,0.8825,0.8541,0.8561,0.875,0.8427,0.8188,0.8353,0.0,0.0,0.8196,0.7887,0.7976,0.8863,0.7944,0.7762,0.8788,0.8048,0.766,0.0,0.7878,0.7709,0.7577,0.7709,0.7892,0.8134,0.9163,0.925,0.0,0.0,0.0,0.0,0.0,0.0,0.0,0.0,0.0,0.0,0.0,0.0,0.0,0.0,0.0,0.0,0.0,0.0,0.0,0.0,0.0,0.0,1.4834,1.6126,1.662,1.4721,1.3613,1.4364,1.3791,1.3927,1.5576,1.7358,1.8571,1.9061,1.9426,1.9546,1.943,1.943,1.943,1.943,1.943,1.943,1.943,1.9239,1.9185,1.9185,1.9185,1.9092,1.8918,1.8878,1.8164,0.0,1.784,1.7575,1.6684,1.7515,1.7849,0.0,0.0,0.0,0.0,0.0,1.7315,1.6954,1.6914,1.662,1.5869,1.3231,1.2181,1.1658,1.0386,1.0386,1.1219,1.3295,1.4268,1.4854,1.5629,1.5784,1.5689,1.514,1.4459,1.3392,1.1502,1.0534,0.9608,0.8287,0.0,0.0,0.7988,0.8187,0.8471,0.8788,0.8679,0.8608,0.0,0.8203,0.8211,0.8945,0.811,0.7734,0.8286,0.7934,0.0,0.0,0.0,0.7496,0.7558,0.7565,0.0,0.0,0.0,0.8649,0.0,0.0,0.0,0.0,0.7685,0.7726,0.0,0.0,0.0,0.0,0.0,0.0,0.0,0.0,0.0,0.0,0.0,0.0,0.0,0.0,0.0,0.0,1.6028,1.725,1.8203,1.5886,1.3683,1.2594,1.2449,1.3048,1.448,1.6231,1.7901,1.9301,1.9457,1.9399,1.943,0.0,0.0,0.0,0.0,1.943,1.943,1.9105,1.8971,1.8971,1.8971,1.8971,1.8985,1.9185,1.8985,1.849,1.845,1.8116,1.7582,1.7622,1.7609,1.7477,1.6168,1.6446,1.7582,1.7582,1.7248,0.0,0.0,0.0,0.0,1.3463,1.2439,1.1901,1.0779,1.1219,1.2377,1.3728,1.4949,1.5784,1.5784,1.5784,1.5486,1.422,1.3776,1.3006,1.0534,0.9903,0.941,0.8237,0.7988,0.7988,0.7988,0.8379,0.9019,0.9928,0.9672,0.0,0.9908,0.9118,0.8612,0.8939,0.0,0.0,0.7786,0.7914,0.7846,0.7597,0.7832,0.799,0.8131,0.8152,0.8418,0.9049,0.9218,0.9125,0.8726,0.8873,0.8621,0.7988,0.8237,0.8313,0.0,0.0,0.0,0.0,0.0,0.0,0.0,0.0,0.0,0.0,0.0,0.0,0.0,0.0,0.0,1.6005,1.7288,1.7929,1.7374,1.6751,1.5792,1.4292,1.4123,1.4242,1.454,1.7411,1.9318,1.9386,1.9586,1.9613,1.943,1.943,0.0,1.943,1.943,1.943,1.943,1.9319,1.9279,1.9279,0.0,0.0,1.9265,1.8851,1.8597,1.8477,1.8237,1.7929,1.7595,1.7849,1.7809,1.7582,1.7305,1.7371,1.7582,1.7582,1.7515,1.7422,1.7475,1.7114,1.6371,1.4829,1.3952,1.3488,1.3199,1.3343,0.0,1.5045,1.5629,1.5784,1.5784,1.5784,1.5486,1.422,1.3054,1.1853,1.0337,0.9164,0.8336,0.8038,0.7988,0.7988,0.7988,0.8088,0.8194,0.8428,0.8357,0.8357,0.8421,0.814,0.8356,0.9349,0.8441,0.8111,0.8965,0.8326,0.7767,0.7604,0.7644,0.7705,0.7739,0.7801,0.7925,0.8049,0.8202,0.8265,0.8137,0.8215,0.8115,0.7988,0.8038,0.8058,0.0,0.0,0.0,0.0,0.0,0.0,0.0,0.0,0.0,0.0,0.0,1.3699,1.4531,0.0,1.6805,1.7265,1.8386,1.8955,1.826,1.7501,1.6079,1.3706,1.4837,1.5488,1.4658,1.7634,1.9519,1.943,1.9506,1.9519,1.943,1.943,1.943,1.943,1.943,1.943,1.943,1.943,1.943,1.943,1.943,1.943,1.9359,1.8905,1.8704,1.8691,1.8397,1.8103,1.7809,1.7809,1.7716,1.7582,1.7582,1.7541,1.7434,1.7528,1.7541,1.7434,1.7528,1.7194,1.64,1.4445,1.3849,1.38,1.3295,1.3494,1.4196,1.5656,1.5939,1.5784,1.5784,1.5784,1.5296,1.3343,1.2377,1.1365,0.941,0.8478,0.7988,0.7988,0.7988,0.7988,0.7988,0.7988,0.7988,0.7988,0.7988,0.7988,0.7988,0.7921,0.8132,0.8736,0.8266,0.8104,0.8676,0.8217,0.7862,0.7712,0.778,0.7821,0.7821,0.7889,0.7874,0.7874,0.7948,0.7988,0.7988,0.7988,0.7988,0.7988,0.7988,0.7988,0.0,0.0,0.0,0.0,0.0,0.0,0.0,0.0,1.3795,1.4758,1.5078,1.5503,1.6584,1.7696,1.8422,1.833,1.9172,1.9693,1.947,1.7981,1.602,1.3457,1.5419,1.6492,1.5192,1.7689,1.943,1.943,1.943,1.943,1.943,1.943,1.943,1.943,1.943,1.943,1.943,1.943,1.943,1.943,1.943,1.943,1.9417,1.9065,1.8918,1.8905,1.8624,1.8357,1.8062,1.7796,1.7635,1.7582,1.7582,1.7487,1.7313,1.7502,1.7435,1.7313,1.7487,1.7154,1.6336,1.4185,1.3899,1.4183,1.3308,1.3693,1.4618,1.5884,1.6019,1.5784,1.5784,1.5629,1.4806,1.2484,1.1707,1.0877,0.8528,0.7988,0.7988,0.7988,0.7988,0.7988,0.7988,0.7988,0.7988,0.7988,0.7988,0.7988,0.7988,0.7988,0.7988,0.7988,0.7988,0.7988,0.7988,0.7988,0.7934,0.7862,0.7921,0.7988,0.7988,0.7988,0.7988,0.7988,0.7988,0.7988,0.7988,0.7988,0.7988,0.7988,0.7988,0.7988,1.3259,1.3316,1.3816,1.3589,1.3707,1.4206,0.0,0.0,1.5452,1.6665,1.7093,1.7351,1.778,1.84,1.8827,1.8827,1.9345,1.9693,1.947,1.7981,1.6844,1.6492,1.6786,1.6903,1.6727,1.8344,1.943,1.943,1.943,1.943,1.943,1.943,1.943,1.943,1.943,1.943,1.943,1.943,1.943,1.943,1.943,1.943,1.9417,1.9065,1.8918,1.8905,1.8624,1.8477,1.8424,1.8062,1.7836,1.7582,1.7582,1.7569,1.7542,1.7569,1.7555,1.7554,1.7326,1.7032,1.661,1.6098,1.598,1.5923,1.5556,1.5695,1.602,1.5891,1.5811,1.5784,1.5784,1.4949,1.3728,1.2242,1.1023,0.9805,0.8336,0.7988,0.7988,0.7988,0.7988,0.7988,0.7988,0.7988,0.7988,0.7988,0.7988,0.7988,0.7988,0.7988,0.7988,0.7988,0.7988,0.7988,0.7988,0.7988,0.7982,0.7968,0.7982,0.7988,0.7988,0.7988,0.7988,0.7988,0.7988,0.7988,0.7988,0.7988,0.7988,0.7988,0.7988,0.7988,1.4641,1.438,1.4375,0.0,1.4903,1.5345,1.6285,1.6484,1.6697,1.7514,1.7903,1.8196,1.8448,1.9038,1.9372,0.0,1.9666,1.9893,1.9439,1.8823,1.8288,1.79,1.7862,1.7633,1.7055,1.846,1.943,1.943,1.943,1.943,1.943,1.943,1.943,1.943,1.943,1.943,1.943,1.943,1.943,1.943,1.943,1.943,1.9417,1.9065,1.8918,1.8918,1.8798,1.8744,1.8704,1.8223,1.7956,1.7822,1.7649,1.7582,1.7582,1.7582,1.7582,1.7569,1.7448,1.7259,1.6839,1.5948,1.606,1.6378,1.567,1.5841,1.6286,1.6326,1.6086,1.5824,1.6046,1.5015,1.3619,1.2457,1.1058,0.9657,0.8287,0.7988,0.7988,0.7988,0.7988,0.7988,0.7988,0.7988,0.7988,0.7988,0.7988,0.7988,0.7988,0.7988,0.7988,0.7988,0.7988,0.7988,0.7988,0.7988,0.7988,0.7988,0.7988,0.7988,0.7988,0.7988,0.7988,0.7988,0.7988,0.7988,0.7988,0.7988,0.7988,0.7988,0.7988,0.8085,1.4951,0.0,0.0,1.5301,1.581,1.6275,1.6921,1.7248,1.7569,1.8143,1.8384,1.8597,1.8971,1.9399,1.9613,1.9457,1.9786,1.9933,1.9497,1.8866,1.849,1.8488,1.7945,1.7525,1.731,1.85,1.9239,1.9239,1.9399,1.9492,1.9492,1.9492,1.9492,1.9492,1.947,1.943,1.943,1.943,1.943,1.943,1.943,1.943,1.9417,1.9145,1.9052,1.9052,1.9052,1.8958,1.8771,1.833,1.805,1.7876,1.7662,1.7582,1.7582,1.7582,1.7582,1.7569,1.7541,1.738,1.7025,1.5958,1.6164,1.6696,1.5844,1.6062,1.6589,1.6673,1.6393,1.6016,1.5836,1.4973,1.3739,1.2224,1.0957,0.9739,0.8398,0.8049,0.8002,0.8092,0.8015,0.7988,0.7988,0.7988,0.7988,0.7988,0.7988,0.7988,0.7988,0.7988,0.7988,0.7988,0.7988,0.7988,0.7988,0.7988,0.7988,0.7988,0.7988,0.7988,0.7988,0.7988,0.7988,0.7988,0.8029,0.8106,0.8106,0.814,0.816,0.816,0.816,0.8221,0.0,0.0,1.4999,1.5487,1.6136,1.6887,1.7742,1.7955,1.8129,1.8771,1.8677,1.8664,1.931,1.943,1.943,1.943,1.9626,1.9706,1.947,1.7533,1.6782,1.8324,1.6592,1.5994,0.0,1.8542,1.8945,1.8945,1.9466,1.9786,1.9786,1.9786,1.9786,1.9786,1.9519,1.943,1.943,1.943,1.943,1.943,1.943,1.943,1.943,1.9417,1.9359,1.9359,1.9359,1.9025,1.8504,1.8477,1.813,1.7595,1.7582,1.7582,1.7582,1.7582,1.7582,1.7542,1.7313,1.7206,1.7152,1.6757,1.6914,1.7139,1.6757,1.6914,1.7112,1.678,1.6687,1.6373,1.4939,1.4675,1.4055,1.1147,1.0399,1.0061,0.8744,0.8241,0.8035,0.8235,0.814,0.7988,0.7988,0.7988,0.7988,0.7988,0.7988,0.7988,0.7988,0.7988,0.7988,0.7988,0.7988,0.7988,0.7988,0.7988,0.7988,0.7988,0.7988,0.7988,0.7988,0.7988,0.7988,0.7988,0.8187,0.8313,0.8313,0.8397,0.8465,0.8465,0.8465,0.8472,1.4183,0.0,1.6114,1.6553,1.7257,1.7969,1.8277,1.849,1.8515,1.8328,1.8372,1.8318,1.824,1.8114,1.8203,1.8711,1.881,1.8967,1.935,1.8782,1.8194,1.7929,1.7277,0.0,0.0,0.0,0.0,1.8905,1.9466,1.98,1.98,1.9987,2.0,1.9813,1.9706,1.9559,1.943,1.9559,1.9653,1.9653,1.9653,1.9559,1.943,1.943,1.943,1.943,1.943,1.9145,1.8758,1.8571,1.825,1.7876,1.7662,1.7582,1.7582,1.7582,1.7582,1.7569,1.7527,1.7487,1.7317,1.6196,1.6599,1.7252,1.6196,1.6484,1.7179,1.7072,1.6176,1.5202,1.491,1.41,1.2884,1.1168,1.0637,1.0209,0.8779,0.833,0.8208,0.8313,0.8147,0.7988,0.7988,0.7988,0.7988,0.7988,0.7988,0.7988,0.7988,0.7988,0.7988,0.7988,0.7988,0.7988,0.7988,0.7988,0.7988,0.7988,0.8133,0.8147,0.7995,0.814,0.8147,0.7988,0.8194,0.832,0.832,0.8411,0.8479,0.8479,0.8479,0.8533,1.4951,1.5965,1.7016,1.7538,1.8063,1.8517,1.8624,1.8544,1.8413,1.8235,1.7923,1.7605,1.75,1.7254,1.7217,1.7829,1.7939,1.8224,1.8975,1.8841,1.8465,1.7956,1.7675,0.0,0.0,0.0,0.0,1.7943,1.866,1.9155,1.9155,1.9819,2.0201,2.012,1.9813,1.9653,1.9679,1.976,1.9853,1.996,1.9853,1.9706,1.9519,1.9412,1.943,1.943,1.943,1.9199,1.8905,1.8718,1.8464,1.817,1.7876,1.7742,1.7729,1.7622,1.7582,1.7582,1.7582,1.7582,1.7371,1.5902,1.6393,1.7318,1.5849,1.6321,1.7353,1.7353,1.611,1.4861,1.5077,1.3991,1.266,1.1905,1.1248,1.0504,0.9633,0.8846,0.8364,0.8418,0.8303,0.8194,0.8194,0.8153,0.8106,0.7995,0.7988,0.7988,0.7988,0.7988,0.7988,0.7988,0.7988,0.7988,0.7988,0.7988,0.8015,0.8119,0.8214,0.8248,0.8201,0.8296,0.8303,0.8201,0.835,0.8425,0.8431,0.8574,0.8648,0.8648,0.8648,0.8696,1.5721,1.6766,1.7701,1.8346,1.8517,1.8584,1.8824,1.8183,1.7762,1.839,1.7349,1.6536,0.0,0.0,1.6564,1.6725,1.7078,1.7589,1.8398,1.7849,1.7621,0.0,0.0,0.0,0.0,0.0,0.0,1.6233,0.0,1.8032,1.8067,1.9424,2.0374,2.0668,1.9853,1.9679,2.0227,1.9973,1.9987,2.0193,1.996,1.9813,1.9786,1.9506,1.943,1.943,1.943,1.9199,1.8918,1.8918,1.8744,1.8437,1.8102,1.7969,1.7956,1.7689,1.7582,1.7582,1.7582,1.7582,1.7371,1.5902,1.6393,1.7305,1.5743,1.6393,1.7582,1.7424,1.6393,1.5304,1.5304,1.4234,1.321,1.321,1.2033,1.0943,1.0958,0.9655,0.8533,0.8682,0.8587,0.8479,0.8479,0.8364,0.8221,0.8022,0.7995,0.7988,0.7988,0.7988,0.7988,0.7988,0.7988,0.7988,0.7988,0.7988,0.8106,0.8313,0.8327,0.8395,0.8479,0.8486,0.8492,0.8479,0.8635,0.871,0.871,0.8811,0.8885,0.8885,0.8885,0.8885,1.6687,1.7673,1.8589,1.8731,1.8811,1.8718,1.8302,1.7898,1.7477,1.698,1.6359,1.5761,0.0,0.0,0.0,1.6149,1.6711,0.0,1.8611,1.8811,0.0,1.8517,0.0,1.845,1.8384,1.7547,0.0,0.0,1.8348,1.9538,1.9967,2.0103,2.0374,2.0668,2.0241,2.008,2.0167,2.0374,2.0494,2.0561,2.0267,2.0013,1.9786,1.9506,1.943,1.943,1.943,1.9199,1.8918,1.8918,1.8568,1.8102,1.8022,1.7903,1.7689,1.7609,1.7582,1.7582,1.7582,1.7582,1.7371,1.5902,1.6393,1.7147,1.4609,1.5583,1.7147,1.4995,1.4126,1.3857,1.3857,1.2724,1.1647,1.1647,1.1339,1.0778,0.9691,0.9056,0.8662,0.8703,0.8587,0.8479,0.8479,0.8364,0.8306,0.8214,0.8113,0.7988,0.7988,0.7988,0.7988,0.7988,0.7988,0.7988,0.7988,0.7988,0.8106,0.8313,0.837,0.8445,0.8479,0.8587,0.8601,0.8486,0.8635,0.871,0.871,0.8811,0.8885,0.8885,0.8885,0.8885,1.7659,1.841,1.9118,1.9118,1.8824,1.8398,1.803,1.7272,1.6583,1.6287,1.5567,0.0,0.0,0.0,0.0,0.0,0.0,0.0,1.8317,1.8664,1.8851,0.0,1.9092,0.0,1.9252,1.8557,1.8168,0.0,1.8618,1.894,1.9445,1.9942,2.0374,2.0668,2.0267,2.0107,2.0167,2.0535,2.0735,2.0869,2.0575,2.0281,1.9987,1.9693,1.9492,1.943,0.0,1.9265,1.9105,1.8985,1.8675,1.8355,1.8089,1.7889,1.7769,1.7635,1.7582,1.7582,1.7582,1.7582,1.7371,1.5902,1.648,1.7209,1.4213,1.5398,1.7156,1.4159,1.3318,1.3318,1.3318,1.1755,1.0453,1.1755,1.1055,1.0076,0.9919,0.9304,0.8811,0.8811,0.8743,0.8662,0.8594,0.852,0.8418,0.834,0.8194,0.814,0.814,0.8029,0.7988,0.7988,0.7988,0.8015,0.8133,0.814,0.8235,0.8452,0.854,0.8615,0.8682,0.8764,0.8771,0.8682,0.8764,0.8811,0.8811,0.896,0.9035,0.9035,0.9103,0.913,1.8494,1.9038,1.9466,1.9439,1.8758,1.801,1.7867,1.6635,1.5618,1.5884,0.0,1.4026,1.3933,1.4226,1.45,1.4545,0.0,1.6703,1.7916,1.8076,1.8504,1.9666,1.9613,1.9693,2.0241,2.0294,2.0267,2.018,1.8661,1.7901,1.8263,1.9472,2.0307,2.0615,2.012,2.0,2.0294,2.0548,2.0815,2.1109,2.0775,2.0481,2.0167,1.9893,1.9599,1.943,0.0,0.0,1.9403,1.9092,1.8958,1.8878,1.8302,1.8062,1.7955,1.7742,1.7622,1.7582,1.7582,1.7582,1.7371,1.6115,1.6753,1.7443,1.4516,1.5549,1.7089,1.3974,1.3034,1.3034,1.3004,1.0945,0.9588,1.2354,1.0891,0.9265,1.0507,0.9809,0.8885,0.8885,0.8885,0.8844,0.8764,0.8723,0.8621,0.837,0.8361,0.8347,0.8347,0.8147,0.7995,0.8015,0.8002,0.8099,0.8255,0.832,0.8397,0.8689,0.871,0.8777,0.8878,0.8885,0.8885,0.8885,0.8885,0.8892,0.8967,0.9089,0.9221,0.9241,0.932,0.9381,1.9162,1.9639,2.0027,1.9786,1.9065,1.8266,1.7725,1.6592,0.0,0.0,0.0,1.3526,1.2962,1.315,1.3579,1.4269,0.0,0.0,0.0,0.0,1.8758,0.0,0.0,0.0,0.0,0.0,0.0,0.0,0.0,0.0,2.0191,2.0013,2.0013,2.0294,2.0214,2.0307,2.0601,2.0655,2.0815,2.1096,2.0561,2.0281,2.0153,1.9679,1.9412,1.943,0.0,0.0,1.9417,1.9319,1.9145,1.8918,1.8755,1.8422,1.7982,1.7929,1.7809,1.7582,1.7582,1.7582,1.7582,1.7305,1.7556,1.7685,1.597,1.5928,1.5791,1.2664,1.171,1.162,1.1527,1.0186,0.932,1.1055,1.0131,0.8995,0.921,0.9099,0.8885,0.8885,0.8885,0.8871,0.8851,0.8798,0.8696,0.8642,0.8526,0.8445,0.8445,0.8208,0.8042,0.8214,0.8113,0.8099,0.8255,0.832,0.8397,0.8689,0.871,0.8777,0.8878,0.8885,0.8885,0.8885,0.8885,0.8994,0.9173,0.92,0.9275,0.934,0.9367,0.9381,1.9816,2.0099,2.0301,2.0753,1.9431,1.7857,1.713,0.0,0.0,0.0,1.3748,1.3168,1.274,0.0,0.0,0.0,0.0,0.0,0.0,0.0,0.0,0.0,0.0,0.0,0.0,0.0,0.0,0.0,0.0,0.0,2.0201,2.0094,2.0013,2.0013,2.0013,2.0147,2.0441,2.0441,2.0588,2.0882,2.0601,2.0307,2.0,1.972,1.9506,1.943,0.0,0.0,1.9417,1.9199,1.9052,1.8905,1.8758,1.8531,1.8277,1.8277,1.8183,1.805,1.805,1.805,1.805,1.805,1.8143,1.7786,1.5352,1.5412,1.5659,1.2541,1.1524,1.1385,1.1478,1.0344,0.9334,1.0062,0.9674,0.9171,0.9171,0.9171,0.9144,0.9062,0.9117,0.9117,0.8912,0.894,0.8886,0.873,0.8648,0.8601,0.8601,0.8404,0.8296,0.837,0.8316,0.833,0.8486,0.8499,0.8594,0.8818,0.8832,0.8804,0.8878,0.8885,0.8885,0.8885,0.9015,0.9083,0.9207,0.9313,0.9429,0.9503,0.9578,0.9612,2.0703,2.09,2.0944,2.1682,1.9788,1.7473,1.661,1.5188,0.0,0.0,1.3316,1.2894,1.2616,0.0,1.3409,0.0,0.0,0.0,0.0,0.0,0.0,0.0,0.0,0.0,0.0,0.0,0.0,0.0,0.0,0.0,0.0,2.0013,2.004,1.9813,1.9733,1.984,2.0134,2.0134,2.0294,2.0575,2.0521,2.0241,1.98,1.9733,1.9586,1.943,0.0,0.0,0.0,1.9118,1.9025,1.8998,1.8771,1.8637,1.8584,1.8584,1.8544,1.849,1.849,1.849,1.849,1.849,1.8531,1.8086,1.5489,1.5558,1.6022,1.3154,1.2006,1.1537,1.1331,1.0351,0.9381,0.9381,0.9381,0.9381,0.9381,0.9381,0.9347,0.9282,0.933,0.9266,0.9069,0.9076,0.9035,0.8838,0.8777,0.8757,0.8757,0.8655,0.8581,0.8581,0.852,0.8547,0.8696,0.871,0.8777,0.8871,0.8885,0.8885,0.8885,0.8912,0.8988,0.8988,0.913,0.9275,0.9309,0.949,0.9625,0.9659,0.9768,0.9822,2.2042,2.2557,2.257,2.2242,2.0046,1.7667,1.6477,0.0,0.0,1.3436,1.3072,1.2691,1.2228,1.2536,1.3013,0.0,0.0,0.0,0.0,0.0,0.0,0.0,0.0,0.0,0.0,0.0,0.0,0.0,0.0,0.0,0.0,1.9826,1.9826,1.98,1.9546,1.9546,1.984,1.984,1.9987,2.0267,2.0,1.9853,1.9786,1.9533,1.9399,1.943,0.0,0.0,0.0,1.939,1.9332,1.9319,1.935,1.9118,1.8878,1.8878,1.8718,1.849,1.849,1.849,1.849,1.849,1.8664,1.8821,1.8499,1.7708,1.6576,1.4703,1.3073,1.1578,1.0048,0.9497,0.9381,0.9381,0.9381,0.9381,0.9381,0.9381,0.9374,0.9361,0.9316,0.9268,0.932,0.913,0.8994,0.9152,0.9001,0.8865,0.8865,0.8851,0.8844,0.8844,0.8648,0.8547,0.8696,0.871,0.8777,0.8871,0.8885,0.8885,0.8885,0.9062,0.9187,0.9187,0.9279,0.9429,0.9564,0.9598,0.968,0.9802,0.9815,0.9822,2.1734,2.2632,2.2992,2.3298,2.0964,1.8015,1.6082,0.0,1.3374,1.3073,1.2889,1.2721,1.2444,1.2445,1.2594,0.0,0.0,0.0,0.0,0.0,0.0,0.0,0.0,0.0,0.0,0.0,0.0,0.0,0.0,0.0,0.0,1.9706,1.972,1.9546,1.9599,1.9679,1.98,1.98,1.9853,1.9973,1.9853,1.9706,1.9533,1.9426,1.943,1.943,0.0,0.0,0.0,1.943,1.9265,1.9118,1.9292,1.9185,1.8945,1.9118,1.9118,1.9011,1.9011,1.9011,1.9011,1.9011,1.9092,1.8973,1.7805,1.7237,1.6645,1.4959,1.3345,1.1971,1.1252,1.0354,0.9646,0.9646,0.9646,0.9646,0.9646,0.9646,0.9618,0.9537,0.9537,0.9517,0.9401,0.9361,0.93,0.9228,0.9103,0.9035,0.8892,0.8885,0.8885,0.8885,0.8832,0.8784,0.8845,0.8927,0.9001,0.9062,0.915,0.9205,0.9205,0.9259,0.935,0.935,0.9442,0.9551,0.9612,0.9693,0.9768,0.9822,0.9822,0.9822,2.085,2.1877,2.2276,2.303,2.0768,1.7761,0.0,0.0,1.304,1.2789,1.2833,1.2866,1.2789,1.2696,1.2739,0.0,0.0,0.0,0.0,0.0,0.0,0.0,0.0,0.0,0.0,0.0,0.0,0.0,0.0,0.0,0.0,0.0,1.9586,1.943,1.9559,1.9679,1.9679,1.9679,1.9679,1.9679,1.9679,1.9559,1.943,1.943,1.943,0.0,0.0,0.0,0.0,1.9265,1.9158,1.9078,1.9292,1.9239,1.9078,1.9292,1.943,1.943,1.943,1.943,1.943,1.943,1.943,1.9145,1.7757,1.753,1.7267,1.5192,1.3108,1.1495,1.1495,1.0657,0.9822,0.9822,0.9822,0.9822,0.9822,0.9822,0.9788,0.9693,0.972,0.9707,0.9537,0.953,0.9483,0.9313,0.9309,0.9171,0.9022,0.9042,0.9049,0.9008,0.9042,0.9049,0.9008,0.9137,0.9275,0.9275,0.932,0.9381,0.9381,0.9422,0.9449,0.9449,0.9598,0.9673,0.9673,0.9774,0.9822,0.9822,0.9822,0.9822,1.9472,2.021,2.0239,2.0826,1.8979,1.6608,0.0,0.0,1.3113,1.2679,1.2869,1.3092,1.3092,1.3346,1.3528,1.3334,0.0,0.0,0.0,0.0,0.0,0.0,0.0,0.0,0.0,0.0,0.0,0.0,0.0,0.0,0.0,0.0,1.943,1.943,1.943,1.943,1.943,1.943,1.943,1.943,1.943,1.943,1.943,1.943,0.0,0.0,0.0,0.0,0.0,1.9052,1.9105,1.9417,1.943,1.9417,1.9417,1.943,1.943,1.943,1.943,1.943,1.943,1.943,1.943,1.943,1.9359,1.9359,1.8706,1.5499,1.2277,0.9822,0.9822,0.9822,0.9822,0.9822,0.9822,0.9822,0.9822,0.9822,0.9822,0.9822,0.9707,0.9652,0.9795,0.9578,0.9435,0.9585,0.9476,0.932,0.9228,0.9344,0.932,0.9221,0.9344,0.9313,0.9221,0.9293,0.9381,0.9381,0.9381,0.9381,0.9381,0.953,0.9605,0.9605,0.9747,0.9822,0.9822,0.9822,0.9822,0.9822,0.9822,0.9822,1.7524,1.8546,1.9004,1.9304,1.7963,1.6205,1.4715,0.0,1.2689,1.2632,1.2869,1.3092,1.3092,1.3171,1.3309,1.3408,1.3026,0.0,0.0,0.0,0.0,0.0,0.0,0.0,0.0,0.0,0.0,0.0,0.0,0.0,0.0,0.0,1.943,1.943,1.943,1.943,1.943,1.943,1.943,1.943,1.943,1.943,1.943,1.943,0.0,0.0,0.0,0.0,0.0,1.9265,1.9158,1.9078,1.9292,1.9239,1.9092,1.9292,1.943,1.943,1.943,1.943,1.943,1.943,1.943,1.9185,1.811,1.7747,1.7091,1.3885,1.1434,0.9822,0.9822,0.9822,0.9822,0.9822,0.9822,0.9822,0.9822,0.9822,0.9822,0.9822,0.9781,0.9768,0.9815,0.9741,0.9666,0.9618,0.9571,0.9483,0.9327,0.9354,0.9361,0.9313,0.9449,0.9476,0.932,0.9449,0.9537,0.9537,0.9625,0.968,0.968,0.9727,0.9754,0.9754,0.9795,0.9822,0.9822,0.9822,0.9822,0.9822,0.9822,0.9876,1.5418,1.6377,1.6924,1.7172,1.6528,0.0,0.0,0.0,1.257,1.2445,1.268,1.2899,1.2899,1.2766,1.2783,1.3241,1.278,0.0,0.0,0.0,0.0,0.0,0.0,0.0,0.0,0.0,0.0,0.0,0.0,0.0,0.0,0.0,1.943,1.943,1.943,1.943,1.943,1.943,1.943,1.943,1.943,1.943,1.943,0.0,0.0,0.0,0.0,0.0,0.0,1.9132,1.9065,1.9105,1.9292,1.9252,1.9118,1.9305,1.901,1.846,1.846,1.811,1.7572,1.7572,1.7572,1.7279,1.5666,1.5182,1.4767,1.2749,1.102,0.9822,0.9822,0.9822,0.9822,0.9822,0.9822,0.9822,0.9822,0.9822,0.9822,0.9822,0.9822,0.9822,0.9822,0.9822,0.9788,0.97,0.9686,0.9639,0.949,0.9517,0.953,0.9469,0.9598,0.9652,0.9557,0.9632,0.9686,0.9686,0.9774,0.9822,0.9822,0.9822,0.9822,0.9822,0.9822,0.9822,0.9822,0.9876,0.9937,0.9992,0.9992,1.0046,0.0,1.3905,1.4229,1.4567,1.4731,1.4607,1.362,0.0,0.0,1.2243,1.2427,1.2674,1.2704,1.2288,1.2221,1.2957,1.268,0.0,0.0,0.0,0.0,0.0,0.0,0.0,0.0,0.0,0.0,0.0,0.0,0.0,0.0,0.0,0.0,1.943,1.943,1.943,1.943,1.943,1.943,1.943,1.9403,1.9403,1.943,0.0,0.0,0.0,0.0,0.0,0.0,1.8771,1.8865,1.939,1.9417,1.943,1.943,1.943,1.846,1.7149,1.7149,1.6138,1.4718,1.4658,1.454,1.4123,1.2637,1.2217,1.2157,1.2037,1.0959,0.9822,0.9822,0.9822,0.9822,0.9822,0.9822,0.9822,0.9822,0.9822,0.9822,0.9822,0.9822,0.9822,0.9822,0.9822,0.9822,0.9822,0.9822,0.9774,0.9639,0.9741,0.9768,0.9639,0.9741,0.9822,0.9822,0.9822,0.9822,0.9822,0.9822,0.9822,0.9822,0.9822,0.9822,0.9822,0.9829,0.9836,0.9836,0.993,1.0141,1.0283,1.0283,1.0283,1.2514,0.0,1.2867,1.3176,1.3282,1.3331,0.0,1.3123,0.0,0.0,0.0,0.0,0.0,0.0,1.2843,0.0,0.0,0.0,0.0,0.0,0.0,0.0,0.0,0.0,0.0,0.0,0.0,0.0,0.0,0.0,0.0,0.0,0.0,1.943,1.943,1.943,1.943,1.943,1.943,1.9417,1.9132,1.9145,1.9417,0.0,0.0,0.0,0.0,0.0,1.9038,1.9118,1.9105,1.9052,1.9279,1.943,1.943,1.943,1.9185,1.8823,1.8823,1.7806,1.6256,1.5015,1.3765,1.2689,1.2337,1.2217,1.1916,1.0717,1.0058,0.9822,0.9822,0.9822,0.9822,0.9822,0.9822,0.9822,0.9822,0.9822,0.9822,0.9822,0.9822,0.9822,0.9822,0.9822,0.9822,0.9822,0.9822,0.9808,0.9774,0.9802,0.9808,0.9774,0.9802,0.9822,0.9822,0.9822,0.9822,0.9822,0.9822,0.9822,0.9822,0.9822,0.9822,0.9822,0.9876,0.993,0.9936,1.0148,1.0243,1.0283,1.0283,1.0337,1.2336,1.2492,1.2585,1.2853,1.2933,1.3011,1.3283,0.0,0.0,0.0,0.0,0.0,0.0,0.0,0.0,0.0,0.0,0.0,0.0,0.0,0.0,0.0,0.0,0.0,0.0,0.0,0.0,0.0,0.0,0.0,0.0,0.0,0.0,0.0,1.9292,1.9305,1.9158,1.9305,1.9292,1.9158,1.9132,1.9145,1.9158,0.0,0.0,0.0,0.0,0.0,1.8731,1.8758,1.8359,1.7881,1.8805,1.8358,1.7279,1.804,1.7337,1.6197,1.6915,1.6138,1.4648,1.3765,1.2397,1.108,1.108,1.108,1.0899,1.0058,0.9822,0.9822,0.9822,0.9822,0.9822,0.9822,0.9822,0.9822,0.9822,0.9822,0.9822,0.9822,0.9822,0.9822,0.9822,0.9822,0.9822,0.9822,0.9822,0.9822,0.9822,0.9822,0.9822,0.9822,0.9883,0.9897,0.9829,0.9883,0.9897,0.9829,0.9822,0.9822,0.9822,0.9822,0.9856,0.9862,0.9943,1.0051,1.0256,1.0337,1.0412,1.048,1.048,1.0521,1.2538,1.2759,1.2932,1.2996,1.3092,1.3172,1.3282,0.0,0.0,0.0,0.0,0.0,0.0,0.0,0.0,0.0,0.0,0.0,0.0,0.0,0.0,0.0,0.0,0.0,0.0,0.0,0.0,0.0,0.0,0.0,0.0,0.0,0.0,0.0,1.9145,1.9158,1.8865,1.9199,1.9225,1.8931,1.9132,1.9118,1.8918,1.8781,0.0,0.0,0.0,0.0,1.841,1.791,1.724,1.6525,1.7717,1.6727,1.4736,1.6127,1.4886,1.2749,1.3825,1.3347,1.2157,1.1916,1.0899,0.9822,0.9822,0.9822,0.9822,0.9822,0.9822,0.9822,0.9822,0.9822,0.9822,0.9822,0.9822,0.9822,0.9822,0.9822,0.9822,0.9822,0.9822,0.9822,0.9822,0.9822,0.9822,0.9822,0.9822,0.9822,0.9822,0.9822,0.9829,0.9849,0.9909,0.9943,0.9903,1.0012,0.9963,0.9897,0.9869,0.9869,0.989,0.989,0.9951,1.0017,1.0044,1.0243,1.0493,1.0514,1.0595,1.0717,1.0717,1.0717,1.2632,1.3124,1.3346,1.2804,1.3011,1.3282,1.2959,0.0,0.0,0.0,0.0,0.0,0.0,0.0,0.0,0.0,0.0,0.0,0.0,0.0,0.0,0.0,0.0,0.0,0.0,0.0,0.0,0.0,0.0,0.0,0.0,0.0,0.0,0.0,0.0,1.8851,1.8557,1.9092,1.9225,1.8918,1.8718,1.8731,1.8905,1.8355,1.829,0.0,0.0,1.8303,1.8021,1.6968,1.6335,1.5908,1.5316,1.4808,1.4453,1.4824,1.4658,1.4063,1.2928,1.2397,1.1976,1.0604,0.9997,0.9822,0.9822,0.9822,0.9822,0.9822,0.9822,0.9822,0.9822,0.9822,0.9822,0.9822,0.9822,0.9822,0.9822,0.9822,0.9822,0.9822,0.9822,0.9822,0.9822,0.9822,0.9822,0.9822,0.9822,0.9822,0.9822,0.9822,0.9869,0.9936,0.997,1.0031,1.0202,1.0229,1.0236,1.0209,1.0086,1.0073,1.0202,1.0209,1.0222,1.0243,1.0365,1.0446,1.0493,1.0622,1.0697,1.0717,1.0717,1.0717,1.2633,1.3249,1.3636,1.3248,1.3247,1.3282,0.0,0.0,0.0,0.0,0.0,0.0,0.0,0.0,0.0,0.0,0.0,0.0,0.0,0.0,0.0,0.0,0.0,0.0,0.0,0.0,0.0,0.0,0.0,0.0,0.0,0.0,0.0,0.0,0.0,0.0,1.8009,1.8597,1.8824,1.8691,1.8718,1.8624,1.8382,1.8115,1.8023,0.0,0.0,1.7929,1.7702,1.638,1.5349,1.4569,1.4246,1.3182,1.1846,1.197,1.2569,1.3209,1.2396,1.2132,1.208,1.1264,1.047,0.9822,0.9822,0.9822,0.9822,0.9822,0.9822,0.9822,0.9822,0.9822,0.9822,0.9822,0.9822,0.9822,0.9822,0.9822,0.9822,0.9822,0.9822,0.9822,0.9822,0.9822,0.9822,0.9822,0.9822,0.9822,0.9822,0.9822,0.9876,0.997,1.0127,1.0202,1.0276,1.0351,1.0365,1.0283,1.0215,1.0209,1.0276,1.0283,1.0317,1.0392,1.046,1.0534,1.0616,1.0683,1.0717,1.0717,1.0717,1.0717,1.2602,1.3186,1.3574,1.3492,0.0,0.0,0.0,0.0,0.0,0.0,0.0,0.0,0.0,0.0,0.0,0.0,0.0,0.0,0.0,0.0,0.0,0.0,0.0,0.0,0.0,0.0,0.0,0.0,0.0,0.0,0.0,0.0,0.0,0.0,0.0,0.0,1.7702,1.8156,1.8384,1.8397,1.8611,1.8422,1.7995,1.7916,1.7809,1.7582,1.7582,1.7582,1.7477,1.5636,1.4342,1.3437,1.2984,1.1479,0.9571,0.968,1.0516,1.1595,1.1457,1.153,1.1591,1.1514,1.0733,0.9822,0.9822,0.9822,0.9822,0.9822,0.9822,0.9822,0.9822,0.9822,0.9822,0.9822,0.9822,0.9822,0.9822,0.9822,0.9822,0.9822,0.9822,0.9822,0.9822,0.9822,0.9822,0.9822,0.9822,0.9822,0.9822,0.9849,0.993,1.0024,1.0243,1.0344,1.0378,1.048,1.05,1.0392,1.0351,1.0344,1.0385,1.0385,1.0432,1.0541,1.0548,1.0602,1.0717,1.0717,1.0717,1.0717,1.0717,1.0717,1.2623,1.2873,1.298,1.3107,1.3124,0.0,1.4302,1.3872,0.0,1.4702,0.0,0.0,0.0,0.0,0.0,0.0,0.0,0.0,0.0,0.0,0.0,0.0,0.0,0.0,0.0,0.0,0.0,0.0,0.0,0.0,0.0,0.0,0.0,0.0,0.0,0.0,1.7955,1.8009,1.8022,1.8022,1.8049,1.8035,1.7982,1.7742,1.7609,1.7582,1.7582,1.7582,1.7371,1.4609,1.3383,1.3044,1.0555,0.9488,0.9401,0.9408,0.9562,0.9797,0.979,0.988,0.9997,0.999,0.9869,0.9822,0.9822,0.9822,0.9822,0.9822,0.9822,0.9822,0.9822,0.9822,0.9822,0.9822,0.9822,0.9822,0.9822,0.9822,0.9822,0.9822,0.9822,0.9822,0.9822,0.9822,0.9822,0.9822,0.9822,0.9822,0.9822,0.9883,1.0031,1.0249,1.0392,1.0534,1.0677,1.0697,1.0697,1.069,1.0555,1.0541,1.0683,1.069,1.0697,1.0704,1.0704,1.0711,1.0717,1.0717,1.0717,1.0717,1.0717,1.0717,1.2505,1.2937,1.3218,1.3377,1.3423,0.0,0.0,1.4123,1.4128,1.4615,0.0,0.0,0.0,0.0,0.0,0.0,0.0,0.0,0.0,0.0,0.0,0.0,0.0,0.0,0.0,0.0,0.0,0.0,0.0,0.0,0.0,0.0,0.0,0.0,0.0,0.0,0.0,1.7756,1.7756,1.7756,1.7902,1.7889,1.7756,1.7635,1.7582,1.7582,1.7582,1.7582,1.7345,1.4336,1.3186,1.3014,1.026,0.9303,0.9381,0.9381,0.9415,0.9456,0.9361,0.9483,0.9673,0.9578,0.9673,0.9822,0.9822,0.9822,0.9822,0.9822,0.9822,0.9822,0.9822,0.9822,0.9822,0.9822,0.9822,0.9822,0.9822,0.9822,0.9822,0.9822,0.9822,0.9822,0.9822,0.9822,0.9822,0.9822,0.9822,0.9856,0.9889,0.995,1.0078,1.0385,1.0541,1.0656,1.0717,1.0717,1.0717,1.0717,1.0663,1.0663,1.0717,1.0717,1.0717,1.0717,1.0717,1.0717,1.0717,1.0717,1.0717,1.0717,1.0717,1.0717,1.2383,1.2681,1.2898,1.3273,0.0,0.0,1.4349,1.436,1.442,1.512,0.0,0.0,0.0,0.0,0.0,0.0,0.0,0.0,0.0,0.0,0.0,0.0,0.0,0.0,0.0,0.0,0.0,0.0,0.0,0.0,0.0,0.0,0.0,0.0,0.0,0.0,0.0,1.7301,1.7301,1.7315,1.7528,1.7555,1.7501,1.7542,1.7475,1.7315,1.7408,1.7173,1.6548,1.3926,1.2476,1.1684,0.985,0.915,0.9239,0.9239,0.9273,0.9357,0.9303,0.9395,0.9598,0.9537,0.9659,0.9822,0.9822,0.9822,0.9822,0.9822,0.9822,0.9822,0.9822,0.9822,0.9822,0.9822,0.9822,0.9822,0.9822,0.9822,0.9822,0.9822,0.9822,0.9822,0.9822,0.9822,0.9822,0.9822,0.9863,0.9869,0.997,1.0065,1.0283,1.0534,1.0656,1.0717,1.0717,1.0717,1.0717,1.0717,1.0717,1.0717,1.0717,1.0717,1.0717,1.0717,1.0717,1.0744,1.0792,1.0792,1.0812,1.086,1.086,1.086,1.2326,1.201,1.1723,0.0,0.0,0.0,1.5271,1.4713,1.4406,0.0,0.0,0.0,0.0,0.0,0.0,0.0,0.0,0.0,0.0,0.0,0.0,0.0,0.0,0.0,0.0,0.0,0.0,0.0,0.0,0.0,0.0,0.0,0.0,0.0,0.0,0.0,0.0,1.67,1.67,1.67,1.67,1.686,1.7206,1.7487,1.7261,1.6727,1.7072,1.6292,1.4698,1.3211,1.1072,0.8723,0.8824,0.8885,0.8885,0.8885,0.9028,0.9228,0.9327,0.9476,0.9632,0.9768,0.9815,0.9822,0.9822,0.9822,0.9822,0.9822,0.9822,0.9822,0.9822,0.9822,0.9822,0.9822,0.9822,0.9822,0.9822,0.9822,0.9822,0.9822,0.9822,0.9822,0.9822,0.9822,0.9822,0.9822,0.9889,0.999,0.999,1.031,1.0555,1.0704,1.0717,1.0717,1.0717,1.0717,1.0717,1.0717,1.0717,1.0717,1.0717,1.0717,1.0717,1.0717,1.0717,1.0799,1.088,1.088,1.1023,1.1234,1.1234,1.1234,1.2088,1.2058,0.0,0.0,0.0,0.0,0.0,1.5,0.0,0.0,0.0,0.0,0.0,0.0,0.0,0.0,0.0,0.0,0.0,0.0,0.0,0.0,0.0,0.0,0.0,0.0,0.0,0.0,0.0,0.0,0.0,0.0,0.0,0.0,0.0,0.0,0.0,0.0,1.67,1.67,1.67,1.6754,1.6834,1.6927,1.6874,1.6714,1.6794,1.6062,1.4609,1.2353,1.0274,0.8574,0.8838,0.8885,0.8885,0.8885,0.8967,0.9008,0.9055,0.9164,0.935,0.934,0.9496,0.9673,0.9673,0.9741,0.9822,0.9822,0.9822,0.9822,0.9822,0.9822,0.9822,0.9822,0.9822,0.9822,0.9822,0.9822,0.9822,0.9822,0.9822,0.9822,0.9822,0.9849,0.9916,0.9916,1.0114,1.0249,1.0351,1.0534,1.067,1.0717,1.0717,1.0717,1.0717,1.0717,1.0717,1.0717,1.0717,1.0717,1.0717,1.0717,1.0717,1.0717,1.0717,1.0799,1.088,1.088,1.1023,1.1234,1.1234,1.1234,1.2102,0.0,0.0,0.0,0.0,0.0,0.0,0.0,0.0,0.0,0.0,0.0,0.0,0.0,0.0,0.0,0.0,0.0,0.0,0.0,0.0,0.0,0.0,0.0,0.0,0.0,0.0,0.0,0.0,0.0,0.0,0.0,0.0,0.0,0.0,0.0,0.0,0.0,0.0,1.6353,1.6353,1.6058,1.5603,1.6344,1.658,1.6255,1.5258,1.4094,1.2756,1.0681,0.9309,0.8425,0.873,0.8845,0.8804,0.8858,0.8885,0.8892,0.9001,0.9083,0.9221,0.9282,0.9367,0.9517,0.9517,0.9578,0.9646,0.9646,0.9646,0.9659,0.972,0.9734,0.9747,0.9808,0.9822,0.9822,0.9822,0.9822,0.9822,0.9822,0.9869,0.9849,0.9849,1.0039,1.0141,1.0141,1.027,1.0419,1.0561,1.0663,1.0717,1.0717,1.0717,1.0717,1.0717,1.0778,1.0812,1.0812,1.0812,1.0812,1.0812,1.0751,1.0751,1.0812,1.0812,1.0914,1.1124,1.1124,1.1199,1.1341,1.1341,1.1341,1.2215,0.0,0.0,0.0,0.0,0.0,0.0,0.0,0.0,0.0,0.0,0.0,0.0,0.0,0.0,0.0,0.0,0.0,0.0,0.0,0.0,0.0,0.0,0.0,0.0,0.0,0.0,0.0,0.0,0.0,0.0,0.0,0.0,0.0,0.0,0.0,0.0,0.0,0.0,0.0,1.5486,1.4854,1.38,1.5727,1.6277,1.5486,1.2969,1.117,0.9912,0.8758,0.832,0.8347,0.8581,0.8689,0.871,0.8804,0.8865,0.8885,0.9083,0.9187,0.9214,0.9293,0.9347,0.9361,0.9361,0.9367,0.9381,0.9381,0.9381,0.9415,0.9571,0.9612,0.9646,0.9788,0.9822,0.9822,0.9822,0.9822,0.9822,0.9822,0.9883,0.9984,0.9984,1.0188,1.0304,1.0317,1.0432,1.0561,1.0704,1.0717,1.0717,1.0717,1.0717,1.0717,1.0717,1.0793,1.088,1.088,1.0894,1.09,1.09,1.0806,1.0792,1.088,1.088,1.109,1.1389,1.1389,1.147,1.1619,1.1619,1.1619,0.0,1.2249,0.0,0.0,0.0,0.0,0.0,0.0,0.0,0.0,0.0,0.0,0.0,0.0,0.0,0.0,0.0,0.0,0.0,0.0,0.0,0.0,0.0,0.0,0.0,0.0,0.0,0.0,0.0,0.0,0.0,0.0,0.0,0.0,0.0,0.0,1.5784,1.4806,1.4316,0.0,1.3247,1.2581,1.2436,1.4883,1.5364,1.422,1.2619,1.117,0.9912,0.8758,0.832,0.834,0.8465,0.8533,0.8554,0.8703,0.8757,0.8777,0.8933,0.8988,0.8988,0.9022,0.911,0.9262,0.9262,0.9344,0.9381,0.9381,0.9381,0.9415,0.9571,0.9612,0.9646,0.9788,0.9822,0.9822,0.9822,0.9822,0.9822,0.9822,0.9883,0.9984,0.9984,1.027,1.0487,1.0609,1.0649,1.0683,1.0717,1.0717,1.0717,1.0717,1.0717,1.0717,1.0717,1.0793,1.088,1.088,1.1056,1.1118,1.1118,1.086,1.0792,1.088,1.088,1.109,1.1389,1.1389,1.147,1.1619,1.1619,1.1619,0.0,0.0,0.0,0.0,0.0,0.0,0.0,0.0,0.0,0.0,0.0,0.0,0.0,0.0,0.0,0.0,0.0,0.0,0.0,0.0,0.0,0.0,0.0,0.0,0.0,0.0,0.0,0.0,0.0,0.0,0.0,0.0,0.0,0.0,0.0,0.0,1.4902,1.422,1.3584,1.2909,1.2231,1.1901,1.195,1.3307,1.3247,1.1989,1.1307,1.0239,0.8981,0.8428,0.816,0.8174,0.8323,0.8384,0.8397,0.8547,0.8601,0.8615,0.8696,0.8771,0.8832,0.8832,0.8927,0.9049,0.9049,0.9103,0.9171,0.9171,0.9171,0.9218,0.9442,0.9503,0.9557,0.9768,0.9822,0.9822,0.9822,0.9822,0.9842,0.9856,1.0053,1.0181,1.0249,1.0453,1.0629,1.0711,1.0717,1.0717,1.0717,1.0717,1.0717,1.0717,1.0717,1.0751,1.0759,1.0968,1.1084,1.1158,1.1233,1.1274,1.1274,1.105,1.1002,1.1158,1.1158,1.1274,1.1497,1.1497,1.1545,1.1619,1.1619,1.1619,0.0,0.0,0.0,0.0,0.0,0.0,0.0,0.0,0.0,0.0,0.0,0.0,0.0,0.0,0.0,0.0,0.0,0.0,0.0,0.0,0.0,0.0,0.0,0.0,0.0,0.0,0.0,0.0,0.0,0.0,0.0,0.0,0.0,0.0,0.0,1.5123,1.3814,1.3611,1.2844,1.155,1.1269,1.1172,1.121,1.121,1.0742,1.0002,1.0002,0.9213,0.7988,0.7988,0.7988,0.8002,0.818,0.8235,0.8248,0.8391,0.8445,0.8452,0.8506,0.8608,0.8716,0.8743,0.8832,0.8885,0.8885,0.8885,0.8885,0.8885,0.8885,0.8952,0.9306,0.9381,0.9456,0.9747,0.9822,0.9822,0.9822,0.9842,0.9835,0.9963,1.0195,1.0365,1.0507,1.0636,1.0717,1.0717,1.0717,1.0717,1.0717,1.0717,1.0717,1.0717,1.0744,1.0812,1.0873,1.1104,1.1253,1.1382,1.1416,1.143,1.143,1.1307,1.1301,1.143,1.1402,1.1463,1.1619,1.1619,1.1619,1.1619,1.1619,1.1619,0.0,0.0,0.0,0.0,0.0,0.0,0.0,0.0,0.0,0.0,0.0,0.0,0.0,0.0,0.0,0.0,0.0,0.0,0.0,0.0,0.0,0.0,0.0,0.0,0.0,0.0,0.0,0.0,0.0,0.0,0.0,0.0,1.5324,1.5075,1.5297,0.0,1.3497,1.2498,1.1372,1.0084,0.8799,0.8244,0.8367,0.8367,0.8975,1.0002,1.0002,0.9213,0.7988,0.7988,0.7988,0.7988,0.8015,0.8022,0.8042,0.8241,0.8347,0.8336,0.8587,0.8696,0.873,0.8811,0.8865,0.8885,0.8885,0.8885,0.8885,0.8885,0.8885,0.8952,0.9306,0.9381,0.9456,0.9747,0.9822,0.9822,0.9822,0.9862,0.9963,0.9984,1.0276,1.0514,1.0663,1.0704,1.0717,1.0717,1.0717,1.0717,1.0717,1.0717,1.0717,1.0717,1.0772,1.086,1.088,1.1199,1.1369,1.1389,1.1518,1.1592,1.1592,1.1565,1.1565,1.1586,1.1457,1.1463,1.1619,1.1619,1.1619,1.1619,1.1619,1.1619,1.1648,0.0,0.0,0.0,0.0,0.0,0.0,0.0,0.0,0.0,0.0,0.0,0.0,0.0,0.0,0.0,0.0,0.0,0.0,0.0,0.0,0.0,0.0,0.0,0.0,0.0,0.0,0.0,0.0,0.0,0.0,1.5057,1.5017,1.4723,1.5003,0.0,1.3181,1.2074,1.0492,0.854,0.7907,0.7631,0.7692,0.7773,0.8181,0.8874,0.8874,0.8528,0.7988,0.7988,0.7988,0.7988,0.7988,0.7988,0.7995,0.8113,0.814,0.816,0.8289,0.8445,0.8594,0.8662,0.8798,0.8885,0.8885,0.8885,0.8885,0.8885,0.8994,0.911,0.9327,0.9442,0.9564,0.9774,0.9822,0.9822,0.9822,0.9876,1.0038,1.0263,1.0473,1.0643,1.0711,1.0717,1.0717,1.0717,1.0717,1.0717,1.0717,1.0717,1.0717,1.0717,1.0793,1.0982,1.1063,1.1267,1.143,1.1511,1.1586,1.1619,1.1619,1.1619,1.1619,1.1619,1.1552,1.1552,1.1619,1.1619,1.1619,1.1619,1.1619,1.1619,0.0,0.0,0.0,0.0,0.0,0.0,0.0,0.0,0.0,0.0,0.0,0.0,0.0,0.0,0.0,0.0,0.0,0.0,0.0,0.0,0.0,0.0,0.0,0.0,0.0,0.0,0.0,0.0,0.0,0.0,1.4536,1.4656,1.4643,1.4416,1.4629,1.4173,1.2913,1.1465,0.9618,0.7482,0.7482,0.7502,0.755,0.7692,0.7841,0.7934,0.7975,0.7988,0.7988,0.7988,0.7988,0.7988,0.7988,0.7988,0.7988,0.7988,0.7988,0.7995,0.8085,0.8241,0.8438,0.8513,0.8696,0.8831,0.8871,0.8885,0.8885,0.8885,0.9015,0.9144,0.9334,0.9462,0.9598,0.9781,0.9822,0.9842,0.9924,1.0025,1.0195,1.0493,1.0643,1.0717,1.0717,1.0717,1.0717,1.0717,1.0717,1.0717,1.0717,1.0717,1.0717,1.0717,1.0887,1.105,1.122,1.1341,1.1497,1.1613,1.1619,1.1619,1.1619,1.1619,1.1619,1.1619,1.1619,1.1619,1.1619,1.1653,1.1674,1.1674,1.1674,1.1694,0.0,0.0,0.0,0.0,0.0,0.0,0.0,0.0,0.0,0.0,0.0,0.0,0.0,0.0,0.0,0.0,0.0,0.0,0.0,0.0,0.0,0.0,0.0,0.0,0.0,0.0,0.0,0.0,0.0,0.0,1.4536,1.4282,1.4122,1.4108,1.4122,1.3643,1.2612,1.0378,0.8499,0.7119,0.7119,0.7244,0.7433,0.7543,0.7685,0.7828,0.7928,0.7988,0.7988,0.7988,0.7988,0.7988,0.7988,0.7988,0.7988,0.7988,0.7988,0.8008,0.8208,0.832,0.833,0.8608,0.871,0.875,0.8838,0.8885,0.8885,0.8885,0.8892,0.9015,0.9306,0.9388,0.9462,0.9754,0.9822,0.9903,1.0195,1.0263,1.0358,1.0649,1.0717,1.0717,1.0717,1.0717,1.0717,1.0717,1.0717,1.0717,1.0717,1.0717,1.0717,1.0717,1.0975,1.122,1.1234,1.1436,1.1613,1.1619,1.1619,1.1619,1.1619,1.1619,1.1619,1.1619,1.1619,1.1619,1.1619,1.1755,1.1823,1.1823,1.1823,1.1898,0.0,0.0,0.0,0.0,0.0,0.0,0.0,0.0,0.0,0.0,0.0,0.0,0.0,0.0,0.0,0.0,0.0,0.0,0.0,0.0,0.0,0.0,0.0,0.0,0.0,0.0,0.0,0.0,0.0,0.0,1.3878,1.3051,1.2559,1.2559,1.2559,1.1681,0.9924,0.9847,0.8854,0.6964,0.7051,0.7125,0.7231,0.7482,0.7631,0.7692,0.7887,0.7988,0.7988,0.7988,0.7988,0.7988,0.7988,0.7988,0.7988,0.7988,0.7988,0.7995,0.8106,0.8248,0.8425,0.8526,0.8696,0.8811,0.8865,0.8885,0.8885,0.8885,0.9008,0.9123,0.9327,0.9456,0.9578,0.9774,0.9897,1.0025,1.0236,1.0351,1.0473,1.0677,1.0717,1.0717,1.0717,1.0717,1.0717,1.0717,1.0717,1.0717,1.0717,1.0717,1.0758,1.0786,1.1043,1.1206,1.1301,1.1497,1.1619,1.1619,1.1619,1.1619,1.1619,1.1619,1.1619,1.1619,1.1619,1.1619,1.1619,1.1762,1.183,1.183,1.1932,1.2006,0.0,0.0,0.0,0.0,0.0,0.0,0.0,0.0,0.0,0.0,0.0,0.0,0.0,0.0,0.0,0.0,0.0,0.0,0.0,0.0,0.0,0.0,0.0,0.0,0.0,0.0,0.0,0.0,0.0,0.0,1.2954,1.2034,1.1373,1.1044,1.1135,1.0312,0.8401,0.9257,0.8734,0.6889,0.7031,0.7098,0.7105,0.7407,0.755,0.7611,0.7855,0.7941,0.7988,0.7988,0.7988,0.7988,0.7988,0.7988,0.7988,0.7988,0.7988,0.7988,0.7988,0.8201,0.8418,0.8465,0.8655,0.8817,0.8865,0.8885,0.8885,0.8885,0.9042,0.9248,0.934,0.953,0.9707,0.9795,0.9978,1.0154,1.0256,1.0392,1.0534,1.069,1.0717,1.0717,1.0717,1.0717,1.0717,1.0717,1.0717,1.0717,1.0717,1.0765,1.0766,1.0873,1.1124,1.128,1.1382,1.1531,1.1619,1.1619,1.1619,1.1619,1.1619,1.1667,1.1687,1.1687,1.1742,1.1769,1.1769,1.1864,1.1938,1.1986,1.2094,1.2142,0.0,0.0,0.0,0.0,0.0,0.0,0.0,0.0,0.0,0.0,0.0,0.0,0.0,0.0,0.0,0.0,0.0,0.0,0.0,0.0,0.0,0.0,0.0,0.0,0.0,0.0,0.0,0.0,0.0,1.2671,1.173,1.1323,1.064,0.9693,0.9947,0.9564,0.8343,0.8581,0.8098,0.6883,0.7024,0.7098,0.7098,0.7299,0.7455,0.7604,0.7746,0.7896,0.7988,0.7988,0.7988,0.7988,0.7988,0.7988,0.7988,0.7988,0.7988,0.7988,0.7988,0.814,0.8347,0.8438,0.8587,0.8737,0.8838,0.8885,0.8885,0.8892,0.9049,0.9248,0.9347,0.9605,0.9822,0.9829,1.0059,1.0283,1.0283,1.0399,1.0541,1.069,1.0717,1.0717,1.0717,1.0717,1.0717,1.0717,1.0717,1.0717,1.0717,1.0786,1.088,1.0887,1.1212,1.1396,1.1396,1.1531,1.1619,1.1619,1.1619,1.1619,1.1626,1.1755,1.183,1.1837,1.1986,1.206,1.2142,1.2142,1.2142,1.2291,1.2291,1.2298,1.1965,0.0,0.0,0.0,0.0,0.0,0.0,0.0,0.0,0.0,0.0,0.0,0.0,0.0,0.0,0.0,0.0,0.0,0.0,0.0,0.0,0.0,0.0,0.0,0.0,0.0,0.0,0.0,0.0,1.0869,1.13,0.9707,0.8625,0.8317,0.841,0.7969,0.6888,0.7845,0.779,0.677,0.6977,0.7098,0.7098,0.7299,0.7455,0.7604,0.7746,0.7896,0.7988,0.7988,0.7988,0.7988,0.7988,0.7988,0.7988,0.7988,0.7988,0.7988,0.7988,0.814,0.8347,0.8438,0.8587,0.8737,0.8838,0.8885,0.8905,0.9062,0.918,0.9268,0.9476,0.9686,0.9849,0.9896,1.0134,1.031,1.0412,1.0555,1.067,1.0711,1.0717,1.0717,1.0717,1.0717,1.0717,1.0717,1.0717,1.0717,1.0717,1.0786,1.0989,1.109,1.1274,1.1436,1.1545,1.1592,1.1619,1.1619,1.1619,1.1667,1.1769,1.1809,1.1884,1.1993,1.204,1.2115,1.223,1.223,1.225,1.2291,1.2393,1.244,0.0,0.0,0.0,0.0,0.0,0.0,1.2233,1.1986,0.0,0.0,0.0,0.0,0.0,0.0,0.0,0.0,0.0,0.0,0.0,0.0,0.0,0.0,0.0,0.0,0.0,0.0,0.0,0.0,1.1572,1.0865,1.1018,0.8559,0.7365,0.7778,0.7403,0.6902,0.6388,0.7182,0.7303,0.6797,0.7095,0.7204,0.7098,0.7299,0.7455,0.7604,0.7685,0.7841,0.7988,0.7988,0.7988,0.7988,0.7988,0.7988,0.7988,0.7988,0.7988,0.7988,0.7988,0.818,0.837,0.8459,0.8628,0.8825,0.8858,0.8885,0.8967,0.9166,0.9303,0.9401,0.9639,0.9808,0.9876,0.9963,1.0215,1.0392,1.0473,1.0609,1.0717,1.0717,1.0717,1.0717,1.0717,1.0717,1.0717,1.0717,1.0772,1.0745,1.0745,1.1002,1.1165,1.1246,1.1396,1.1525,1.1613,1.1619,1.1647,1.1701,1.1708,1.1775,1.1925,1.1986,1.2067,1.2155,1.2216,1.2291,1.2379,1.2318,1.2318,1.2379,1.2461,1.2501,0.0,0.0,0.0,0.0,0.0,0.0,1.2805,1.2016,1.1333,0.0,0.0,0.0,0.0,0.0,0.0,0.0,0.0,0.0,0.0,0.0,0.0,0.0,0.0,0.0,0.0,0.0,0.0,1.2305,1.207,1.1465,1.0372,0.7778,0.6718,0.7595,0.6771,0.6381,0.6511,0.6641,0.6797,0.6889,0.7231,0.7292,0.7098,0.7299,0.7455,0.7597,0.7597,0.7767,0.7988,0.7988,0.7988,0.7988,0.7988,0.7988,0.7988,0.7988,0.7988,0.7988,0.8008,0.8235,0.8465,0.8499,0.8689,0.8858,0.8878,0.8892,0.8994,0.9214,0.9408,0.9659,0.9788,0.9862,0.997,1.0004,1.0276,1.048,1.0507,1.0622,1.0717,1.0717,1.0717,1.0717,1.0717,1.0717,1.0717,1.0717,1.0786,1.088,1.088,1.1206,1.1389,1.1389,1.1531,1.1619,1.1619,1.1633,1.1694,1.1823,1.1843,1.1925,1.2081,1.2216,1.2298,1.2311,1.244,1.2501,1.2501,1.2372,1.2379,1.2501,1.2501,1.2501,0.0,0.0,0.0,0.0,0.0,0.0,1.2225,1.1757,1.1393,0.0,0.0,0.0,0.0,0.0,0.0,0.0,0.0,0.0,0.0,0.0,0.0,0.0,0.0,0.0,0.0,0.0,1.2305,1.2305,1.0795,0.9102,0.7288,0.6602,0.6377,0.6602,0.6488,0.6484,0.6511,0.6749,0.6856,0.6889,0.7231,0.7292,0.7098,0.7299,0.7455,0.7597,0.7597,0.7767,0.7988,0.7988,0.7988,0.7988,0.7988,0.7988,0.7988,0.7988,0.7988,0.8008,0.818,0.8262,0.835,0.8587,0.871,0.8777,0.8844,0.9022,0.9171,0.9442,0.9646,0.9788,0.9815,0.9842,0.993,1.0175,1.0283,1.0385,1.0622,1.0697,1.0717,1.0717,1.0717,1.0717,1.0717,1.0717,1.0717,1.0717,1.0786,1.088,1.088,1.1206,1.1389,1.1389,1.1531,1.1619,1.1619,1.1721,1.1803,1.183,1.1945,1.2088,1.2237,1.2277,1.2345,1.2461,1.2488,1.2501,1.2501,1.2474,1.2474,1.2501,1.2501,1.2501,0.0,0.0,0.0,1.3705,0.0,0.0,0.0,1.2146,1.1769,0.0,0.0,0.0,0.0,0.0,0.0,0.0,0.0,0.0,0.0,0.0,0.0,0.0,0.0,0.0,0.0,0.0,1.1703,1.1362,0.9606,0.8313,0.7817,0.6834,0.6532,0.7019,0.6713,0.6552,0.6586,0.6817,0.6923,0.6991,0.7265,0.7292,0.7105,0.738,0.7529,0.7604,0.7672,0.7834,0.7988,0.7988,0.7988,0.7988,0.7988,0.7988,0.7988,0.7988,0.8042,0.8167,0.8241,0.837,0.8513,0.8662,0.8764,0.8838,0.8858,0.9096,0.9313,0.9544,0.9713,0.9822,0.9822,0.9876,0.9992,1.0229,1.0337,1.0446,1.067,1.0717,1.0717,1.0717,1.0717,1.0717,1.0717,1.0717,1.0744,1.0819,1.0962,1.1084,1.1158,1.1369,1.1504,1.1504,1.1572,1.1619,1.1619,1.1687,1.1789,1.1938,1.202,1.2162,1.2386,1.2393,1.2427,1.2501,1.2501,1.2501,1.2501,1.2501,1.2501,1.2501,1.2583,1.2617,0.0,0.0,0.0,0.0,0.0,1.3489,0.0,0.0,0.0,0.0,0.0,0.0,0.0,0.0,0.0,0.0,0.0,0.0,0.0,0.0,0.0,0.0,0.0,0.0,0.0,0.0,1.0836,0.9916,0.8533,0.8005,0.8685,0.7173,0.6679,0.748,0.69,0.6573,0.6702,0.6878,0.6984,0.7098,0.7299,0.7292,0.7105,0.7428,0.757,0.7604,0.7719,0.7875,0.7988,0.7988,0.7988,0.7988,0.7988,0.7988,0.7988,0.7988,0.8119,0.8228,0.8313,0.8445,0.8669,0.8703,0.8811,0.8892,0.8952,0.9191,0.9415,0.9598,0.9734,0.9822,0.9822,0.9876,1.0017,1.0209,1.0365,1.0527,1.0649,1.0697,1.0717,1.0717,1.0717,1.0717,1.0717,1.0717,1.0765,1.082,1.1029,1.1179,1.1328,1.1484,1.1586,1.1613,1.1647,1.1647,1.1619,1.1701,1.1837,1.2047,1.2115,1.225,1.2488,1.2501,1.2501,1.2501,1.2501,1.2501,1.2501,1.2501,1.2501,1.2508,1.2657,1.2732,0.0,0.0,0.0,0.0,1.3233,0.0,0.0,0.0,0.0,0.0,0.0,0.0,0.0,0.0,0.0,0.0,0.0,0.0,0.0,0.0,0.0,0.0,0.0,0.0,0.0,0.0,0.0,0.7951,0.7536,0.7131,0.6665,0.6416,0.6338,0.6454,0.6606,0.6681,0.6702,0.6937,0.7078,0.7098,0.7299,0.7292,0.7098,0.7319,0.7468,0.7604,0.7617,0.778,0.7988,0.7988,0.7988,0.7988,0.7988,0.7988,0.7988,0.7988,0.8002,0.8035,0.8221,0.8377,0.8533,0.8669,0.8811,0.8932,0.9252,0.9354,0.9442,0.972,0.9808,0.9822,0.9822,0.9876,0.999,1.0011,1.029,1.0493,1.0514,1.0622,1.0717,1.0717,1.0717,1.0717,1.0717,1.0717,1.0724,1.0744,1.0806,1.1023,1.1172,1.1321,1.147,1.1606,1.1735,1.1755,1.1633,1.1986,1.2169,1.2142,1.2305,1.2467,1.2501,1.2501,1.2501,1.2501,1.2501,1.2501,1.2501,1.2501,1.2501,1.2508,1.2657,1.2732,0.0,0.0,0.0,0.0,0.0,0.0,0.0,0.0,1.2768,0.0,0.0,0.0,0.0,0.0,0.0,0.0,0.0,0.0,0.0,0.0,0.0,0.0,0.0,0.0,0.0,0.0,0.0,0.0,0.0,0.6906,0.6602,0.6398,0.6334,0.6422,0.6586,0.6742,0.6831,0.6997,0.7098,0.7098,0.7204,0.7204,0.7098,0.7299,0.7455,0.7604,0.7685,0.7841,0.7988,0.7988,0.7988,0.7988,0.7988,0.7988,0.7988,0.7988,0.8099,0.818,0.8248,0.8425,0.8642,0.8791,0.894,0.9103,0.9313,0.9442,0.9557,0.9761,0.9822,0.9822,0.9822,0.9869,0.9876,0.9963,1.0215,1.0392,1.0473,1.0609,1.0717,1.0717,1.0717,1.0717,1.0717,1.0717,1.0751,1.0772,1.084,1.1029,1.1267,1.1348,1.145,1.1606,1.1748,1.1809,1.1748,1.1999,1.2169,1.2196,1.2386,1.2501,1.2501,1.2501,1.2501,1.2501,1.2501,1.2501,1.2501,1.2589,1.2589,1.2508,1.2752,1.2908,1.1733,0.0,0.0,0.0,0.0,0.0,0.0,0.0,0.0,0.0,0.0,0.0,0.0,0.0,0.0,0.0,0.0,0.0,0.0,0.0,0.0,0.0,0.0,0.0,0.0,0.0,0.0,0.0,0.7086,0.0,0.676,0.6554,0.6446,0.6504,0.6661,0.6817,0.6883,0.7024,0.7098,0.7098,0.7098,0.7119,0.721,0.7319,0.7475,0.7665,0.7767,0.7896,0.7988,0.7988,0.7988,0.7988,0.7988,0.7988,0.7988,0.7988,0.8113,0.8208,0.8208,0.8397,0.8682,0.8817,0.9035,0.9234,0.9334,0.949,0.9639,0.9781,0.9822,0.9822,0.9822,0.9849,0.9842,0.9909,1.0168,1.0358,1.0419,1.0582,1.0717,1.0717,1.0717,1.0717,1.0717,1.0717,1.0758,1.0799,1.0853,1.1043,1.1294,1.1362,1.145,1.1606,1.1782,1.1877,1.1837,1.2047,1.223,1.2338,1.2447,1.2501,1.2501,1.2501,1.2522,1.2562,1.2562,1.2583,1.263,1.2739,1.2739,1.263,1.2854,1.299,0.0,0.0,0.0,1.0985,0.0,0.0,0.0,0.0,1.3956,0.0,0.0,0.0,0.0,0.0,0.0,0.0,0.0,0.0,0.0,0.0,0.0,0.0,0.0,0.0,0.0,0.0,0.0,0.0,0.6798,0.0,0.6604,0.6714,0.6713,0.6504,0.6763,0.6883,0.6883,0.7024,0.7098,0.7098,0.7098,0.7217,0.7412,0.7412,0.7529,0.7801,0.7807,0.7896,0.7988,0.7988,0.7988,0.7988,0.7988,0.7988,0.7988,0.7988,0.7995,0.7995,0.7995,0.8241,0.854,0.8838,0.9035,0.9234,0.9334,0.949,0.9639,0.9781,0.9822,0.9822,0.9822,0.9869,0.9943,0.9863,1.0168,1.0453,1.0317,1.0514,1.0717,1.0717,1.0717,1.0717,1.0717,1.0717,1.0724,1.0724,1.0786,1.1002,1.1151,1.1301,1.145,1.1606,1.1877,1.1993,1.1843,1.2237,1.2488,1.2494,1.2501,1.2501,1.2501,1.2501,1.2569,1.2718,1.2725,1.2793,1.2949,1.2949,1.2949,1.2949,1.2956,1.2881,0.0,0.0,0.9265,0.919,0.0,0.0,0.0,0.0,0.0,0.0,0.0,0.0,0.0,0.0,0.0,0.0,0.0,0.0,0.0,0.0,0.0,0.0,0.0,0.0,0.0,0.0,0.0,0.7487,0.7407,0.7233,0.0,0.6836,0.6763,0.6654,0.6824,0.693,0.7024,0.7071,0.7098,0.7098,0.7098,0.7224,0.7419,0.7419,0.7529,0.7814,0.7814,0.7896,0.7988,0.7988,0.7988,0.7988,0.7988,0.7988,0.7988,0.7988,0.7988,0.8015,0.8262,0.8397,0.8533,0.8838,0.9103,0.9313,0.9367,0.9551,0.9761,0.9808,0.9822,0.9822,0.9822,0.9863,0.9849,0.9896,1.0168,1.0365,1.0412,1.0575,1.0717,1.0717,1.0717,1.0717,1.0717,1.0717,1.0758,1.0786,1.0847,1.0968,1.128,1.1362,1.1484,1.1735,1.1938,1.2081,1.2128,1.2359,1.2501,1.2501,1.2501,1.2501,1.2501,1.2501,1.2576,1.2725,1.2732,1.2807,1.2963,1.3057,1.3051,1.2963,1.3057,1.3024,0.7776,0.7895,0.0,0.0,0.909,0.0,1.0638,0.0,0.0,0.0,0.0,0.0,0.0,0.0,0.0,0.0,0.0,0.0,0.0,0.9674,0.0,0.0,0.0,0.0,0.0,0.0,0.8407,0.7755,0.7765,0.7582,0.0,0.0,0.6903,0.6688,0.6898,0.7004,0.7092,0.7152,0.7224,0.7224,0.7233,0.738,0.7529,0.7529,0.7658,0.7889,0.7889,0.7901,0.7988,0.7988,0.7988,0.7988,0.7988,0.7988,0.7988,0.7988,0.7988,0.8029,0.8377,0.8479,0.854,0.8899,0.9184,0.9395,0.9449,0.9632,0.9822,0.9822,0.9822,0.9822,0.9822,0.9863,0.9862,0.9963,1.0209,1.0378,1.0473,1.0609,1.0717,1.0717,1.0717,1.0717,1.0717,1.0717,1.0772,1.086,1.0989,1.1111,1.1362,1.1436,1.1545,1.1735,1.1938,1.2142,1.2345,1.2447,1.2501,1.2501,1.2501,1.2501,1.2501,1.2501,1.2603,1.2807,1.2813,1.2915,1.3119,1.3207,1.318,1.3037,1.3132,1.3098]}]]